.

MPMG - Transparência

Contracheque - Remuneração de todos os servidores ativos - Pós Resolução CNMP 200/2019

Período: 2022 - Janeiro

Ordem Matrícula Nome Cargo Efetivo Lotação Rendimentos Descontos Rendimento Líquido Total *14 Data de Referência
Remuneração básica Remuneração eventual ou Temporária Outras Remunerações Temporárias *7 Verbas Indenizatórias *8 Total de Rendimentos Brutos *9 Obrigatórios Legais Outros Descontos Eventuais Total de descontos *13
Remuneração do Cargo Efetivo *1 Outras Verbas Remuneratórias *2 Função de Confiança ou Cargo em Comissão *3 Gratificação Natalina *4 Férias 1/3 Constitucional *5 Abono de Permanência *6 Contribuição Previdenciária *10 Imposto de Renda *11 Retenção por Teto Constitucional *12
1 498900 ABDON MARCIO BARBOSA DA SILVA OFICIAL DO MP ABRE CAMPO - COMARCA; ABRE CAMPO-PJ-01PJ 6.123,79 1.224,76 0,00 0,00 0,00 0,00 0,00 1.717,00 9.065,55 968,98 780,75 0,00 0,00 1.749,73 7.315,82 31/01/2022
2 177800 ADALBERTO MENEZES FARIA SAMORA OFICIAL DO MP BELO HORIZONTE - COMARCA; DIR ESTRUTURA E PROCESSOS ORGANIZACIONAIS 16.750,82 6.700,33 0,00 0,00 0,00 0,00 515,93 7.345,28 31.312,36 3.545,40 4.500,45 0,00 0,00 8.045,85 23.266,51 31/01/2022
3 306400 ADALBERTO MOREIRA GONCALVES ANALISTA DO MP BELO HORIZONTE - COMARCA; BH-24PJ JUIZO REG BARREIRO-SECRETARIA 17.413,92 5.224,18 0,00 0,00 0,00 0,00 498,04 7.150,14 30.286,28 3.415,31 4.416,91 0,00 0,00 7.832,22 22.454,06 31/01/2022
4 179300 ADENISE AUXILIADORA SOUZA SAD OFICIAL DO MP BARBACENA - COMARCA; BARBACENA-PJ-06PJ 15.272,02 6.108,81 0,00 0,00 0,00 0,00 548,77 7.703,63 29.633,23 3.214,15 4.022,20 0,00 0,00 7.236,35 22.396,88 31/01/2022
5 272200 ADILSON BATISTA ORNELAS OFICIAL DO MP LAVRAS - COMARCA; LAVRAS-PJ-SECRETARIA 6.123,79 1.837,14 0,00 0,00 0,00 0,00 525,42 7.448,87 15.935,22 1.066,96 974,34 0,00 0,00 2.041,30 13.893,92 31/01/2022
6 380100 ADILSON GONCALVES DE MELO JUNIOR ANALISTA DO MP ARAXÁ - COMARCA; ARAXA-PJ-05PJ 12.204,02 2.440,80 0,00 0,00 0,00 0,00 536,98 7.574,93 22.756,73 2.136,38 2.466,19 0,00 0,00 4.602,57 18.154,16 31/01/2022
7 148800 ADILSON JANUARIO OFICIAL DO MP BELO HORIZONTE - COMARCA; BH-22PJ PES COM DEF E IDOSOS-SECRETARIA 18.820,14 13.174,10 0,00 0,00 1.643,79 4.912,29 469,25 6.836,08 45.855,65 4.912,29 8.328,96 0,00 0,00 13.241,25 32.614,40 31/01/2022
8 322601 ADMILSON SILVEIRA ANALISTA DO MP SAO JOAO DO PARAISO COMARCA; SAO JOAO DO PARAISO-PJ-UNPJ 10.069,62 1.006,96 0,00 0,00 0,00 0,00 527,98 8.246,21 19.850,77 1.565,47 1.746,20 0,00 0,00 3.311,67 16.539,10 31/01/2022
9 333700 ADRIANA ABRITTA TEIXEIRA OFICIAL DO MP BELO HORIZONTE - COMARCA; DIRET DE PESSOAL DO MINISTERIO PUBLICO - DPMP 10.069,62 3.020,89 0,00 0,00 0,00 0,00 527,98 7.476,82 21.095,31 1.887,70 2.211,41 0,00 0,00 4.099,11 16.996,20 31/01/2022
10 468500 ADRIANA APARECIDA FIRMINO ANALISTA DO MP CARATINGA - COMARCA; CARATINGA-PJ-04PJ 10.069,62 2.013,92 0,00 0,00 4.027,85 0,00 0,00 1.973,46 18.084,85 1.726,58 3.034,33 0,00 0,00 4.760,91 13.323,94 31/01/2022
11 326100 ADRIANA AUGUSTA AMARAL BELO OFICIAL DO MP BARBACENA - COMARCA; BARBACENA-PJ-08PJ 10.069,62 3.020,89 0,00 0,00 0,00 0,00 527,98 7.476,82 21.095,31 1.887,70 2.107,14 0,00 0,00 3.994,84 17.100,47 31/01/2022
12 605700 ADRIANA COSTA LIRA ASSESSOR/OFICIAL BELO HORIZONTE - COMARCA; COORD ESTADUAL DE DEFESA DA EDUCACAO 0,00 817,05 8.170,49 -57,34 0,00 0,00 527,27 7.469,03 16.926,50 872,76 1.246,39 0,00 421,13 2.540,28 14.386,22 31/01/2022
13 541100 ADRIANA CRISTINA DE OLIVEIRA OFICIAL DO MP GUAPÉ - COMARCA; GUAPE-PJ-UNPJ 5.562,64 556,26 0,00 0,00 0,00 0,00 0,00 2.486,39 8.605,29 778,43 547,13 0,00 0,00 1.325,56 7.279,73 31/01/2022
14 254800 ADRIANA DAS GRACAS FERNANDES ANALISTA DO MP UBERABA - COMARCA; UBERABA-PJ-07PJ 18.820,14 13.174,10 0,00 0,00 0,00 0,00 469,25 6.836,08 39.299,57 4.912,29 6.526,04 0,00 0,00 11.438,33 27.861,24 31/01/2022
15 217400 ADRIANA DE CARVALHO CATAO BRAGA ASSESSOR BELO HORIZONTE - COMARCA; DIV FISCAL ADM CONT TERCEIRIZACAO 0,00 3.268,20 8.170,49 0,00 0,00 0,00 0,00 1.717,00 13.155,69 828,38 2.377,93 0,00 0,00 3.206,31 9.949,38 31/01/2022
16 434600 ADRIANA FERREIRA DA SILVA ANALISTA DO MP BELO HORIZONTE - COMARCA; BH-14PJ DEFESA CONSUMIDOR-GAB 112PJ 13.011,52 2.602,30 0,00 0,00 5.204,61 0,00 0,00 1.717,00 22.535,43 2.291,42 4.225,57 0,00 0,00 6.516,99 16.018,44 31/01/2022
17 499800 ADRIANA FERREIRA TIAGO OFICIAL DO MP SALINAS - COMARCA; SALINAS-PJ-02PJ 7.663,37 1.532,67 0,00 0,00 0,00 0,00 0,00 1.717,00 10.913,04 1.264,58 1.311,79 0,00 0,00 2.576,37 8.336,67 31/01/2022
18 543400 ADRIANA GUIMARAES NUNES DE PAULA ANALISTA DO MP PATROCÍNIO - COMARCA; PATROCINIO-PJ-01PJ 9.444,70 944,47 0,00 0,00 0,00 0,00 0,00 1.717,00 12.106,17 765,99 1.708,91 0,00 0,00 2.474,90 9.631,27 31/01/2022
19 471500 ADRIANA HORTA DE CARVALHO RODRIGUES DE SOUSA ANALISTA DO MP BELO HORIZONTE - COMARCA; GRUPO ESP PROM JUST DEF PROB ADM PAT PUB 10.069,62 2.013,92 0,00 0,00 0,00 0,00 0,00 1.717,00 13.800,54 1.726,58 1.926,67 0,00 0,00 3.653,25 10.147,29 31/01/2022
20 86400 ADRIANA MOREIRA CALDEIRA BRANT OFICIAL DO MP BELO HORIZONTE - COMARCA; BH-21PJ TUTELA FUNDACOES-SECRETARIA 16.750,82 11.725,57 0,00 678,78 1.456,17 9.631,58 0,00 1.717,00 41.959,92 4.349,44 7.362,09 0,00 0,00 11.711,53 30.248,39 31/01/2022
21 480700 ADRIANA MOREIRA DE AVELLAR CEZILIO OFICIAL DO MP BELO HORIZONTE - COMARCA; BH-12PJ JUIZO CRIMINAL-SECRETARIA 6.123,79 1.224,76 0,00 0,00 2.449,52 0,00 0,00 1.717,00 11.515,07 968,98 1.454,36 0,00 0,00 2.423,34 9.091,73 31/01/2022
22 326000 ADRIANA PEREIRA CARNEIRO RESENDE OFICIAL DO MP BELO HORIZONTE - COMARCA; BH-25PJ DEFESA DA EDUCACAO-SECRETARIA 10.069,62 3.020,89 0,00 0,00 4.363,50 0,00 0,00 1.717,00 19.171,01 1.887,70 3.411,38 0,00 0,00 5.299,08 13.871,93 31/01/2022
23 502200 ADRIANA PETRUCCI DAVINA OFICIAL DO MP PATROCÍNIO - COMARCA; PATROCINIO-PJ-01PJ 7.912,85 1.582,57 0,00 0,00 0,00 0,00 522,25 8.183,64 18.201,31 1.312,48 1.380,95 0,00 0,00 2.693,43 15.507,88 31/01/2022
24 201900 ADRIANA REIS PIMENTA OFICIAL DO MP TEÓFILO OTONI - COMARCA; TEOFILO OTONI-PJ-03PJ 15.272,02 6.108,81 0,00 0,00 0,00 0,00 548,77 7.703,63 29.633,23 3.214,15 4.126,48 0,00 0,00 7.340,63 22.292,60 31/01/2022
25 278700 ADRIANA RODRIGUES PINTO COELHO AMARAL ANALISTA DO MP BELO HORIZONTE - COMARCA; CGMP-ASSESSORIA JURIDICA 18.103,37 5.431,01 0,00 0,00 0,00 0,00 517,76 7.365,25 31.417,39 3.558,71 4.571,81 0,00 0,00 8.130,52 23.286,87 31/01/2022
26 468000 ADRIANA SANTOS DE SANTANA MOREIRA ANALISTA DO MP ARAÇUAÍ - COMARCA; ARACUAI-PJ-02PJ 10.069,62 4.027,85 0,00 0,00 0,00 0,00 516,91 7.355,99 21.970,37 2.048,81 2.339,75 0,00 0,00 4.388,56 17.581,81 31/01/2022
27 194700 ADRIANA TSUKIDE OFICIAL DO MP UBERABA - COMARCA; COORD REG BACIAS PARANAIBA BAIXO RIO GRANDE 15.272,02 6.108,81 0,00 0,00 0,00 0,00 0,00 1.717,00 23.097,83 3.214,15 4.074,34 0,00 0,00 7.288,49 15.809,34 31/01/2022
28 465500 ADRIANO CASSIANO MATOS ANALISTA DO MP ARAXÁ - COMARCA; ARAXA-PJ-02PJ 10.069,62 2.013,92 0,00 0,00 0,00 0,00 0,00 1.717,00 13.800,54 1.726,58 1.978,80 0,00 0,00 3.705,38 10.095,16 31/01/2022
29 500500 ADRIANO DE ALMEIDA SILVA OFICIAL DO MP UBERABA - COMARCA; UBERABA-PJ-12PJ 7.912,85 1.582,57 0,00 0,00 0,00 0,00 0,00 2.486,39 11.981,81 1.312,48 881,00 0,00 0,00 2.193,48 9.788,33 31/01/2022
30 187200 ADRIANO DE FREITAS MARON OFICIAL DO MP PONTE NOVA - COMARCA; PONTE NOVA-PJ-03PJ 13.011,52 11.710,37 0,00 210,46 1.255,93 5.380,23 543,88 7.650,25 39.762,64 3.748,72 6.274,54 0,00 0,00 10.023,26 29.739,38 31/01/2022
31 477900 ADRIANO FERREIRA DE ALMEIDA OFICIAL DO MP TAIOBEIRAS - COMARCA; TAIOBEIRAS-PJ-UNPJ 7.912,85 1.582,57 0,00 0,00 0,00 0,00 522,25 7.414,25 17.431,92 1.312,48 1.276,67 0,00 0,00 2.589,15 14.842,77 31/01/2022
32 269101 ADRIANO PEREIRA SILVA ANALISTA DO MP UBERABA - COMARCA; UBERABA-PJ-02PJ 10.069,62 2.013,92 0,00 0,00 0,00 0,00 531,68 7.517,10 20.132,32 1.726,58 1.822,39 0,00 0,00 3.548,97 16.583,35 31/01/2022
33 414200 ADRIANO RODRIGUES FERNANDES ANALISTA DO MP CARANDAÍ - COMARCA; CARANDAI-PJ-UNPJ 10.069,62 2.013,92 0,00 0,00 0,00 0,00 0,00 1.717,00 13.800,54 1.726,58 1.874,53 0,00 0,00 3.601,11 10.199,43 31/01/2022
34 536700 ADRIELLE COSTA MARIA MOURAO FIGUEIREDO OFICIAL DO MP SERRO - COMARCA; SERRO-PJ-SECRETARIA 5.562,64 556,26 0,00 0,00 0,00 0,00 0,00 2.486,39 8.605,29 778,43 599,27 0,00 0,00 1.377,70 7.227,59 31/01/2022
35 514300 ADRIENE DAMASCENO BRAGA ANALISTA DO MP ALFENAS - COMARCA; ALFENAS-PJ-03PJ 10.069,62 2.013,92 0,00 0,00 0,00 0,00 531,68 8.286,49 20.901,71 1.726,58 1.978,80 0,00 0,00 3.705,38 17.196,33 31/01/2022
36 254600 ADRIENE DOMINGUES COSTA ANALISTA DO MP BELO HORIZONTE - COMARCA; SUPER DE GESTAO DE PESSOAS-LOTACAO TEMPORARIA 18.820,14 5.646,04 0,00 0,00 0,00 0,00 0,00 0,00 24.466,18 3.707,80 4.839,19 0,00 0,00 8.546,99 15.919,19 31/01/2022
37 252001 ADRIENE GOMES BARRETO ANALISTA DO MP BELO HORIZONTE - COMARCA; BH-19PJ SAUDE-SECRETARIA 047PJ 14.790,66 5.916,26 0,00 0,00 0,00 0,00 531,48 7.514,94 28.753,34 3.106,32 3.970,80 0,00 0,00 7.077,12 21.676,22 31/01/2022
38 714800 ADSON GUSTAVO DE OLIVEIRA ASSESSOR PROCURADOR JUSTICA BELO HORIZONTE - COMARCA; GABINETE DE PROCURADOR DE JUSTIÇA - SALA 803 0,00 0,00 5.031,40 0,00 0,00 0,00 0,00 1.444,73 6.476,13 670,17 584,55 0,00 0,00 1.254,72 5.221,41 31/01/2022
39 302500 AGENOR JOSE DA SILVA JUNIOR ANALISTA DO MP JUIZ DE FORA - COMARCA; JUIZ DE FORA-PJ-14PJ 17.413,92 5.224,18 0,00 0,00 0,00 0,00 498,04 7.150,14 30.286,28 3.415,31 4.312,63 0,00 0,00 7.727,94 22.558,34 31/01/2022
40 357500 AILSON WAGNER DE ALENCAR SILVA OFICIAL DO MP BELO HORIZONTE - COMARCA; BH-12PJ JUIZO CRIMINAL-SECRETARIA 11.085,56 4.434,22 0,00 0,00 0,00 0,00 512,15 7.304,12 23.336,05 2.276,38 2.616,16 0,00 0,00 4.892,54 18.443,51 31/01/2022
41 366400 AILTON ALEXSSANDRO ALVES OFICIAL DO MP PARÁ DE MINAS - COMARCA; PARA DE MINAS-PJ-05PJ 9.752,14 3.900,86 0,00 0,00 0,00 0,00 0,00 1.717,00 15.370,00 1.977,69 2.341,35 0,00 0,00 4.319,04 11.050,96 31/01/2022
42 318900 AILTON DE CASTRO RIBEIRO JUNIOR OFICIAL DO MP ITAJUBA - COMARCA; ITAJUBA-PJ-01PJ 10.069,62 3.020,89 0,00 0,00 0,00 0,00 527,98 8.246,21 21.864,70 1.887,70 2.002,87 0,00 0,00 3.890,57 17.974,13 31/01/2022
43 464400 ALAN MONTEIRO GASPAR ANALISTA DO MP SETE LAGOAS - COMARCA; SETE LAGOAS-PJ-08PJ 10.069,62 2.013,92 0,00 0,00 0,00 0,00 531,68 7.517,10 20.132,32 1.726,58 1.978,80 0,00 0,00 3.705,38 16.426,94 31/01/2022
44 492000 ALANA DE CASTRO FREITAS OFICIAL DO MP LAVRAS - COMARCA; LAVRAS-PJ-03PJ 6.123,79 1.224,76 0,00 0,00 0,00 0,00 0,00 1.717,00 9.065,55 968,98 885,02 0,00 0,00 1.854,00 7.211,55 31/01/2022
45 306700 ALANA MARCIA DE OLIVEIRA OFICIAL DO MP BELO HORIZONTE - COMARCA; DIRETORIA DE ADMINISTRACAO FINANCEIRA 10.069,62 3.020,89 0,00 0,00 4.363,50 0,00 527,98 7.476,82 25.458,81 1.887,70 3.411,38 0,00 0,00 5.299,08 20.159,73 31/01/2022
46 324500 ALANMAR COUTINHO COSTA OFICIAL DO MP LEOPOLDINA - COMARCA; LEOPOLDINA-PJ-02PJ 10.069,62 3.020,89 0,00 0,00 0,00 0,00 527,98 7.476,82 21.095,31 1.887,70 2.107,14 0,00 0,00 3.994,84 17.100,47 31/01/2022
47 407300 ALBERTO LUIZ SOARES DE OLIVEIRA ANALISTA DO MP BELO HORIZONTE - COMARCA; DIRETORIA DE PROJETOS DE EDIFICACOES 13.011,52 2.602,30 0,00 0,00 0,00 0,00 0,00 1.717,00 17.330,82 2.291,42 2.794,30 0,00 0,00 5.085,72 12.245,10 31/01/2022
48 118200 ALBERTO PEREIRA DA COSTA OFICIAL DO MP DORES DO INDAIÁ - COMARCA; DORES DO INDAIA-PJ-UNPJ 17.413,92 15.672,53 0,00 0,00 1.702,04 5.087,05 485,27 7.010,83 47.371,64 5.087,05 8.645,34 0,00 0,00 13.732,39 33.639,25 31/01/2022
49 282400 ALCILENE MARISE DE ARAUJO ANALISTA DO MP BELO HORIZONTE - COMARCA; BH-23PJ INF-FISC MED SOC FEC 18.103,37 5.431,01 0,00 0,00 0,00 0,00 0,00 1.717,00 25.251,38 3.558,71 4.519,67 0,00 0,00 8.078,38 17.173,00 31/01/2022
50 112600 ALCIONE DA MOTA JARDIM OFICIAL DO MP BELO HORIZONTE - COMARCA; CAO-CRIANCAS E ADOLESCENTES-SECRETARIA 17.413,92 12.189,74 0,00 0,00 0,00 0,00 0,00 1.717,00 31.320,66 4.529,80 5.973,81 0,00 0,00 10.503,61 20.817,05 31/01/2022
51 396400 ALCIONE DE FREITAS E SILVA ANALISTA DO MP BELO HORIZONTE - COMARCA; ASSESS JUR DO CONS SUPERIOR DO MINISTERIO PUB 14.790,66 5.916,26 0,00 0,00 0,00 0,00 531,48 7.514,94 28.753,34 3.106,32 3.970,80 0,00 0,00 7.077,12 21.676,22 31/01/2022
52 657400 ALCIONE MARIA FERREIRA ASSESSOR PROCURADOR JUSTICA BELO HORIZONTE - COMARCA; GABINETE DE PROCURADOR DE JUSTIÇA - SALA 610 0,00 0,00 7.187,72 0,00 0,00 0,00 0,00 2.486,39 9.674,11 828,38 1.208,91 0,00 0,00 2.037,29 7.636,82 31/01/2022
53 161600 ALCIONE NERY SOUZA ASSESSOR BELO HORIZONTE - COMARCA; BH-18PJ DIREITOS HUMANOS-SECRETARIA 0,00 4.085,25 8.170,49 0,00 0,00 0,00 0,00 1.717,00 13.972,74 828,38 2.602,61 0,00 0,00 3.430,99 10.541,75 31/01/2022
54 376000 ALDA GOMES LANA OFICIAL DO MP BELO HORIZONTE - COMARCA; BH-18PJ VIOLENCIA DOMESTICA-SECRETARIA 9.146,93 1.829,39 0,00 0,00 0,00 0,00 523,20 7.424,69 18.924,21 1.549,42 1.670,90 0,00 0,00 3.220,32 15.703,89 31/01/2022
55 148000 ALDA MARTINS SIMOES OFICIAL DO MP BELO HORIZONTE - COMARCA; BH-23PJ CIVEL- FISC ENT AB POL 18.103,37 9.051,69 0,00 0,00 0,00 0,00 0,00 1.717,00 28.872,06 4.138,02 5.460,33 0,00 0,00 9.598,35 19.273,71 31/01/2022
56 318400 ALDO CREPALDI JUNIOR OFICIAL DO MP BELO HORIZONTE - COMARCA; DIVISAO DE MATERIAIS 10.069,62 3.020,89 0,00 0,00 0,00 0,00 527,98 7.476,82 21.095,31 1.887,70 2.159,28 0,00 0,00 4.046,98 17.048,33 31/01/2022
57 604500 ALENIZE APARECIDA RODRIGUES HENRIQUE OFICIAL DO MP RIO NOVO - COMARCA; RIO NOVO-PJ-UNPJ 5.562,64 556,26 0,00 0,00 2.039,63 0,00 336,54 5.388,34 13.883,41 778,43 1.160,17 0,00 0,00 1.938,60 11.944,81 31/01/2022
58 197900 ALESSA DE SOUSA E SILVA OFICIAL DO MP OLIVEIRA - COMARCA; OLIVEIRA-PJ-02PJ 16.750,82 6.700,33 0,00 0,00 0,00 0,00 515,93 7.345,28 31.312,36 3.545,40 4.500,45 0,00 0,00 8.045,85 23.266,51 31/01/2022
59 428500 ALESSANDRA ALVES DINIZ OFICIAL DO MP BELO HORIZONTE - COMARCA; CENTRAL DE APOIO TECNICO-SECRETARIA 7.912,85 3.956,43 0,00 0,00 0,00 0,00 0,00 1.717,00 13.586,28 1.692,30 1.929,31 0,00 0,00 3.621,61 9.964,67 31/01/2022
60 286801 ALESSANDRA BOTELHO JUNQUEIRA DE MENEZES ANALISTA DO MP PASSOS - COMARCA; PASSOS-PJ-05PJ 14.324,23 5.729,69 0,00 0,00 0,00 0,00 514,72 8.101,49 28.670,13 3.001,84 3.611,41 0,00 0,00 6.613,25 22.056,88 31/01/2022
61 307000 ALESSANDRA CRISTINA SANTOS MENDES ANALISTA DO MP BELO HORIZONTE - COMARCA; BH-18PJ VIOLENCIA DOMESTICA-SECRETARIA 15.272,02 4.581,61 0,00 0,00 0,00 0,00 509,58 7.276,02 27.639,23 2.969,79 3.721,56 0,00 0,00 6.691,35 20.947,88 31/01/2022
62 264400 ALESSANDRA DE SOUZA SANTOS ANALISTA DO MP BELO HORIZONTE - COMARCA; SUPERINTENDENCIA DOS ORGAOS COLEGIADOS 18.820,14 7.528,06 0,00 0,00 0,00 0,00 0,00 1.717,00 28.065,20 4.008,93 5.273,94 0,00 0,00 9.282,87 18.782,33 31/01/2022
63 441500 ALESSANDRA DRUMMOND DE FIGUEIREDO ROSSI ANALISTA DO MP BELO HORIZONTE - COMARCA; DIRETORIA DE PROJETOS DE EDIFICACOES 10.069,62 2.013,92 0,00 0,00 0,00 0,00 0,00 1.717,00 13.800,54 1.726,58 1.978,80 0,00 0,00 3.705,38 10.095,16 31/01/2022
64 524000 ALESSANDRA LUCIOLI DE BARROS GUERRA ANALISTA DO MP BELO HORIZONTE - COMARCA; BH-19PJ SAUDE--SECRETARIA 10.069,62 1.006,96 0,00 0,00 0,00 0,00 527,98 7.476,82 19.081,38 1.565,47 1.589,78 0,00 0,00 3.155,25 15.926,13 31/01/2022
65 479900 ALESSANDRA MARA ANDRADE DE FARIA OFICIAL DO MP UBERABA - COMARCA; UBERABA-PJ-09PJ 7.912,85 1.582,57 0,00 0,00 0,00 0,00 522,25 7.414,25 17.431,92 1.312,48 1.380,95 0,00 0,00 2.693,43 14.738,49 31/01/2022
66 226700 ALESSANDRA MARA VASCONCELOS REZENDE OFICIAL DO MP CONSELHEIRO LAFAIETE - COMARCA; CONSELHEIRO LAFAIETE-PJ-07PJ 10.736,08 3.220,82 0,00 0,00 0,00 0,00 511,75 7.299,76 21.768,41 2.026,32 2.411,55 0,00 0,00 4.437,87 17.330,54 31/01/2022
67 112100 ALESSANDRA MARCIA FERREIRA OFICIAL DO MP BELO HORIZONTE - COMARCA; BELO HORIZONTE- SECRETARIA DAS PROMOTORIAS 10.069,62 7.048,73 0,00 0,00 0,00 0,00 502,14 7.194,87 24.815,36 2.532,15 3.141,85 0,00 0,00 5.674,00 19.141,36 31/01/2022
68 196500 ALESSANDRA MARIA RIBEIRO LUCIANO OFICIAL DO MP RIO PARANAÍBA - COMARCA; RIO PARANAIBA-PJ-UNPJ 16.750,82 6.700,33 0,00 0,00 0,00 0,00 0,00 1.717,00 25.168,15 3.545,40 4.500,45 0,00 0,00 8.045,85 17.122,30 31/01/2022
69 651700 ALESSANDRA PROFIRIO SOUZA OFICIAL DO MP NOVA ERA - COMARCA; NOVA ERA-PJ-UNPJ 4.817,57 481,76 0,00 192,70 0,00 0,00 484,16 4.896,60 10.872,79 684,40 402,93 0,00 0,00 1.087,33 9.785,46 31/01/2022
70 384900 ALESSANDRA RODRIGUES ANALISTA DO MP VISCONDE DO RIO BRANCO - COMARCA; VISCONDE DO RIO BRANCO-PJ-03PJ 14.790,66 2.958,13 0,00 0,00 0,00 0,00 520,63 8.166,00 26.435,42 2.633,02 3.183,20 0,00 0,00 5.816,22 20.619,20 31/01/2022
71 390000 ALESSANDRA SPADANO MASSARA VASCONCELOS OFICIAL DO MP BETIM - COMARCA; BETIM-PJ-10PJ 9.146,93 1.829,39 0,00 0,00 0,00 0,00 0,00 1.717,00 12.693,32 1.549,42 1.723,04 0,00 0,00 3.272,46 9.420,86 31/01/2022
72 426500 ALESSANDRO CAMPOS DE PAIVA ANALISTA DO MP BELO HORIZONTE - COMARCA; DIR CRIACAO E MIDIAS 14.324,23 2.864,85 0,00 0,00 5.729,69 0,00 0,00 1.717,00 24.635,77 2.543,47 4.733,85 0,00 0,00 7.277,32 17.358,45 31/01/2022
73 623400 ALESSANDRO DE OLIVEIRA REZENDE ANALISTA DO MP BELO HORIZONTE - COMARCA; DIRET DE INFORMACAO E CONHECIMENTO-DINC/CEAF 9.146,93 914,69 0,00 0,00 0,00 0,00 0,00 1.717,00 11.778,62 1.403,07 1.511,74 0,00 0,00 2.914,81 8.863,81 31/01/2022
74 420600 ALESSANDRO SILVA OFICIAL DO MP VISCONDE DO RIO BRANCO - COMARCA; VISCONDE DO RIO BRANCO-PJ-02PJ 8.579,10 2.573,73 0,00 0,00 0,00 0,00 531,62 7.516,47 19.200,92 1.577,67 1.226,78 0,00 0,00 2.804,45 16.396,47 31/01/2022
75 375301 ALETHEIA PATRICIA ASSIS MORAIS MOREIRA ANALISTA DO MP ITABIRA - COMARCA; ITABIRA-PJ-02PJ 10.069,62 1.006,96 0,00 0,00 0,00 0,00 527,98 8.246,21 19.850,77 1.565,47 1.694,06 0,00 0,00 3.259,53 16.591,24 31/01/2022
76 382300 ALEX CARVALHO LIMA ANALISTA DO MP UBERLÂNDIA - COMARCA; UBERLANDIA-PJ-14PJ 14.790,66 2.958,13 0,00 0,00 0,00 0,00 520,63 7.396,61 25.666,03 2.633,02 3.287,48 0,00 0,00 5.920,50 19.745,53 31/01/2022
77 195201 ALEX DE CASTRO PEREIRA ANALISTA DO MP UBERABA - COMARCA; UBERABA-PJ-09PJ 18.103,37 7.241,35 0,00 0,00 0,00 0,00 464,65 6.785,94 32.595,31 3.848,37 5.042,14 0,00 0,00 8.890,51 23.704,80 31/01/2022
78 358900 ALEX DE PAULA LANZA ASSESSOR BELO HORIZONTE - COMARCA; DIR CONTEUDO JORNALISTICO 0,00 0,00 10.397,52 0,00 0,00 0,00 0,00 2.486,39 12.883,91 828,38 2.091,60 0,00 0,00 2.919,98 9.963,93 31/01/2022
79 178400 ALEX RODRIGO SALDANHA GUIMARAES OFICIAL DO MP BELO HORIZONTE - COMARCA; DIRETORIA DE SISTEMAS DE INFORMACAO 6.123,79 2.449,52 0,00 0,00 0,00 0,00 0,00 1.717,00 10.290,31 1.164,94 1.167,94 0,00 0,00 2.332,88 7.957,43 31/01/2022
80 413500 ALEX VILELA OLIVEIRA ANALISTA DO MP GOVERNADOR VALADARES - COMARCA; COORD REG PJ DEF EDU DIR CRIANCA ADOL RIODOCE 14.324,23 2.864,85 0,00 0,00 0,00 0,00 504,21 7.217,51 24.910,80 2.543,47 3.158,18 0,00 0,00 5.701,65 19.209,15 31/01/2022
81 264300 ALEXANDRA FATIMA SARAIVA SOARES ANALISTA DO MP BELO HORIZONTE - COMARCA; CENTRAL DE APOIO TECN-SETOR DE MEIO AMBIENTE 18.820,14 5.646,04 0,00 0,00 0,00 0,00 538,26 7.588,88 32.593,32 3.707,80 4.839,19 0,00 0,00 8.546,99 24.046,33 31/01/2022
82 488000 ALEXANDRA LARA PAIS DE CARVALHO ANALISTA DO MP SERRO - COMARCA; SERRO-PJ-UNPJ 10.069,62 2.013,92 0,00 0,00 0,00 0,00 531,68 7.517,10 20.132,32 1.726,58 1.822,39 0,00 0,00 3.548,97 16.583,35 31/01/2022
83 256300 ALEXANDRA SANTOS GOMES OFICIAL DO MP BELO HORIZONTE - COMARCA; DIRETORIA GESTAO COMPRAS LICITACOES 10.069,62 3.020,89 0,00 0,00 0,00 0,00 0,00 1.717,00 14.807,51 1.887,70 2.211,41 0,00 0,00 4.099,11 10.708,40 31/01/2022
84 403300 ALEXANDRE AUGUSTO RODRIGUES ANALISTA DO MP ÁGUAS FORMOSAS - COMARCA; AGUAS FORMOSAS-PJ-UNPJ 10.069,62 2.013,92 0,00 0,00 0,00 0,00 0,00 3.255,78 15.339,32 1.726,58 1.978,80 0,00 0,00 3.705,38 11.633,94 31/01/2022
85 640900 ALEXANDRE BARBOSA MASCARENHAS ANALISTA DO MP BETIM - COMARCA; BETIM-PJ-02PJ 6.961,05 696,11 0,00 0,00 0,00 0,00 0,00 1.717,00 9.374,16 927,17 581,39 0,00 0,00 1.508,56 7.865,60 31/01/2022
86 311700 ALEXANDRE BARCELOS RESENDE OFICIAL DO MP BELO HORIZONTE - COMARCA; BH-19PJ SAUDE-SECRETARIA 047PJ 8.579,10 1.715,82 0,00 0,00 0,00 0,00 377,48 6.604,36 17.276,76 1.440,40 1.565,63 0,00 0,00 3.006,03 14.270,73 31/01/2022
87 285600 ALEXANDRE CAMPOS DE OLIVEIRA OFICIAL DO MP UBERABA - COMARCA; COORD REG BACIAS PARANAIBA BAIXO RIO GRANDE 10.069,62 3.020,89 0,00 0,00 0,00 0,00 527,98 7.476,82 21.095,31 1.887,70 2.055,00 0,00 0,00 3.942,70 17.152,61 31/01/2022
88 509200 ALEXANDRE CAPUANO DE REZENDE ANALISTA DO MP BELO HORIZONTE - COMARCA; BH-07PJ 02 TRIBUNAL DO JURI-GAB 109PJ 10.069,62 2.013,92 0,00 0,00 0,00 0,00 0,00 1.717,00 13.800,54 1.726,58 1.926,67 0,00 0,00 3.653,25 10.147,29 31/01/2022
89 229400 ALEXANDRE CARLOS BOTREL DIRETOR/OFICIAL BELO HORIZONTE - COMARCA; SUPERINTENDENCIA DOS ORGAOS COLEGIADOS 0,00 5.224,18 17.413,92 0,00 0,00 0,00 498,04 7.150,14 30.286,28 2.772,65 4.593,64 0,00 0,00 7.366,29 22.919,99 31/01/2022
90 411900 ALEXANDRE CARVALHO SANTOS RIBEIRO ANALISTA DO MP OLIVEIRA - COMARCA; OLIVEIRA-PJ-02PJ 14.324,23 2.864,85 0,00 0,00 0,00 0,00 504,21 7.986,90 25.680,19 2.543,47 3.158,18 0,00 0,00 5.701,65 19.978,54 31/01/2022
91 641600 ALEXANDRE DA SILVA ASSUNCAO OFICIAL DO MP BELO HORIZONTE - COMARCA; SERVICO MEDICO-DEPTO PERIC MEDICA SAUDE OCUP 4.974,42 497,44 0,00 0,00 0,00 0,00 0,00 1.717,00 7.188,86 681,38 448,02 0,00 0,00 1.129,40 6.059,46 31/01/2022
92 201200 ALEXANDRE DE ALENCAR CORDEIRO OFICIAL DO MP ÁGUAS FORMOSAS - COMARCA; AGUAS FORMOSAS-PJ-UNPJ 6.123,79 3.061,90 0,00 0,00 0,00 0,00 0,00 1.717,00 10.902,69 1.262,92 1.309,40 0,00 0,00 2.572,32 8.330,37 31/01/2022
93 288200 ALEXANDRE DE VASCONCELOS COSTA KER ANALISTA DO MP BELO HORIZONTE - COMARCA; BH-03PJ EMPRESARIAL-SECRETARIA 17.413,92 5.224,18 0,00 0,00 0,00 0,00 498,04 7.150,14 30.286,28 3.415,31 4.364,77 0,00 0,00 7.780,08 22.506,20 31/01/2022
94 445000 ALEXANDRE DIOGENES OLIVEIRA ANALISTA DO MP SALINAS - COMARCA; SALINAS-PJ-02PJ 10.736,08 2.147,22 0,00 0,00 0,00 0,00 519,63 8.155,04 21.557,97 1.854,54 2.163,55 0,00 0,00 4.018,09 17.539,88 31/01/2022
95 463400 ALEXANDRE LEAL WINKELSTROTER ANALISTA DO MP TEÓFILO OTONI - COMARCA; TEOFILO OTONI-PJ-04PJ 10.069,62 2.013,92 0,00 0,00 0,00 0,00 443,06 6.550,42 19.077,02 1.726,58 1.978,80 0,00 0,00 3.705,38 15.371,64 31/01/2022
96 615700 ALEXANDRE LUIZ DE CASTRO MACIEL ANALISTA DO MP CONTAGEM - COMARCA; CONTAGEM-PJ-01PJ 9.146,93 914,69 0,00 0,00 0,00 0,00 0,00 1.717,00 11.778,62 1.403,07 1.511,74 0,00 0,00 2.914,81 8.863,81 31/01/2022
97 356900 ALEXANDRE MOISES MENDONCA E ARAUJO OFICIAL DO MP UBERABA - COMARCA; UBERABA-PJ-13PJ 7.663,37 2.299,01 0,00 0,00 0,00 0,00 0,00 1.717,00 11.679,38 1.387,19 1.488,82 0,00 0,00 2.876,01 8.803,37 31/01/2022
98 633300 ALEXANDRE NONATO MARTINS OFICIAL DO MP IGARAPÉ - COMARCA; IGARAPE-PJ-02PJ 4.974,42 497,44 0,00 0,00 0,00 0,00 501,59 7.188,86 13.162,31 681,38 399,07 0,00 0,00 1.080,45 12.081,86 31/01/2022
99 469900 ALEXANDRE PEREIRA GUEDES ANALISTA DO MP CATAGUASES - COMARCA; CATAGUASES-PJ-03PJ 10.069,62 2.013,92 0,00 0,00 0,00 0,00 531,68 7.517,10 20.132,32 1.726,58 1.978,80 0,00 0,00 3.705,38 16.426,94 31/01/2022
100 208700 ALEXANDRE RESENDE FRAGA ANALISTA DO MP BELO HORIZONTE - COMARCA; BH-19PJ SAUDE-SECRETARIA 130PJ 18.820,14 7.528,06 0,00 0,00 0,00 0,00 0,00 1.717,00 28.065,20 4.008,93 5.117,53 0,00 0,00 9.126,46 18.938,74 31/01/2022
101 216401 ALEXANDRE RIBEIRO DE LIMA MAIORINO ANALISTA DO MP UBERABA - COMARCA; UBERABA-PJ-03PJ 17.413,92 6.965,57 0,00 0,00 0,00 0,00 536,35 7.568,08 32.483,92 3.693,93 4.767,03 0,00 0,00 8.460,96 24.022,96 31/01/2022
102 475100 ALEXANDRE TEOTONIO COSTA ANALISTA DO MP ARAGUARI - COMARCA; ARAGUARI-PJ-01PJ 10.069,62 2.013,92 0,00 0,00 0,00 0,00 531,68 7.517,10 20.132,32 1.726,58 1.874,53 0,00 0,00 3.601,11 16.531,21 31/01/2022
103 339000 ALEXANDRE VITOR CARDOSO OFICIAL DO MP BELO HORIZONTE - COMARCA; BH-12PJ JUIZO CRIMINAL-SECRETARIA 6.123,79 1.837,14 0,00 0,00 0,00 0,00 525,42 7.448,87 15.935,22 1.066,96 870,07 0,00 0,00 1.937,03 13.998,19 31/01/2022
104 678900 ALEXIA DUARTE TORRES ASSESSOR PROCURADOR JUSTICA BELO HORIZONTE - COMARCA; GABINETE DE PROCURADOR DE JUSTIÇA - SALA 502 0,00 0,00 7.187,72 0,00 0,00 0,00 0,00 1.717,00 8.904,72 828,38 1.208,91 0,00 0,00 2.037,29 6.867,43 31/01/2022
105 623100 ALEXSANDER BATISTA AGUIAR COORDENADOR/ANALISTA BELO HORIZONTE - COMARCA; DIRETORIA DE SUPORTE E MANUTENCAO 0,00 1.343,52 13.435,16 0,00 4.926,23 0,00 541,88 8.397,86 28.644,65 1.403,07 4.007,23 0,00 0,00 5.410,30 23.234,35 31/01/2022
106 513300 ALFSON MIRANDA BRAGA ANALISTA DO MP BELO HORIZONTE - COMARCA; BH-12PJ JUIZO CRIMINAL-GAB 087PJ 10.069,62 2.013,92 0,00 0,00 0,00 0,00 531,68 7.517,10 20.132,32 1.726,58 1.978,80 0,00 0,00 3.705,38 16.426,94 31/01/2022
107 618400 ALICE MAGALHAES MACEDO DE CARVALHO ANALISTA DO MP IPATINGA - COMARCA; IPATINGA-PJ-10PJ 9.146,93 914,69 0,00 0,00 0,00 0,00 516,50 8.120,90 18.699,02 1.403,07 1.511,74 0,00 0,00 2.914,81 15.784,21 31/01/2022
108 707000 ALICE MARIA RIBEIRO DINIZ ASSESSOR PROMOTOR JUSTICA BELO HORIZONTE - COMARCA; PROC JUST ATUACAO TRIBUNAIS SUPERIORES-GAB004 0,00 0,00 7.187,72 0,00 0,00 0,00 0,00 1.717,00 8.904,72 828,38 1.208,91 0,00 0,00 2.037,29 6.867,43 31/01/2022
109 471000 ALICE TITONELI MOREIRA ANALISTA DO MP MIRADOURO - COMARCA; MIRADOURO-PJ-UNPJ 10.069,62 2.013,92 0,00 0,00 0,00 0,00 0,00 2.486,39 14.569,93 1.726,58 1.926,67 0,00 0,00 3.653,25 10.916,68 31/01/2022
110 622400 ALINE BALBINO PORTUGAL LOPES ANALISTA DO MP TRÊS PONTAS - COMARCA; TRES PONTAS-PJ-03PJ 9.146,93 914,69 0,00 0,00 0,00 0,00 516,50 8.120,90 18.699,02 1.403,07 1.511,74 0,00 0,00 2.914,81 15.784,21 31/01/2022
111 373000 ALINE BOTELHO RESENDE OFICIAL DO MP JUIZ DE FORA - COMARCA; JUIZ DE FORA-PJ-22PJ 9.444,70 1.888,94 0,00 0,00 0,00 0,00 0,00 1.717,00 13.050,64 1.606,60 1.805,58 0,00 0,00 3.412,18 9.638,46 31/01/2022
112 699800 ALINE CRISTINA DE OLIVEIRA AMARAL BARBOSA ASSESSOR PROCURADOR JUSTICA BELO HORIZONTE - COMARCA; GABINETE DE PROCURADOR DE JUSTIÇA - SALA 904 0,00 0,00 7.187,72 0,00 0,00 0,00 0,00 1.717,00 8.904,72 828,38 1.104,63 0,00 0,00 1.933,01 6.971,71 31/01/2022
113 407700 ALINE CRISTINA RODRIGUES PEREIRA COORDENADOR/ANALISTA BELO HORIZONTE - COMARCA; DIRETORIA DE PROJETOS DE EDIFICACOES 0,00 2.687,03 13.435,16 0,00 0,00 0,00 532,03 7.520,99 24.175,21 1.726,58 3.089,43 0,00 0,00 4.816,01 19.359,20 31/01/2022
114 193100 ALINE CRISTINA SENA OLIVEIRA OFICIAL DO MP UBERLÂNDIA - COMARCA; UBERLANDIA-PJ-03PJ 15.272,02 6.108,81 0,00 0,00 0,00 0,00 0,00 2.486,39 23.867,22 3.214,15 4.074,34 0,00 0,00 7.288,49 16.578,73 31/01/2022
115 554200 ALINE CRISTINA SILVA SOUZA OFICIAL DO MP TIROS - COMARCA; TIROS-PJ-UNPJ 6.123,79 612,38 0,00 0,00 2.245,39 0,00 0,00 1.717,00 10.698,56 872,76 1.360,56 0,00 0,00 2.233,32 8.465,24 31/01/2022
116 505500 ALINE DA CUNHA MARREIROS OLIVEIRA ANALISTA DO MP EUGENÓPOLIS - COMARCA; EUGENOPOLIS-PJ-UNPJ 10.069,62 2.013,92 0,00 0,00 0,00 0,00 0,00 3.255,78 15.339,32 1.726,58 1.926,67 0,00 0,00 3.653,25 11.686,07 31/01/2022
117 433500 ALINE DE MELO QUEIROZ ASSESSOR/OFICIAL BELO HORIZONTE - COMARCA; ASSESSORIA TECNICA DO PROCON-MG 0,00 2.079,50 10.397,52 -90,50 0,00 0,00 0,00 2.486,39 14.872,91 1.494,03 1.957,76 0,00 702,55 4.154,34 10.718,57 31/01/2022
118 691100 ALINE DE MELO SOUZA ASSESSOR PROCURADOR JUSTICA BELO HORIZONTE - COMARCA; GABINETE DE PROCURADOR DE JUSTIÇA - SALA 401 0,00 0,00 7.187,72 0,00 0,00 0,00 0,00 1.717,00 8.904,72 828,38 1.208,91 0,00 0,00 2.037,29 6.867,43 31/01/2022
119 542700 ALINE DE SOUSA ALBINO ANALISTA DO MP CONTAGEM - COMARCA; CONTAGEM-PJ-09PJ 9.444,70 944,47 0,00 0,00 0,00 0,00 533,31 7.534,94 18.457,42 1.455,48 1.587,40 0,00 0,00 3.042,88 15.414,54 31/01/2022
120 330000 ALINE DIORIO MAYRINK OFICIAL DO MP BELO HORIZONTE - COMARCA; BH-15PJ M AMB PAT HIST CULT-GAB 115PJ 7.912,85 1.582,57 0,00 0,00 0,00 0,00 522,25 7.414,25 17.431,92 1.312,48 1.380,95 0,00 0,00 2.693,43 14.738,49 31/01/2022
121 499000 ALINE FERREIRA LOPES ANALISTA DO MP TEÓFILO OTONI - COMARCA; TEOFILO OTONI-PJ-09PJ 10.069,62 2.013,92 0,00 0,00 0,00 0,00 0,00 1.717,00 13.800,54 1.726,58 1.978,80 0,00 0,00 3.705,38 10.095,16 31/01/2022
122 405300 ALINE LAIA CARDOZO DIRETOR/ANALISTA BELO HORIZONTE - COMARCA; SUPERINTENDENCIA LOGISTICA SERVICOS 12.167,40 2.433,48 3.482,78 518,62 7.188,81 0,00 8.715,90 8.331,56 42.838,55 2.129,35 6.098,53 0,00 1.176,48 9.404,36 33.434,19 31/01/2022
123 278200 ALINE MARCIA FARIA BARBOSA FERNANDES OFICIAL DO MP BARBACENA - COMARCA; BARBACENA-PJ-SECRETARIA 7.663,37 2.299,01 0,00 0,00 0,00 0,00 547,93 7.694,43 18.204,74 1.387,19 1.332,40 0,00 0,00 2.719,59 15.485,15 31/01/2022
124 389000 ALINE NERI NOBRE ANALISTA DO MP MONTES CLAROS - COMARCA; COORD REG PJ DEF EDUC DIR CRIANCA ADOL NORTE 14.790,66 4.437,20 0,00 0,00 6.409,29 0,00 493,52 7.100,80 33.231,47 2.869,67 5.391,70 0,00 0,00 8.261,37 24.970,10 31/01/2022
125 294600 ALINE PATRICIA SILVA VIEIRA OFICIAL DO MP UBERLÂNDIA - COMARCA; UBERLANDIA-PJ-03PJ 11.085,56 3.325,67 0,00 0,00 0,00 0,00 1.445,27 1.717,00 17.573,50 2.099,01 2.809,68 0,00 0,00 4.908,69 12.664,81 31/01/2022
126 420000 ALINE RODRIGUES CAMOROPIN ANALISTA DO MP SABARÁ - COMARCA; SABARA-PJ-02PJ 14.324,23 2.864,85 0,00 0,00 5.729,69 0,00 504,21 7.217,51 30.640,49 2.543,47 4.733,85 0,00 0,00 7.277,32 23.363,17 31/01/2022
127 699600 ALINE SEPULVEDA ROSA PIRES ASSESSOR PROCURADOR JUSTICA BELO HORIZONTE - COMARCA; GABINETE DE PROCURADOR DE JUSTIÇA - SALA 905 0,00 0,00 7.187,72 0,00 0,00 0,00 0,00 1.717,00 8.904,72 828,38 1.208,91 0,00 0,00 2.037,29 6.867,43 31/01/2022
128 408300 ALINE SILVA ARAUJO DE PAULA ANALISTA DO MP SÃO SEBASTIÃO DO PARAÍSO - COMARCA; SAO SEBASTIAO DO PARAISO-PJ-02PJ 14.324,23 2.864,85 0,00 0,00 0,00 0,00 504,21 7.986,90 25.680,19 927,17 3.505,43 0,00 0,00 4.432,60 21.247,59 31/01/2022
129 425400 ALINE TRINDADE DE FREITAS CAMPOS OFICIAL DO MP BELO HORIZONTE - COMARCA; BH-14PJ DEFESA CONSUMIDOR-SECRETARIA 8.858,43 1.771,69 0,00 0,00 0,00 0,00 0,00 1.717,00 12.347,12 1.494,03 1.643,06 0,00 0,00 3.137,09 9.210,03 31/01/2022
130 517200 ALISSOM PEREIRA DA SILVA ANALISTA DO MP BORDA DA MATA - COMARCA; BORDA DA MATA-PJ-UNPJ 10.069,62 2.013,92 0,00 845,84 4.027,85 0,00 1.538,64 8.286,49 26.782,36 1.887,69 3.319,07 0,00 0,00 5.206,76 21.575,60 31/01/2022
131 442400 ALISSON LABRE ANALISTA DO MP VARGINHA - COMARCA; VARGINHA-PJ-03PJ 10.069,62 2.013,92 0,00 0,00 0,00 0,00 531,68 7.517,10 20.132,32 927,17 2.198,64 0,00 0,00 3.125,81 17.006,51 31/01/2022
132 643800 ALLAN PAUL FONSECA DE CASTRO OFICIAL DO MP CONTAGEM - COMARCA; CONTAGEM-PJ-SECRETARIA 5.217,34 521,73 0,00 0,00 0,00 0,00 0,00 2.486,39 8.225,46 721,46 510,48 0,00 0,00 1.231,94 6.993,52 31/01/2022
133 612900 ALLAN VINICIUS VIEIRA ARAUJO COORDENADOR/OFICIAL BELO HORIZONTE - COMARCA; DIRETORIA DE GESTAO DOCUMENTAL 0,00 1.343,52 13.435,16 0,00 0,00 0,00 541,88 7.628,47 22.949,03 839,85 2.963,82 0,00 0,00 3.803,67 19.145,36 31/01/2022
134 349000 ALLEC RODRIGUES VIEIRA OFICIAL DO MP BELO HORIZONTE - COMARCA; EXTINTA-COORD EST DEF DIR FAM PES DEFIC IDOSO 10.069,62 3.020,89 0,00 0,00 0,00 0,00 527,98 7.476,82 21.095,31 1.887,70 2.211,41 0,00 0,00 4.099,11 16.996,20 31/01/2022
135 297300 ALLYSON SALIBA MONTEIRO LAIZO ANALISTA DO MP CONSELHEIRO LAFAIETE - COMARCA; CONSELHEIRO LAFAIETE-PJ-03PJ 18.820,14 5.646,04 0,00 0,00 0,00 0,00 538,26 9.127,66 34.132,10 3.707,80 4.839,19 0,00 0,00 8.546,99 25.585,11 31/01/2022
136 303700 ALMIR LOPES LOURES ANALISTA DO MP BELO HORIZONTE - COMARCA; CENTRAL DE APOIO TECN-SETOR DE MEIO AMBIENTE 18.820,14 5.646,04 0,00 0,00 0,00 0,00 0,00 1.717,00 26.183,18 3.707,80 4.839,19 0,00 0,00 8.546,99 17.636,19 31/01/2022
137 696600 ALOIZIO MARTINS JALES JUNIOR ASSESSOR PROMOTOR JUSTICA CAMPESTRE - COMARCA; CAMPESTRE-PJ-SECRETARIA 0,00 0,00 7.187,72 0,00 0,00 0,00 527,10 7.467,18 15.182,00 741,83 1.232,71 0,00 0,00 1.974,54 13.207,46 31/01/2022
138 515900 ALTAIR NEVES JUNIOR OFICIAL DO MP BELO HORIZONTE - COMARCA; BH-01PJ FAZENDA PUBLICA-SECRETARIA 7.663,37 1.532,67 0,00 0,00 0,00 0,00 539,50 7.602,47 17.338,01 1.264,58 1.311,79 0,00 0,00 2.576,37 14.761,64 31/01/2022
139 233300 ALVARINDO BATISTA ANALISTA DO MP BELO HORIZONTE - COMARCA; NUCLEO APOIO TECNICO ESP COMUNICACAO 18.820,14 5.646,04 0,00 0,00 0,00 0,00 0,00 2.486,39 26.952,57 3.707,80 4.787,06 0,00 0,00 8.494,86 18.457,71 31/01/2022
140 274100 ALYSSON CARVALHO VIDAL DE LACERDA OFICIAL DO MP MANHUAÇU - COMARCA; MANHUACU-PJ-01PJ 10.069,62 3.020,89 0,00 0,00 0,00 0,00 527,98 7.476,82 21.095,31 1.887,70 2.211,41 0,00 0,00 4.099,11 16.996,20 31/01/2022
141 621000 AMANDA BASTOS ALVES ANALISTA DO MP BELO HORIZONTE - COMARCA; BH-07PJ 02 TRIBUNAL DO JURI-GAB 066PJ 9.146,93 914,69 0,00 0,00 0,00 0,00 0,00 1.717,00 11.778,62 761,69 1.626,77 0,00 0,00 2.388,46 9.390,16 31/01/2022
142 521700 AMANDA CRISTINA AGUIAR MACHADO OFICIAL DO MP CONGONHAS - COMARCA; CONGONHAS-PJ-01PJ 6.123,79 612,38 0,00 0,00 0,00 0,00 370,49 5.758,70 12.865,36 872,76 690,94 0,00 0,00 1.563,70 11.301,66 31/01/2022
143 713900 AMANDA DE ARAUJO CARVALHO ASSESSOR PROMOTOR JUSTICA ARAÇUAÍ - COMARCA; ARACUAI-PJ-01PJ 0,00 0,00 7.187,72 0,00 0,00 0,00 0,00 1.717,00 8.904,72 828,38 1.208,91 0,00 0,00 2.037,29 6.867,43 31/01/2022
144 613400 AMANDA DE ASSIS IUNES SANTOS ANALISTA DO MP CONGONHAS - COMARCA; CONGONHAS-PJ-01PJ 9.146,93 914,69 0,00 0,00 0,00 0,00 516,50 7.351,51 17.929,63 1.403,07 1.511,74 0,00 0,00 2.914,81 15.014,82 31/01/2022
145 695900 AMANDA DE OLIVEIRA ASSESSOR PROCURADOR JUSTICA BELO HORIZONTE - COMARCA; PROC JUST ATUACAO TRIBUNAIS SUPERIORES-GAB004 0,00 0,00 7.187,72 0,00 0,00 0,00 0,00 1.717,00 8.904,72 828,38 1.208,91 0,00 0,00 2.037,29 6.867,43 31/01/2022
146 520800 AMANDA DE SOUZA MACHADO ANALISTA DO MP BAEPENDI - COMARCA; BAEPENDI-PJ-UNPJ 10.069,62 1.006,96 0,00 0,00 0,00 0,00 527,98 7.476,82 19.081,38 1.565,47 1.641,92 0,00 0,00 3.207,39 15.873,99 31/01/2022
147 663900 AMANDA DENISE GONCALVES DA SILVA ASSESSOR BELO HORIZONTE - COMARCA; DIRET DE FORMACAO, APERFEIC. E POS-GRADUACAO 0,00 0,00 3.076,28 0,00 0,00 0,00 0,00 1.717,00 4.793,28 434,57 227,80 0,00 0,00 662,37 4.130,91 31/01/2022
148 677000 AMANDA LETICIA MESSIAS PEGO ASSESSOR PROMOTOR JUSTICA CORAÇÃO DE JESUS - COMARCA; CORACAO DE JESUS-PJ-UNPJ 0,00 0,00 7.187,72 0,00 0,00 0,00 0,00 1.717,00 8.904,72 828,38 1.208,91 0,00 0,00 2.037,29 6.867,43 31/01/2022
149 543100 AMANDA VIEIRA FREITAS BRESSANE ANALISTA DO MP VARGINHA - COMARCA; COORD REG DEF ORDEM ECON TRIB VARGINHA 9.444,70 944,47 0,00 0,00 0,00 0,00 0,00 1.717,00 12.106,17 1.455,48 1.587,40 0,00 0,00 3.042,88 9.063,29 31/01/2022
150 434400 AMARILIS ASSIS SIMAO CURCIO ANALISTA DO MP BELO HORIZONTE - COMARCA; NUCLEO DE ACORDOS DE NAO PERSECUCAO PENAL BH 10.069,62 2.013,92 0,00 0,00 0,00 0,00 0,00 1.717,00 13.800,54 1.726,58 1.978,80 0,00 0,00 3.705,38 10.095,16 31/01/2022
151 652000 AMAURI SILVA ALVES ASSESSOR/OFICIAL BELO HORIZONTE - COMARCA; BH-23PJ INFRACIONAL-SEC EXP 0,00 817,05 8.170,49 257,68 0,00 0,00 2.459,50 7.469,03 19.173,75 1.565,88 1.697,43 0,00 0,00 3.263,31 15.910,44 31/01/2022
152 58000 AMELIA GUARIZE DE CASTRO OFICIAL DO MP JUIZ DE FORA - COMARCA; JUIZ DE FORA-PJ-SECRETARIA 6.741,63 6.741,63 0,00 0,00 5.144,60 1.950,54 543,82 7.649,63 28.771,85 1.950,54 4.253,30 0,00 0,00 6.203,84 22.568,01 31/01/2022
153 324301 AMERICA SUELI FERREIRA DA SILVA ANALISTA DO MP MONTE CARMELO - COMARCA; MONTE CARMELO-PJ-02PJ 10.069,62 2.013,92 0,00 0,00 0,00 0,00 0,00 1.717,00 13.800,54 1.726,58 1.926,67 0,00 0,00 3.653,25 10.147,29 31/01/2022
154 273300 AMUJACY DE BRITO ASSIZ OFICIAL DO MP BELO HORIZONTE - COMARCA; BH-12PJ JUIZO CRIMINAL-SECRETARIA 10.069,62 3.020,89 0,00 0,00 4.363,50 0,00 0,00 1.717,00 19.171,01 1.887,70 3.202,83 0,00 0,00 5.090,53 14.080,48 31/01/2022
155 482200 ANA ALICE LOPES ACHTSCHIN ANALISTA DO MP BELO HORIZONTE - COMARCA; PROC JUST ATUACAO TRIBUNAIS SUPERIORES-GAB002 11.085,56 2.217,11 0,00 0,00 0,00 0,00 487,76 7.038,07 20.828,50 1.921,64 2.260,42 0,00 0,00 4.182,06 16.646,44 31/01/2022
156 490400 ANA AMELIA PAULINO GARCIA OFICIAL DO MP CONTAGEM - COMARCA; CONTAGEM-PJ-SECRETARIA 7.912,85 1.582,57 0,00 0,00 0,00 0,00 0,00 2.486,39 11.981,81 1.312,48 1.328,81 0,00 0,00 2.641,29 9.340,52 31/01/2022
157 690400 ANA ANGELICA MOREIRA DA CUNHA ASSESSOR PROMOTOR JUSTICA TIMÓTEO - COMARCA; TIMOTEO-PJ-02PJ 0,00 0,00 7.187,72 0,00 0,00 0,00 527,10 7.467,18 15.182,00 828,38 1.208,91 0,00 0,00 2.037,29 13.144,71 31/01/2022
158 714900 ANA BEATRIZ LOBATO ALVES DE CARVALHO ASSESSOR PROCURADOR JUSTICA BELO HORIZONTE - COMARCA; ASSESS TECNICO-JUR JUNTO AS PROC. DE JUST 0,00 0,00 5.031,40 0,00 0,00 0,00 0,00 1.444,73 6.476,13 670,17 584,55 0,00 0,00 1.254,72 5.221,41 31/01/2022
159 715000 ANA CARLA RODRIGUES DE SOUZA ASSESSOR PROMOTOR JUSTICA TRÊS CORACOES - COMARCA; TRES CORACOES-PJ-01PJ 0,00 0,00 5.031,40 0,00 0,00 0,00 0,00 1.444,73 6.476,13 670,17 584,55 0,00 0,00 1.254,72 5.221,41 31/01/2022
160 279100 ANA CAROLINA ARAUJO PEREIRA ANALISTA DO MP BELO HORIZONTE - COMARCA; DIRETORIA DE PROJETOS DE EDIFICACOES 18.820,14 5.646,04 0,00 0,00 0,00 0,00 0,00 1.717,00 26.183,18 3.707,80 4.787,06 0,00 0,00 8.494,86 17.688,32 31/01/2022
161 653300 ANA CAROLINA CYRNE DINIZ ASSESSOR BELO HORIZONTE - COMARCA; CENTRAL DE APOIO TECNICO-SETOR CONTABIL 0,00 0,00 8.170,49 0,00 0,00 0,00 0,00 1.717,00 9.887,49 828,38 1.479,17 0,00 0,00 2.307,55 7.579,94 31/01/2022
162 359400 ANA CAROLINA DE ABREU FARIA ASSESSOR BELO HORIZONTE - COMARCA; SUPERINTENDÊNCIA DE ENGENHARIA E ARQUITETURA 0,00 0,00 10.397,52 0,00 0,00 0,00 0,00 2.486,39 12.883,91 828,38 2.039,47 0,00 0,00 2.867,85 10.016,06 31/01/2022
163 408500 ANA CAROLINA DE CASTRO CARVALHO ANALISTA DO MP BARBACENA - COMARCA; BARBACENA - SECRETARIA DAS PJS CRIMINAIS 14.324,23 2.864,85 0,00 0,00 0,00 0,00 504,21 7.217,51 24.910,80 2.543,47 3.158,18 0,00 0,00 5.701,65 19.209,15 31/01/2022
164 688000 ANA CAROLINA DE OLIVEIRA PINTO ASSESSOR PROCURADOR JUSTICA BELO HORIZONTE - COMARCA; GABINETE DE PROCURADOR DE JUSTIÇA - SALA 1014 0,00 0,00 7.187,72 0,00 0,00 0,00 0,00 1.717,00 8.904,72 828,38 1.208,91 0,00 0,00 2.037,29 6.867,43 31/01/2022
165 420200 ANA CAROLINA FERNANDES SILVA ANALISTA DO MP BELO HORIZONTE - COMARCA; GABINETE DE PROCURADOR DE JUSTIÇA - SALA 704 13.011,52 2.602,30 0,00 0,00 0,00 0,00 0,00 1.717,00 17.330,82 2.291,42 2.794,30 0,00 0,00 5.085,72 12.245,10 31/01/2022
166 522100 ANA CAROLINA FERNANDINO VIDAL PEREIRA SANTOS OFICIAL DO MP BELO HORIZONTE - COMARCA; SECRETARIA DO PROCON-MG 7.663,37 766,34 0,00 0,00 2.809,90 0,00 0,00 1.717,00 12.956,61 970,85 1.946,59 0,00 0,00 2.917,44 10.039,17 31/01/2022
167 502400 ANA CAROLINA GONCALVES FERNANDES ANALISTA DO MP IPATINGA - COMARCA; IPATINGA-PJ-01PJ 10.069,62 2.013,92 0,00 0,00 0,00 0,00 531,68 9.055,88 21.671,10 742,49 2.146,38 0,00 0,00 2.888,87 18.782,23 31/01/2022
168 529900 ANA CAROLINA GONCALVES PECANHA CHEQUER ANALISTA DO MP MANHUAÇU - COMARCA; MANHUACU-PJ-04PJ 9.444,70 944,47 0,00 0,00 0,00 0,00 0,00 3.255,78 13.644,95 1.455,48 1.587,40 0,00 0,00 3.042,88 10.602,07 31/01/2022
169 711300 ANA CAROLINA MOREIRA GOMES ASSESSOR PROMOTOR JUSTICA BELO HORIZONTE - COMARCA; COORD ESTADUAL DAS PJS DE HAB. E URBANISMO 0,00 0,00 7.187,72 0,00 0,00 0,00 0,00 1.717,00 8.904,72 828,38 1.208,91 0,00 0,00 2.037,29 6.867,43 31/01/2022
170 431900 ANA CAROLINA MOTTA GUATIMOSIM ANALISTA DO MP BELO HORIZONTE - COMARCA; ASSESSORIA JURIDICO-ADMINISTRATIVA 13.011,52 2.602,30 0,00 0,00 0,00 0,00 515,26 8.107,37 24.236,45 2.291,42 2.794,30 0,00 0,00 5.085,72 19.150,73 31/01/2022
171 490600 ANA CAROLINA XAVIER GODOY ANALISTA DO MP BELO HORIZONTE - COMARCA; BH-18PJ DIREITOS HUMANOS-SECRETARIA 10.069,62 2.013,92 0,00 0,00 0,00 0,00 531,68 9.055,88 21.671,10 1.726,58 1.874,53 0,00 0,00 3.601,11 18.069,99 31/01/2022
172 600300 ANA CAROLINE PEREIRA DINIZ ANALISTA DO MP BELO HORIZONTE - COMARCA; PROC JUST ESP ACOES COMP ORIG CRIMINAL-SEC 9.444,70 944,47 0,00 0,00 0,00 0,00 533,31 8.304,33 19.226,81 1.455,48 1.587,40 0,00 0,00 3.042,88 16.183,93 31/01/2022
173 615800 ANA CAROLINE PEREIRA OLIVEIRA OFICIAL DO MP ALFENAS - COMARCA; ALFENAS-PJ-06PJ 5.930,75 593,08 0,00 0,00 0,00 0,00 526,26 7.457,97 14.508,06 839,85 693,74 0,00 0,00 1.533,59 12.974,47 31/01/2022
174 324800 ANA CECILIA MENDES DA SILVA OFICIAL DO MP OURO FINO - COMARCA; OURO FINO-PJ-01PJ 10.069,62 3.020,89 0,00 0,00 0,00 0,00 0,00 1.717,00 14.807,51 1.887,70 2.159,28 0,00 0,00 4.046,98 10.760,53 31/01/2022
175 704100 ANA CLARA MARTINS ALBUQUERQUE ASSESSOR BELO HORIZONTE - COMARCA; CAO-CRIANCAS E ADOLESCENTES-ASS TECNICA 0,00 0,00 3.076,28 0,00 0,00 0,00 0,00 1.717,00 4.793,28 434,57 227,80 0,00 0,00 662,37 4.130,91 31/01/2022
176 698700 ANA CLARA SANTOS ALMEIDA ASSESSOR PROMOTOR JUSTICA SABINÓPOLIS - COMARCA; SABINOPOLIS-PJ-UNPJ 0,00 0,00 7.187,72 0,00 0,00 0,00 0,00 1.717,00 8.904,72 828,38 1.208,91 0,00 0,00 2.037,29 6.867,43 31/01/2022
177 441300 ANA CLAUDIA ALKIMIM MIRANDA BOMTEMPO ANALISTA DO MP MONTES CLAROS - COMARCA; MONTES CLAROS-PJ-11PJ 13.011,52 2.602,30 0,00 0,00 0,00 0,00 0,00 1.717,00 17.330,82 2.291,42 2.690,02 0,00 0,00 4.981,44 12.349,38 31/01/2022
178 642500 ANA CLAUDIA DA COSTA NAVES OFICIAL DO MP MONTE CARMELO - COMARCA; MONTE CARMELO-PJ-02PJ 4.817,57 481,76 0,00 0,00 0,00 0,00 0,00 2.486,39 7.785,72 655,50 408,73 0,00 0,00 1.064,23 6.721,49 31/01/2022
179 604900 ANA CLAUDIA OLIVEIRA DE MIRANDA OFICIAL DO MP PONTE NOVA - COMARCA; PONTE NOVA-PJ-04PJ 5.562,64 556,26 0,00 0,00 0,00 0,00 0,00 1.717,00 7.835,90 778,43 547,13 0,00 0,00 1.325,56 6.510,34 31/01/2022
180 379300 ANA CRISTINA ALVES FLAVIO ANALISTA DO MP SÃO GOTARDO - COMARCA; SAO GOTARDO-PJ-01PJ 14.790,66 2.958,13 0,00 0,00 0,00 0,00 0,00 2.486,39 20.235,18 2.633,02 3.235,34 0,00 0,00 5.868,36 14.366,82 31/01/2022
181 461200 ANA CRISTINA ALVES PASCHOAL ANALISTA DO MP BELO HORIZONTE - COMARCA; BH-07PJ 03 TRIBUNAL DO JURI-GAB 064PJ 10.069,62 2.013,92 0,00 0,00 0,00 0,00 0,00 1.717,00 13.800,54 1.726,58 1.926,67 0,00 0,00 3.653,25 10.147,29 31/01/2022
182 514100 ANA CRISTINA ARAUJO ASSUNCAO ANALISTA DO MP BELO HORIZONTE - COMARCA; ASSESS JUR DO CONS SUPERIOR DO MINISTERIO PUB 10.069,62 2.013,92 0,00 0,00 0,00 0,00 531,68 8.286,49 20.901,71 1.726,58 1.926,67 0,00 0,00 3.653,25 17.248,46 31/01/2022
183 113401 ANA CRISTINA BRAGA ALBUQUERQUE ASSESSOR BELO HORIZONTE - COMARCA; DIRETORIA-GERAL 0,00 0,00 17.413,92 0,00 0,00 0,00 0,00 1.198,00 18.611,92 828,38 4.021,11 0,00 0,00 4.849,49 13.762,43 31/01/2022
184 233800 ANA CRISTINA BRAGA SOARES OFICIAL DO MP CONTAGEM - COMARCA; CONTAGEM-PJ-SECRETARIA 11.819,15 3.545,75 0,00 0,00 5.121,63 0,00 0,00 1.717,00 22.203,53 2.251,60 4.040,97 0,00 0,00 6.292,57 15.910,96 31/01/2022
185 186400 ANA CRISTINA DE AZEVEDO LOPES OFICIAL DO MP UBÁ - COMARCA; UBA-PJ-01PJ 15.272,02 6.108,81 0,00 0,00 0,00 0,00 548,77 7.703,63 29.633,23 3.214,15 4.126,48 0,00 0,00 7.340,63 22.292,60 31/01/2022
186 693000 ANA CRISTINA DE MELO SILVEIRA ASSESSOR PROCURADOR JUSTICA BELO HORIZONTE - COMARCA; COORD DE CONTROLE CONSTITUCIONALIDADE 0,00 0,00 7.187,72 0,00 0,00 0,00 0,00 2.486,39 9.674,11 828,38 1.208,91 0,00 0,00 2.037,29 7.636,82 31/01/2022
187 465100 ANA CRISTINA DE OLIVEIRA GUIMARAES ANALISTA DO MP ITAJUBA - COMARCA; ITAJUBA-PJ-05PJ 10.069,62 2.013,92 0,00 0,00 0,00 0,00 531,68 8.286,49 20.901,71 1.726,58 1.874,53 0,00 0,00 3.601,11 17.300,60 31/01/2022
188 500600 ANA CRISTINA LATADO SUDARIO ANALISTA DO MP UBERLÂNDIA - COMARCA; UBERLANDIA-PJ-09PJ 10.069,62 2.013,92 0,00 0,00 0,00 0,00 531,68 7.517,10 20.132,32 1.726,58 1.978,80 0,00 0,00 3.705,38 16.426,94 31/01/2022
189 331400 ANA CRISTINA RIBEIRO ALVES OFICIAL DO MP BAMBUÍ - COMARCA; BAMBUI-PJ-UNPJ 10.069,62 3.020,89 0,00 0,00 0,00 0,00 527,98 7.476,82 21.095,31 1.887,70 2.159,28 0,00 0,00 4.046,98 17.048,33 31/01/2022
190 249300 ANA ELOINA MARTINS OFICIAL DO MP BETIM - COMARCA; BETIM-PJ-02PJ 13.011,52 5.204,61 0,00 0,00 0,00 0,00 0,00 1.717,00 19.933,13 2.707,79 3.395,43 0,00 0,00 6.103,22 13.829,91 31/01/2022
191 257400 ANA FLAVIA CAMBRAIA ANALISTA DO MP BELO HORIZONTE - COMARCA; BH-19PJ SAUDE-SECRETARIA 150PJ 18.820,14 5.646,04 0,00 0,00 8.155,39 0,00 538,26 7.588,88 40.748,71 3.707,80 7.029,79 0,00 0,00 10.737,59 30.011,12 31/01/2022
192 248201 ANA FLAVIA DE MORAIS SOUZA ANALISTA DO MP DIVINÓPOLIS - COMARCA; DIVINOPOLIS-PJ-01PJ 11.085,56 3.325,67 0,00 0,00 4.803,74 0,00 528,41 8.250,88 27.994,26 2.099,01 3.733,25 0,00 0,00 5.832,26 22.162,00 31/01/2022
193 621100 ANA FLAVIA DINIZ TEODORO OFICIAL DO MP SANTA LUZIA - COMARCA; SANTA LUZIA-PJ-06PJ 5.930,75 593,08 0,00 0,00 0,00 0,00 0,00 1.717,00 8.240,83 839,85 693,74 0,00 0,00 1.533,59 6.707,24 31/01/2022
194 238600 ANA FLAVIA FRANCO OFICIAL DO MP BELO HORIZONTE - COMARCA; DIRETORIA DE PESSOAL ADMINISTRATIVO - DPAD 14.324,23 4.297,27 0,00 0,00 0,00 0,00 546,23 7.675,88 26.843,61 2.772,65 3.489,07 0,00 0,00 6.261,72 20.581,89 31/01/2022
195 690000 ANA FLAVIA LURIAN DE PAIVA ASSESSOR PROCURADOR JUSTICA BELO HORIZONTE - COMARCA; GABINETE DE PROCURADOR DE JUSTIÇA - SALA 609 0,00 0,00 7.187,72 0,00 0,00 0,00 0,00 1.717,00 8.904,72 828,38 1.208,91 0,00 0,00 2.037,29 6.867,43 31/01/2022
196 402900 ANA FLAVIA PORTES DE CARVALHO ANALISTA DO MP BELO HORIZONTE - COMARCA; DIRET DE PLANOS PROJETOS E PROGRAMAS INST 14.790,66 2.958,13 0,00 0,00 5.916,26 0,00 520,63 7.396,61 31.582,29 2.633,02 4.862,31 0,00 0,00 7.495,33 24.086,96 31/01/2022
197 382700 ANA KARENINA SALDANHA GONTIJO ANALISTA DO MP BELO HORIZONTE - COMARCA; ASSESS TECNICO-JUR JUNTO AS PROC. DE JUST 14.324,23 2.864,85 0,00 0,00 0,00 0,00 0,00 2.486,39 19.675,47 2.543,47 3.158,18 0,00 0,00 5.701,65 13.973,82 31/01/2022
198 620500 ANA KARINE DE ANDRADE OLIVEIRA ANALISTA DO MP RIBEIRÃO DAS NEVES - COMARCA; RIBEIRAO NEVES-SEC PJ EXECUCAO PENAL 8.436,53 843,65 0,00 0,00 0,00 0,00 544,44 7.656,32 17.480,94 1.278,04 1.331,23 0,00 0,00 2.609,27 14.871,67 31/01/2022
199 462200 ANA LUCIA ANDRADE TOMICH OTTONI ANALISTA DO MP TEÓFILO OTONI - COMARCA; TEOFILO OTONI-PJ-07PJ 10.069,62 2.013,92 0,00 0,00 0,00 0,00 0,00 1.717,00 13.800,54 1.726,58 1.926,67 0,00 0,00 3.653,25 10.147,29 31/01/2022
200 504100 ANA LUCIA CATAO DE CARVALHO OFICIAL DO MP BELO HORIZONTE - COMARCA; DIR RELACOES INSTITUCIONAIS 7.912,85 1.582,57 0,00 0,00 0,00 0,00 522,25 7.414,25 17.431,92 1.312,48 1.328,81 0,00 0,00 2.641,29 14.790,63 31/01/2022
201 274700 ANA LUCIA DE ALENCAR BRAGATO OFICIAL DO MP UBERABA - COMARCA; UBERABA-PJ-07PJ 10.069,62 3.020,89 0,00 0,00 0,00 0,00 527,98 7.476,82 21.095,31 1.887,70 2.211,41 0,00 0,00 4.099,11 16.996,20 31/01/2022
202 509400 ANA LUCIA DORNELAS MALLOSTO ANALISTA DO MP JUIZ DE FORA - COMARCA; JUIZ DE FORA-PJ-25PJ 10.069,62 2.013,92 0,00 0,00 0,00 0,00 0,00 1.717,00 13.800,54 1.726,58 1.926,67 0,00 0,00 3.653,25 10.147,29 31/01/2022
203 302600 ANA LUCIA LOPES SANTOS OFICIAL DO MP BELO HORIZONTE - COMARCA; DIVISÃO DE FISCALIZAÇÃO DAS RELAÇÕES DE CONSU 10.069,62 3.020,89 0,00 0,00 0,00 0,00 1.445,27 1.717,00 16.252,78 1.887,70 2.556,73 0,00 0,00 4.444,43 11.808,35 31/01/2022
204 702000 ANA LUISA DE OLIVEIRA RIBEIRO ASSESSOR PROCURADOR JUSTICA BELO HORIZONTE - COMARCA; ASSESS TECNICO-JUR JUNTO AS PROC. DE JUST 0,00 0,00 7.187,72 0,00 0,00 0,00 0,00 1.717,00 8.904,72 828,38 1.208,91 0,00 0,00 2.037,29 6.867,43 31/01/2022
205 493400 ANA LUISA NOGUEIRA MOREIRA ANALISTA DO MP BELO HORIZONTE - COMARCA; BH-19PJ SAUDE-SECRETARIA 130PJ 10.069,62 2.013,92 0,00 0,00 0,00 0,00 0,00 1.717,00 13.800,54 1.726,58 1.978,80 0,00 0,00 3.705,38 10.095,16 31/01/2022
206 389300 ANA LUISA REUTER LIMA ASSESSOR/ANALISTA BELO HORIZONTE - COMARCA; DIRETORIA DE SISTEMAS DE INFORMACAO 14.790,66 2.958,13 2.687,03 0,00 0,00 0,00 0,00 1.717,00 22.152,82 2.633,02 4.026,41 0,00 0,00 6.659,43 15.493,39 31/01/2022
207 480600 ANA LUIZA FERNANDES FRAGA E GRECO COORDENADOR/OFICIAL BELO HORIZONTE - COMARCA; OUVIDORIA DO MPMG 0,00 2.363,83 11.819,15 0,00 0,00 0,00 520,04 7.390,19 22.093,21 1.264,58 2.581,16 0,00 0,00 3.845,74 18.247,47 31/01/2022
208 517800 ANA LUIZA MAGALHAES CIRINO PIOTO DE MELO OFICIAL DO MP BELO HORIZONTE - COMARCA; SUPER DE GESTAO DE PESSOAS-LOTACAO TEMPORARIA 5.387,19 538,72 0,00 0,00 1.975,30 0,00 0,00 3.255,78 11.156,99 749,48 1.097,36 0,00 0,00 1.846,84 9.310,15 31/01/2022
209 481400 ANA MARCIA CANDIDA FERREIRA OFICIAL DO MP BRUMADINHO - COMARCA; BRUMADINHO-PJ-02PJ 6.123,79 1.224,76 0,00 0,00 0,00 0,00 538,89 7.595,84 15.483,28 968,98 885,02 0,00 0,00 1.854,00 13.629,28 31/01/2022
210 643100 ANA MARIA LOPES MIRANDA ANALISTA DO MP BELO HORIZONTE - COMARCA; CAO-FUNDACOES 8.170,49 817,05 0,00 0,00 0,00 0,00 0,00 2.486,39 11.473,93 927,17 1.268,85 0,00 0,00 2.196,02 9.277,91 31/01/2022
211 556400 ANA MARIA OLIVEIRA SOUZA OFICIAL DO MP ITAPECERICA - COMARCA; ITAPECERICA-PJ-UNPJ 6.123,79 612,38 0,00 0,00 0,00 0,00 321,09 5.219,81 12.277,07 872,76 743,08 0,00 0,00 1.615,84 10.661,23 31/01/2022
212 409600 ANA OLIVIA FARIA ROSENBURG ANALISTA DO MP BELO HORIZONTE - COMARCA; DIRETORIA DO COLEGIO E DA CAMARA DE PJ 14.324,23 4.297,27 0,00 0,00 0,00 0,00 546,23 7.675,88 26.843,61 2.772,65 3.489,07 0,00 0,00 6.261,72 20.581,89 31/01/2022
213 461500 ANA PAULA ALVES CARVALHO ANALISTA DO MP UBERLÂNDIA - COMARCA; UBERLANDIA-PJ-25PJ 10.069,62 2.013,92 0,00 0,00 0,00 0,00 0,00 1.717,00 13.800,54 1.726,58 1.874,53 0,00 0,00 3.601,11 10.199,43 31/01/2022
214 523200 ANA PAULA ALVES DA SILVA OFICIAL DO MP GOVERNADOR VALADARES - COMARCA; GOVERNADOR VALADARES-PJ-10PJ 7.663,37 766,34 0,00 0,00 0,00 0,00 0,00 4.793,47 13.223,18 859,88 1.100,11 0,00 0,00 1.959,99 11.263,19 31/01/2022
215 381200 ANA PAULA BARROS PEREIRA RIGHI ANALISTA DO MP BELO HORIZONTE - COMARCA; PROC JUST ATUACAO TRIBUNAIS SUPERIORES-GAB003 14.790,66 2.958,13 0,00 0,00 5.916,26 0,00 0,00 2.486,39 26.151,44 1.078,30 5.111,52 0,00 0,00 6.189,82 19.961,62 31/01/2022
216 696400 ANA PAULA CARVALHO SILVA ASSESSOR PROMOTOR JUSTICA PERDÕES - COMARCA; PERDOES-PJ-UNPJ 0,00 0,00 7.187,72 0,00 0,00 0,00 0,00 2.486,39 9.674,11 828,38 1.156,77 0,00 0,00 1.985,15 7.688,96 31/01/2022
217 700900 ANA PAULA CRAVO SALOME ASSESSOR BELO HORIZONTE - COMARCA; PROCURADOR-GERAL DE JUSTIÇA 0,00 0,00 3.076,28 0,00 0,00 0,00 0,00 1.717,00 4.793,28 434,57 227,80 0,00 0,00 662,37 4.130,91 31/01/2022
218 227200 ANA PAULA DA SILVA CAMPOLINA ANALISTA DO MP BELO HORIZONTE - COMARCA; DIRETORIA DE ORCAMENTO-DIOR/SPC 18.820,14 9.410,07 0,00 0,00 0,00 0,00 517,55 7.363,04 36.110,80 4.310,05 5.708,68 0,00 0,00 10.018,73 26.092,07 31/01/2022
219 278500 ANA PAULA DIAS CAPANEMA OFICIAL DO MP BELO HORIZONTE - COMARCA; DIRETORIA DE SEGURANCA 10.069,62 3.020,89 0,00 0,00 0,00 0,00 527,98 7.476,82 21.095,31 1.887,70 2.211,41 0,00 0,00 4.099,11 16.996,20 31/01/2022
220 327300 ANA PAULA GARCIA MAXIMO OFICIAL DO MP UNAÍ - COMARCA; UNAI-PJ-01PJ 12.204,02 4.881,61 0,00 0,00 0,00 0,00 501,18 7.184,40 24.771,21 2.526,91 2.977,87 0,00 0,00 5.504,78 19.266,43 31/01/2022
221 270000 ANA PAULA GOULART CRUZ DE MAGALHAES ANALISTA DO MP BELO HORIZONTE - COMARCA; ASSESSORIA ESPECIAL DO PGJ 18.820,14 5.646,04 0,00 0,00 0,00 0,00 538,26 7.588,88 32.593,32 3.707,80 4.839,19 0,00 0,00 8.546,99 24.046,33 31/01/2022
222 262100 ANA PAULA KOMATSUZAKI ABIJAUDI ANALISTA DO MP BELO HORIZONTE - COMARCA; BH-17PJ PATRIMONIO PUBLICO-SECRETARIA 18.820,14 7.528,06 0,00 0,00 0,00 0,00 0,00 1.717,00 28.065,20 4.008,93 5.169,67 0,00 0,00 9.178,60 18.886,60 31/01/2022
223 278900 ANA PAULA MOREIRA GURGEL COORDENADOR/ANALISTA BELO HORIZONTE - COMARCA; ASSESSORIA JURIDICO-ADMINISTRATIVA 18.820,14 7.528,06 3.482,78 0,00 0,00 0,00 546,90 7.683,20 38.061,08 4.008,93 6.231,70 0,00 0,00 10.240,63 27.820,45 31/01/2022
224 425701 ANA PAULA ROCHA ANALISTA DO MP BELO HORIZONTE - COMARCA; ASSESSORIA DE COMUNICACAO INTEGRADA 9.146,93 914,69 0,00 0,00 3.353,87 0,00 0,00 2.486,39 15.901,88 1.403,07 2.434,05 0,00 0,00 3.837,12 12.064,76 31/01/2022
225 395601 ANA PAULA SALGE OLIVEIRA ANALISTA DO MP UBERABA - COMARCA; UBERABA-PJ-15PJ 10.069,62 3.020,89 0,00 0,00 0,00 0,00 527,98 7.476,82 21.095,31 1.887,70 2.211,41 0,00 0,00 4.099,11 16.996,20 31/01/2022
226 473200 ANA PAULA SCOTTON BRASIL ANALISTA DO MP JUIZ DE FORA - COMARCA; JUIZ DE FORA-PJ-07PJ 10.069,62 2.013,92 0,00 0,00 0,00 0,00 531,68 8.286,49 20.901,71 1.726,58 1.978,80 0,00 0,00 3.705,38 17.196,33 31/01/2022
227 633600 ANA PAULA SILVA FERNANDES OFICIAL DO MP CATAGUASES - COMARCA; CATAGUASES-PJ-04PJ 5.387,19 538,72 0,00 0,00 0,00 0,00 0,00 1.741,95 7.667,86 749,48 554,16 0,00 0,00 1.303,64 6.364,22 31/01/2022
228 470900 ANA PAULA VALADARES ANALISTA DO MP PITANGUI - COMARCA; PITANGUI-PJ-01PJ 10.069,62 2.013,92 0,00 0,00 4.027,85 0,00 0,00 1.717,00 17.828,39 1.726,58 2.982,19 0,00 0,00 4.708,77 13.119,62 31/01/2022
229 447000 ANA PAULA VALENTIM DE ARAUJO ANALISTA DO MP BELO HORIZONTE - COMARCA; PROC JUST ESP ACOES COMP ORIG CRIMINAL-ASSESS 10.736,08 2.147,22 0,00 0,00 0,00 0,00 0,00 1.717,00 14.600,30 1.854,54 2.163,55 0,00 0,00 4.018,09 10.582,21 31/01/2022
230 604200 ANA PAULA VIANA E SILVA OFICIAL DO MP BELO HORIZONTE - COMARCA; BH-17PJ PATRIMONIO PUBLICO-SECRETARIA 6.123,79 612,38 0,00 0,00 0,00 0,00 0,00 1.717,00 8.453,17 872,76 743,08 0,00 0,00 1.615,84 6.837,33 31/01/2022
231 505400 ANA PAULA VIEIRA SOUTO OFICIAL DO MP ALMENARA - COMARCA; ALMENARA-PJ-01PJ 6.123,79 1.837,14 0,00 0,00 2.653,64 0,00 0,00 1.717,00 12.331,57 1.066,96 1.704,09 0,00 0,00 2.771,05 9.560,52 31/01/2022
232 280200 ANA RACHEL BRANDAO LADEIRA ROLAND DIRETOR/ANALISTA BELO HORIZONTE - COMARCA; SUPERINTENDENCIA GESTÃO DE PESSOAS 18.103,37 5.431,01 3.482,78 0,00 0,00 0,00 0,00 1.717,00 28.734,16 3.558,71 5.581,71 0,00 0,00 9.140,42 19.593,74 31/01/2022
233 691000 ANA RACHEL DOS REIS E SENA COSTA ASSESSOR PROMOTOR JUSTICA BELO HORIZONTE - COMARCA; GABINETE DE PROCURADOR DE JUSTIÇA - SALA 601 0,00 0,00 7.187,72 0,00 0,00 0,00 0,00 1.717,00 8.904,72 828,38 1.208,91 0,00 0,00 2.037,29 6.867,43 31/01/2022
234 601200 ANA REGINA RIBEIRO COORDENADOR/ANALISTA BELO HORIZONTE - COMARCA; DIV FISCAL ADM CONT TERCEIRIZACAO 0,00 1.181,92 11.819,15 0,00 0,00 0,00 524,38 7.437,47 20.962,92 765,99 2.427,18 0,00 0,00 3.193,17 17.769,75 31/01/2022
235 384700 ANA RODRIGUES PEREIRA MARRA ANALISTA DO MP COROMANDEL - COMARCA; COROMANDEL-PJ-01PJ 10.069,62 2.013,92 0,00 0,00 0,00 0,00 531,68 8.286,49 20.901,71 1.726,58 1.874,53 0,00 0,00 3.601,11 17.300,60 31/01/2022
236 232700 ANA SILVIA SEMBLANO NAKAMURA ASSESSOR/OFICIAL BELO HORIZONTE - COMARCA; CENT DE APOIO TEC-SETOR DEF,IDOSO E INFANC 0,00 3.119,26 10.397,52 0,00 0,00 0,00 545,18 7.664,38 21.726,34 1.887,70 2.328,64 0,00 0,00 4.216,34 17.510,00 31/01/2022
237 602100 ANACLETO FRANCISCO MARCIER PIMENTA OFICIAL DO MP SÃO JOÃO DEL REI - COMARCA; SAO JOAO DEL REI-PJ-03PJ 5.562,64 556,26 0,00 0,00 2.039,63 0,00 0,00 1.717,00 9.875,53 778,43 899,48 0,00 0,00 1.677,91 8.197,62 31/01/2022
238 310400 ANADEJE DO CARMO DINIZ ARAUJO OFICIAL DO MP BELO HORIZONTE - COMARCA; DIRETORIA DE PESSOAL ADMINISTRATIVO - DPAD 10.069,62 3.020,89 0,00 0,00 4.363,50 0,00 0,00 1.717,00 19.171,01 1.887,70 3.411,38 0,00 0,00 5.299,08 13.871,93 31/01/2022
239 337000 ANAILDES MARIA MENDES OFICIAL DO MP JANAÚBA - COMARCA; JANAUBA-PJ-02PJ 10.069,62 3.020,89 0,00 0,00 0,00 0,00 527,98 8.246,21 21.864,70 1.887,70 2.211,41 0,00 0,00 4.099,11 17.765,59 31/01/2022
240 192900 ANATALIA CERQUEIRA LIMA PERES OFICIAL DO MP UBERABA - COMARCA; COORD REG SAUDE MACROR SANIT TRIANGULO SUL 11.446,46 4.578,58 0,00 0,00 0,00 0,00 0,00 1.717,00 17.742,04 2.357,22 2.889,29 0,00 0,00 5.246,51 12.495,53 31/01/2022
241 377400 ANDEIRSON DA MATTA BARBOSA ANALISTA DO MP POUSO ALEGRE - COMARCA; POUSO ALEGRE-PJ-01PJ 10.069,62 2.013,92 0,00 0,00 0,00 0,00 531,68 8.286,49 20.901,71 1.726,58 1.978,80 0,00 0,00 3.705,38 17.196,33 31/01/2022
242 317400 ANDERSON DA SILVA BICALHO OFICIAL DO MP CONTAGEM - COMARCA; CONTAGEM-PJ-SECRETARIA 9.444,70 2.833,41 0,00 0,00 0,00 0,00 0,00 1.717,00 13.995,11 1.757,71 1.867,34 0,00 0,00 3.625,05 10.370,06 31/01/2022
243 506900 ANDERSON DE SOUZA DAMIANI ANALISTA DO MP BELO HORIZONTE - COMARCA; DIRETORIA DE PAGAMENTO DE PESSOAL-DPAG 10.069,62 3.020,89 0,00 0,00 0,00 0,00 0,00 1.717,00 14.807,51 1.887,70 2.107,14 0,00 0,00 3.994,84 10.812,67 31/01/2022
244 410000 ANDERSON DE SOUZA NETO ASSESSOR BELO HORIZONTE - COMARCA; DIRETORIA DE ADMINISTRACAO FINANCEIRA 0,00 0,00 5.136,32 0,00 1.712,11 0,00 470,83 6.853,32 14.172,58 483,28 1.210,50 0,00 0,00 1.693,78 12.478,80 31/01/2022
245 181900 ANDERSON FLAVIO DE OLIVEIRA OFICIAL DO MP ITAGUARA - COMARCA; ITAGUARA-PJ-SECRETARIA 14.324,23 5.729,69 0,00 0,00 0,00 0,00 0,00 1.717,00 21.770,92 3.001,84 3.819,96 0,00 0,00 6.821,80 14.949,12 31/01/2022
246 333200 ANDERSON JOSE DE FREITAS OFICIAL DO MP IPATINGA - COMARCA; IPATINGA-PJ-04PJ 10.069,62 3.020,89 0,00 0,00 0,00 0,00 1.978,25 8.300,70 23.369,46 1.887,70 2.452,45 0,00 0,00 4.340,15 19.029,31 31/01/2022
247 699400 ANDERSON LUIZ CABRAL ASSESSOR PROMOTOR JUSTICA ALÉM PARAÍBA - COMARCA; ALEM PARAIBA-PJ-03PJ 0,00 0,00 7.187,72 0,00 0,00 0,00 0,00 1.717,00 8.904,72 828,38 1.208,91 0,00 0,00 2.037,29 6.867,43 31/01/2022
248 462100 ANDERSON LUIZ GUIMARAES CARDOSO ANALISTA DO MP BARBACENA - COMARCA; BARBACENA-PJ-02PJ 11.085,56 2.217,11 0,00 0,00 0,00 0,00 0,00 1.717,00 15.019,67 1.921,64 2.260,42 0,00 0,00 4.182,06 10.837,61 31/01/2022
249 429700 ANDERSON MELO DE SOUZA ASSESSOR/OFICIAL BELO HORIZONTE - COMARCA; DIRET DE ESTAGIOS E CONVENIOS ACADEMICOS 0,00 2.079,50 10.397,52 0,00 0,00 0,00 548,99 7.705,97 20.731,98 968,98 2.295,35 0,00 0,00 3.264,33 17.467,65 31/01/2022
250 545600 ANDERSON MENDES PROCOPIO FERREIRA ANALISTA DO MP BELO HORIZONTE - COMARCA; BH-12PJ JUIZO CRIMINAL-GAB 089PJ 9.444,70 944,47 0,00 0,00 3.463,06 0,00 533,31 7.534,94 21.920,48 1.455,48 2.539,75 0,00 0,00 3.995,23 17.925,25 31/01/2022
251 519900 ANDERSON MOREIRA DOEHLER ANALISTA DO MP TEÓFILO OTONI - COMARCA; COORD REG SAUDE MACRORREGIAO SANIT NORDESTE 10.069,62 3.020,89 0,00 0,00 0,00 0,00 0,00 1.717,00 14.807,51 1.887,70 2.211,41 0,00 0,00 4.099,11 10.708,40 31/01/2022
252 103000 ANDERSON TADEU DE DEUS ASSESSOR BELO HORIZONTE - COMARCA; BH-26 CRIME CONT CRIAN ADOL-SECRETARIA 0,00 3.595,42 5.136,32 1.050,61 0,00 0,00 1.050,61 1.717,00 12.549,96 828,38 1.922,43 0,00 0,00 2.750,81 9.799,15 31/01/2022
253 309200 ANDITYAS SOARES DE MOURA COSTA MATOS ANALISTA DO MP BELO HORIZONTE - COMARCA; GABINETE DE PROCURADOR DE JUSTIÇA - SALA 909 15.272,02 4.581,61 0,00 0,00 0,00 0,00 0,00 1.717,00 21.570,63 2.969,79 3.773,69 0,00 0,00 6.743,48 14.827,15 31/01/2022
254 519200 ANDRE BORJA LANA ANALISTA DO MP BELO HORIZONTE - COMARCA; DIR CONTEUDO JORNALISTICO 10.069,62 2.013,92 0,00 845,84 0,00 0,00 1.639,60 7.517,10 22.086,08 1.887,69 2.239,18 0,00 0,00 4.126,87 17.959,21 31/01/2022
255 637200 ANDRE FERNANDES DA CUNHA OFICIAL DO MP MORADA NOVA DE MINAS - COMARCA; MORADA NOVA DE MINAS-PJ-UNPJ 5.387,19 538,72 0,00 0,00 0,00 0,00 0,00 1.717,00 7.642,91 749,48 554,16 0,00 0,00 1.303,64 6.339,27 31/01/2022
256 651500 ANDRE GONCALVES MARANHAO OFICIAL DO MP JACINTO - COMARCA; JACINTO-PJ-SECRETARIA 4.817,57 481,76 0,00 192,70 0,00 0,00 192,70 1.717,00 7.401,73 684,40 452,74 0,00 0,00 1.137,14 6.264,59 31/01/2022
257 521900 ANDRE LUIS GOMES SILVA ANALISTA DO MP FORMIGA - COMARCA; FORMIGA-PJ-02PJ 10.069,62 1.006,96 0,00 0,00 0,00 0,00 527,98 9.015,60 20.620,16 1.565,47 1.264,12 0,00 0,00 2.829,59 17.790,57 31/01/2022
258 304300 ANDRE LUIZ AVELAR ANALISTA DO MP BELO HORIZONTE - COMARCA; DIRETORIA DE REDES E BANCOS DE DADOS 8.436,53 2.530,96 0,00 0,00 0,00 0,00 0,00 1.717,00 12.684,49 1.548,01 1.668,86 0,00 0,00 3.216,87 9.467,62 31/01/2022
259 397400 ANDRE PATARO MYRRHA DE PAULA E SILVA ANALISTA DO MP BELO HORIZONTE - COMARCA; ASSESSORIA JURIDICO-ADMINISTRATIVA 14.790,66 2.958,13 0,00 0,00 0,00 0,00 520,63 8.166,00 26.435,42 2.633,02 3.287,48 0,00 0,00 5.920,50 20.514,92 31/01/2022
260 650100 ANDRE THOME VARGAS OFICIAL DO MP LEOPOLDINA - COMARCA; LEOPOLDINA-PJ-04PJ 5.217,34 521,73 0,00 0,00 0,00 0,00 526,08 7.456,07 13.721,22 834,04 510,48 0,00 0,00 1.344,52 12.376,70 31/01/2022
261 548500 ANDRE VINICIUS CARVALHO MEIRA ANALISTA DO MP JUIZ DE FORA - COMARCA; JUIZ DE FORA-PJ-24PJ 9.444,70 944,47 0,00 0,00 0,00 0,00 0,00 1.717,00 12.106,17 927,17 1.664,59 0,00 0,00 2.591,76 9.514,41 31/01/2022
262 297200 ANDRE WILLE ROSARIO ANALISTA DO MP BELO HORIZONTE - COMARCA; ASSESSORIA ESPECIAL DO PGJ 18.103,37 5.431,01 0,00 0,00 0,00 0,00 517,76 7.365,25 31.417,39 3.558,71 4.519,67 0,00 0,00 8.078,38 23.339,01 31/01/2022
263 423600 ANDREA COSTA GUALBERTO ALVES ANALISTA DO MP GOVERNADOR VALADARES - COMARCA; COORD REG PJ DEF EDU DIR CRIANCA ADOL RIODOCE 13.011,52 9.108,06 0,00 0,00 7.373,19 0,00 0,00 1.717,00 31.209,77 3.332,35 6.272,62 0,00 0,00 9.604,97 21.604,80 31/01/2022
264 467300 ANDREA DE CASSIA PENNA ALVERNAZ ANALISTA DO MP PONTE NOVA - COMARCA; PONTE NOVA-PJ-01PJ 10.069,62 2.013,92 0,00 0,00 0,00 0,00 531,68 7.517,10 20.132,32 1.726,58 1.926,67 0,00 0,00 3.653,25 16.479,07 31/01/2022
265 308000 ANDREA DE CASSIA SANTOS OLIVEIRA ANALISTA DO MP BELO HORIZONTE - COMARCA; COORD DE GABINETE DO PGJ 17.413,92 5.224,18 0,00 0,00 0,00 0,00 498,04 7.150,14 30.286,28 3.415,31 4.364,77 0,00 0,00 7.780,08 22.506,20 31/01/2022
266 349500 ANDREA DE OLIVEIRA LOIOLA REGIS OFICIAL DO MP IGUATAMA - COMARCA; IGUATAMA-PJ-UNPJ 10.069,62 3.020,89 0,00 0,00 4.363,50 0,00 0,00 1.717,00 19.171,01 1.887,70 3.359,24 0,00 0,00 5.246,94 13.924,07 31/01/2022
267 287900 ANDREA FERNANDES PENA MARTINS OFICIAL DO MP MONTES CLAROS - COMARCA; MONTES CLAROS-PJ-09PJ 10.069,62 3.020,89 0,00 0,00 0,00 0,00 527,98 7.476,82 21.095,31 1.887,70 2.107,14 0,00 0,00 3.994,84 17.100,47 31/01/2022
268 300800 ANDREA FERREIRA ANALISTA DO MP LAVRAS - COMARCA; LAVRAS-PJ-04PJ 16.750,82 5.025,25 0,00 0,00 0,00 0,00 0,00 1.717,00 23.493,07 3.277,38 4.217,78 0,00 0,00 7.495,16 15.997,91 31/01/2022
269 395100 ANDREA LANNA MENDES NOVAIS ANALISTA DO MP BELO HORIZONTE - COMARCA; PROMOT ESTADUAL DE DEF PATRI CULT E TUR DE MG 14.790,66 2.958,13 0,00 0,00 0,00 0,00 0,00 1.717,00 19.465,79 2.633,02 3.183,20 0,00 0,00 5.816,22 13.649,57 31/01/2022
270 67300 ANDREA LEAO MAGALHAES ROQUE ASSESSOR BELO HORIZONTE - COMARCA; COORD ESTADUAL COMBATE CRIMES CIBERNETICOS 0,00 7.278,26 10.397,52 0,00 0,00 0,00 0,00 1.717,00 19.392,78 828,38 4.040,99 0,00 0,00 4.869,37 14.523,41 31/01/2022
271 335700 ANDREA LOPES PEREIRA ANALISTA DO MP GOVERNADOR VALADARES - COMARCA; COORD REG DO MA DA BACIA DO RIO DOCE 17.413,92 5.224,18 0,00 0,00 0,00 0,00 0,00 1.717,00 24.355,10 3.415,31 4.416,91 0,00 0,00 7.832,22 16.522,88 31/01/2022
272 389200 ANDREA TUPINI DOS SANTOS TRISTAO DA ROCHA COORDENADOR/OFICIAL BELO HORIZONTE - COMARCA; BH-13ª PJ JUÍZO DE TÓXICOS-SECRETARIA 0,00 2.363,83 11.819,15 0,00 693,85 2.062,49 0,00 1.717,00 18.656,32 2.062,49 3.221,77 0,00 0,00 5.284,26 13.372,06 31/01/2022
273 419000 ANDREIA BARBOSA DE ALMEIDA ANALISTA DO MP BELO HORIZONTE - COMARCA; GABINETE DE PROCURADOR DE JUSTIÇA - SALA 705 13.011,52 2.602,30 0,00 0,00 5.204,61 0,00 515,26 7.337,98 28.671,67 2.291,42 4.225,57 0,00 0,00 6.516,99 22.154,68 31/01/2022
274 281501 ANDREIA CARLA COSTA ANALISTA DO MP UBÁ - COMARCA; UBA-PJ-02PJ 14.324,23 2.864,85 0,00 0,00 0,00 0,00 504,21 7.217,51 24.910,80 2.543,47 3.158,18 0,00 0,00 5.701,65 19.209,15 31/01/2022
275 477100 ANDREIA DE ALMEIDA RIBEIRO MELO OFICIAL DO MP CONTAGEM - COMARCA; CONTAGEM-PJ-SECRETARIA 7.912,85 1.582,57 0,00 0,00 0,00 0,00 0,00 1.717,00 11.212,42 1.312,48 1.380,95 0,00 0,00 2.693,43 8.518,99 31/01/2022
276 619000 ANDREIA FERREIRA NORONHA COORDENADOR/OFICIAL BELO HORIZONTE - COMARCA; DIRETORIA DE SERVICO CRIMINAL 0,00 1.343,52 13.435,16 0,00 0,00 0,00 541,88 7.628,47 22.949,03 839,85 2.963,82 0,00 0,00 3.803,67 19.145,36 31/01/2022
277 424000 ANDREIA LUCIA COUTO ANALISTA DO MP BELO HORIZONTE - COMARCA; BH-18PJ DIREITOS HUMANOS-SECRETARIA 14.324,23 2.864,85 0,00 0,00 5.729,69 0,00 0,00 1.717,00 24.635,77 2.543,47 4.733,85 0,00 0,00 7.277,32 17.358,45 31/01/2022
278 370100 ANDREIA MARIA SILVA PINTO OFICIAL DO MP CORONEL FABRICIANO - COMARCA; CORONEL FABRICIANO-PJ-01PJ 10.069,62 2.013,92 0,00 0,00 0,00 0,00 0,00 2.486,39 14.569,93 1.075,22 2.137,09 0,00 0,00 3.212,31 11.357,62 31/01/2022
279 382100 ANDREIA NATALI PEREIRA DE OLIVEIRA OFICIAL DO MP PRADOS - COMARCA; PRADOS-PJ-UNPJ 9.146,93 1.829,39 0,00 0,00 0,00 0,00 0,00 1.717,00 12.693,32 1.549,42 1.723,04 0,00 0,00 3.272,46 9.420,86 31/01/2022
280 275200 ANDREIA RIBEIRO FREITAS OFICIAL DO MP VIÇOSA - COMARCA; VICOSA-PJ-04PJ 10.069,62 3.020,89 0,00 0,00 0,00 0,00 0,00 1.717,00 14.807,51 1.887,70 2.159,28 0,00 0,00 4.046,98 10.760,53 31/01/2022
281 352200 ANDREIA XAVIER PEREIRA OFICIAL DO MP CLÁUDIO - COMARCA; CLAUDIO-PJ-UNPJ 10.069,62 3.020,89 0,00 0,00 0,00 0,00 527,98 7.476,82 21.095,31 1.887,70 2.211,41 0,00 0,00 4.099,11 16.996,20 31/01/2022
282 638500 ANDRESA ALVES FEITOSA CASAGRANDE ANALISTA DO MP LAVRAS - COMARCA; COORD REG DO MA DA BACIA DO RIO GRANDE 8.436,53 843,65 0,00 0,00 0,00 0,00 0,00 1.717,00 10.997,18 927,17 1.427,72 0,00 0,00 2.354,89 8.642,29 31/01/2022
283 383700 ANDRESSA EDUARDO SOUZA ANALISTA DO MP OURO BRANCO - COMARCA; OURO BRANCO-PJ-SECRETARIA 14.790,66 2.958,13 0,00 0,00 0,00 0,00 0,00 2.486,39 20.235,18 2.633,02 3.287,48 0,00 0,00 5.920,50 14.314,68 31/01/2022
284 678400 ANDRESSA LUIZA SILVA LOPES ASSESSOR PROMOTOR JUSTICA CARMO DO PARANAÍBA - COMARCA; CARMO DO PARANAIBA-PJ-02PJ 0,00 0,00 7.187,72 0,00 0,00 0,00 0,00 1.717,00 8.904,72 828,38 1.208,91 0,00 0,00 2.037,29 6.867,43 31/01/2022
285 426200 ANDRESSA MENDES CASAL OFICIAL DO MP BELO HORIZONTE - COMARCA; DIR ESTRUTURA E PROCESSOS ORGANIZACIONAIS 7.663,37 1.532,67 0,00 0,00 0,00 0,00 0,00 2.486,39 11.682,43 1.264,58 1.259,65 0,00 0,00 2.524,23 9.158,20 31/01/2022
286 390100 ANDRESSA RIBEIRO PUCCI OFICIAL DO MP UBERABA - COMARCA; UBERABA-PJ-14PJ 6.961,05 1.392,21 0,00 0,00 0,00 0,00 520,69 7.397,22 16.271,17 1.129,74 1.117,11 0,00 0,00 2.246,85 14.024,32 31/01/2022
287 462500 ANDREZA APARECIDA COSTA E SILVA ANALISTA DO MP CONSELHEIRO LAFAIETE - COMARCA; CONSELHEIRO LAFAIETE-PJ-02PJ 10.069,62 2.013,92 0,00 0,00 0,00 0,00 531,68 7.517,10 20.132,32 866,77 2.112,20 0,00 0,00 2.978,97 17.153,35 31/01/2022
288 677700 ANDREZA DE LOURDES FERREIRA DE PAIVA ASSESSOR PROMOTOR JUSTICA ABRE CAMPO - COMARCA; ABRE CAMPO-PJ-01PJ 0,00 0,00 7.187,72 0,00 0,00 0,00 0,00 1.717,00 8.904,72 828,38 1.208,91 0,00 0,00 2.037,29 6.867,43 31/01/2022
289 537800 ANDREZZA LUZIA DE OLIVEIRA ALVES ANALISTA DO MP PATOS DE MINAS - COMARCA; COORD REG PJ DEF EDU DIR CRI ADO AL PAR NOROE 9.444,70 944,47 0,00 0,00 0,00 0,00 533,31 7.534,94 18.457,42 1.455,48 1.535,27 0,00 0,00 2.990,75 15.466,67 31/01/2022
290 491600 ANE PATRICIA RIBEIRO DUARTE ANALISTA DO MP SETE LAGOAS - COMARCA; SETE LAGOAS-PJ-11PJ 10.069,62 2.013,92 0,00 0,00 0,00 0,00 0,00 1.717,00 13.800,54 1.726,58 1.926,67 0,00 0,00 3.653,25 10.147,29 31/01/2022
291 465800 ANELISE GAMA ASSESSOR BELO HORIZONTE - COMARCA; BH-18PJ VIOLENCIA DOMESTICA-SECRETARIA 0,00 0,00 8.170,49 0,00 0,00 0,00 0,00 1.717,00 9.887,49 828,38 1.479,17 0,00 0,00 2.307,55 7.579,94 31/01/2022
292 535200 ANELIZE FERNANDA ALVES VILARINHO OFICIAL DO MP CAPINÓPOLIS - COMARCA; CAPINOPOLIS-PJ-UNPJ 6.123,79 612,38 0,00 0,00 2.245,39 0,00 543,38 9.183,61 18.708,55 872,76 1.360,56 0,00 0,00 2.233,32 16.475,23 31/01/2022
293 197200 ANGELA COELHO SALDANHA OFICIAL DO MP PARÁ DE MINAS - COMARCA; PARA DE MINAS-PJ-03PJ 16.750,82 6.700,33 0,00 0,00 0,00 0,00 0,00 1.717,00 25.168,15 3.545,40 4.604,72 0,00 0,00 8.150,12 17.018,03 31/01/2022
294 307400 ANGELA CRISTINA GONCALVES MUNIZ ANALISTA DO MP UBERLÂNDIA - COMARCA; UBERLANDIA-PJ-SEC FAMILIA 18.103,37 7.241,35 0,00 0,00 0,00 0,00 0,00 1.717,00 27.061,72 3.848,37 4.990,00 0,00 0,00 8.838,37 18.223,35 31/01/2022
295 191800 ANGELA MARIA DE OLIVEIRA OFICIAL DO MP GUARANÉSIA - COMARCA; GUARANESIA-PJ-SECRETARIA 16.750,82 11.725,57 0,00 0,00 10.941,94 4.349,44 0,00 1.717,00 45.484,77 4.349,44 9.970,68 0,00 0,00 14.320,12 31.164,65 31/01/2022
296 497400 ANGELA MARIA HENRIQUES ANALISTA DO MP BELO HORIZONTE - COMARCA; COORD REG BACIAS RIO VELHAS E PARAOPEBA 10.069,62 2.013,92 0,00 0,00 0,00 0,00 0,00 1.717,00 13.800,54 1.726,58 1.978,80 0,00 0,00 3.705,38 10.095,16 31/01/2022
297 260700 ANGELICA CRISTINA AZEVEDO MOREIRA MOUCO OFICIAL DO MP UBÁ - COMARCA; UBA-PJ-05PJ 13.011,52 3.903,46 0,00 0,00 0,00 0,00 496,17 7.129,79 24.540,94 2.499,61 3.094,87 0,00 0,00 5.594,48 18.946,46 31/01/2022
298 708300 ANGELICA NUNES VIEIRA DA SILVA ASSESSOR PROMOTOR JUSTICA IBIRITÉ - COMARCA; IBIRITE-PJ-02PJ 0,00 0,00 7.187,72 0,00 0,00 0,00 0,00 1.717,00 8.904,72 828,38 1.208,91 0,00 0,00 2.037,29 6.867,43 31/01/2022
299 334600 ANGELICA PANISSA DE FREITAS GALLATI OFICIAL DO MP GUAXUPÉ - COMARCA; GUAXUPE-PJ-02PJ 10.069,62 3.020,89 0,00 0,00 0,00 0,00 527,98 8.246,21 21.864,70 1.887,70 2.159,28 0,00 0,00 4.046,98 17.817,72 31/01/2022
300 521100 ANGELICA SALES MOREIRA OFICIAL DO MP BELO HORIZONTE - COMARCA; BH-02PJ FAMILIA-SECRETARIA 7.663,37 766,34 0,00 0,00 0,00 0,00 525,45 7.449,20 16.404,36 1.141,97 1.134,77 0,00 0,00 2.276,74 14.127,62 31/01/2022
301 466500 ANGELLO MARQUES AGRELLI ANALISTA DO MP MAR DE ESPANHA - COMARCA; MAR DE ESPANHA-PJ-UNPJ 10.069,62 2.013,92 0,00 0,00 0,00 0,00 0,00 1.717,00 13.800,54 1.726,58 1.978,80 0,00 0,00 3.705,38 10.095,16 31/01/2022
302 363300 ANGELO VERDOLIN HENRIQUES ANALISTA DO MP SETE LAGOAS - COMARCA; SETE LAGOAS-PJ-04PJ 16.750,82 6.700,33 0,00 0,00 0,00 0,00 515,93 7.345,28 31.312,36 3.545,40 4.604,72 0,00 0,00 8.150,12 23.162,24 31/01/2022
303 250900 ANISIO APARECIDO SANTOS OFICIAL DO MP BETIM - COMARCA; BETIM - SECRETARIA DAS PJS CRIMINAIS 6.123,79 2.449,52 0,00 0,00 0,00 0,00 534,40 7.546,85 16.654,56 1.164,94 540,23 0,00 0,00 1.705,17 14.949,39 31/01/2022
304 651200 ANITA MARIA SANT ANA DE MATTOS FONTES OFICIAL DO MP ERVÁLIA - COMARCA; ERVALIA-PJ-UNPJ 5.217,34 3.652,13 0,00 1.414,89 0,00 3.940,54 520,34 7.393,46 22.138,70 1.212,33 1.856,24 0,00 0,00 3.068,57 19.070,13 31/01/2022
305 698100 ANNA CAROLINA POLICARIO BERTOLIN ASSESSOR PROCURADOR JUSTICA BELO HORIZONTE - COMARCA; PROC. JUSTICA DIR. DIFUSOS E COLETIVOS-SEC 0,00 0,00 7.187,72 0,00 0,00 0,00 0,00 1.717,00 8.904,72 828,38 1.208,91 0,00 0,00 2.037,29 6.867,43 31/01/2022
306 253400 ANNA FLAVIA LEHMAN DIRETOR/ANALISTA BELO HORIZONTE - COMARCA; SUPRIN DE PLANEJAMENTO E COORDENACAO 18.820,14 5.646,04 3.482,78 0,00 0,00 0,00 512,40 7.306,79 35.768,15 3.707,80 5.640,55 0,00 0,00 9.348,35 26.419,80 31/01/2022
307 688800 ANNA LUIZA MATTOS DUARTE ASSESSOR PROCURADOR JUSTICA BELO HORIZONTE - COMARCA; GABINETE DE PROCURADOR DE JUSTIÇA - SALA 305 0,00 0,00 7.187,72 0,00 0,00 0,00 0,00 1.717,00 8.904,72 828,38 1.208,91 0,00 0,00 2.037,29 6.867,43 31/01/2022
308 447600 ANNGELUCE ALCANTARA DE CAMPOS OFICIAL DO MP DIVINÓPOLIS - COMARCA; DIVINOPOLIS-PJ-SECRETARIA 8.170,49 1.634,10 0,00 0,00 0,00 0,00 539,25 7.599,75 17.943,59 1.361,95 1.452,37 0,00 0,00 2.814,32 15.129,27 31/01/2022
309 119600 ANSELMO BORGES PARREIRAS OFICIAL DO MP BONFIM - COMARCA; BONFIM-PJ-UNPJ 8.170,49 6.536,40 0,00 0,00 721,79 2.146,32 0,00 1.717,00 19.292,00 2.146,32 3.321,39 0,00 0,00 5.467,71 13.824,29 31/01/2022
310 630300 ANTONIA GOMES RAMALHO OFICIAL DO MP NOVO CRUZEIRO - COMARCA; NOVO CRUZEIRO-PJ-UNPJ 5.930,75 593,08 0,00 0,00 0,00 0,00 0,00 3.255,78 9.779,61 839,85 693,74 0,00 0,00 1.533,59 8.246,02 31/01/2022
311 401600 ANTONIO CARLOS GUEDES AROUCA ANALISTA DO MP BELO HORIZONTE - COMARCA; ASSESSORIA JURIDICO-ADMINISTRATIVA 13.011,52 2.602,30 0,00 0,00 0,00 0,00 0,00 1.717,00 17.330,82 2.291,42 2.794,30 0,00 0,00 5.085,72 12.245,10 31/01/2022
312 333900 ANTONIO GONCALVES DE SOUZA FILHO OFICIAL DO MP BELO HORIZONTE - COMARCA; DIRETORIA DE CONTABILIDADE 10.069,62 3.020,89 0,00 0,00 0,00 0,00 0,00 1.717,00 14.807,51 1.887,70 2.211,41 0,00 0,00 4.099,11 10.708,40 31/01/2022
313 176100 ANTONIO MARCELO CAMPOS CAMPANELLA OFICIAL DO MP BELO HORIZONTE - COMARCA; COORD DE GABINETE DO PGJ 16.750,82 8.375,41 0,00 0,00 0,00 0,00 0,00 1.717,00 26.843,23 3.813,41 4.991,67 0,00 0,00 8.805,08 18.038,15 31/01/2022
314 321001 ANTONIO OLINTO VIEIRA MACHADO ANALISTA DO MP BELO HORIZONTE - COMARCA; CENTRAL DE APOIO TECN-SETOR DE MEIO AMBIENTE 14.790,66 2.958,13 0,00 0,00 0,00 0,00 520,63 7.396,61 25.666,03 2.633,02 3.183,20 0,00 0,00 5.816,22 19.849,81 31/01/2022
315 356200 ANTONIO PAULA DA SILVA OFICIAL DO MP JUIZ DE FORA - COMARCA; JUIZ DE FORA-PJ-20PJ 9.444,70 2.833,41 0,00 0,00 0,00 0,00 0,00 1.717,00 13.995,11 1.757,71 2.023,75 0,00 0,00 3.781,46 10.213,65 31/01/2022
316 119900 ANTONIO RODRIGUES DE PINHO OFICIAL DO MP GUANHÃES - COMARCA; GUANHAES-PJ-01PJ 15.272,02 10.690,41 0,00 0,00 0,00 0,00 475,98 6.909,49 33.347,90 3.947,20 5.080,55 0,00 0,00 9.027,75 24.320,15 31/01/2022
317 373300 ANTONIO SERGIO ANANIAS OFICIAL DO MP SÃO JOÃO NEPOMUCENO - COMARCA; SAO JOAO NEPOMUCENO-PJ-01PJ 8.858,43 1.771,69 0,00 0,00 3.543,37 0,00 0,00 1.717,00 15.890,49 964,04 2.721,24 0,00 0,00 3.685,28 12.205,21 31/01/2022
318 608100 ANTONIO SIDINEY VIEIRA LEMOS ANALISTA DO MP PIRAPORA - COMARCA; PIRAPORA-PJ-01PJ 9.146,93 3.658,77 0,00 0,00 0,00 0,00 516,50 7.351,51 20.673,71 1.842,13 2.093,49 0,00 0,00 3.935,62 16.738,09 31/01/2022
319 374700 ANTONIO SILVA NETO OFICIAL DO MP BELO HORIZONTE - COMARCA; GAECO - SECRETARIA 9.146,93 1.829,39 0,00 0,00 0,00 0,00 0,00 2.486,39 13.462,71 1.549,42 1.723,04 0,00 0,00 3.272,46 10.190,25 31/01/2022
320 636700 ANTONIUS VITORIANO FERNANDES OFICIAL DO MP BELO HORIZONTE - COMARCA; ASSESSORIA JURIDICA DO PROCON-MG 4.974,42 497,44 0,00 0,00 0,00 0,00 0,00 1.717,00 7.188,86 681,38 448,02 0,00 0,00 1.129,40 6.059,46 31/01/2022
321 413200 ANY PEREIRA SILVA ANALISTA DO MP TRÊS PONTAS - COMARCA; TRES PONTAS-PJ-01PJ 13.011,52 2.602,30 0,00 0,00 0,00 0,00 515,26 7.337,98 23.467,06 2.291,42 2.794,30 0,00 0,00 5.085,72 18.381,34 31/01/2022
322 151401 APARECIDA DE FATIMA MENDES DE ALMEIDA ASSESSOR JUIZ DE FORA - COMARCA; JUIZ DE FORA-PJ-SECRETARIA 0,00 0,00 5.136,32 0,00 0,00 0,00 470,83 6.853,32 12.460,47 722,98 673,76 0,00 0,00 1.396,74 11.063,73 31/01/2022
323 329300 APARECIDA MARIA MELO DE ASSIS OFICIAL DO MP BELO HORIZONTE - COMARCA; BH-18PJ DIREITOS HUMANOS-SECRETARIA 10.069,62 3.020,89 0,00 0,00 0,00 0,00 0,00 1.717,00 14.807,51 1.887,70 2.211,41 0,00 0,00 4.099,11 10.708,40 31/01/2022
324 475300 APARECIDA MARLENE FREIRE ROSA ANALISTA DO MP BELO HORIZONTE - COMARCA; BH-02PJ FAMILIA-SECRETARIA 12.601,30 11.341,17 0,00 0,00 0,00 3.624,01 0,00 1.717,00 29.283,48 3.624,01 5.714,82 0,00 0,00 9.338,83 19.944,65 31/01/2022
325 653000 APARECIDA ROSA DE LIMA ASSESSOR BELO HORIZONTE - COMARCA; SECRETARIA PROCESSOS DISCIPES ADMINISTRATIVOS 0,00 0,00 8.170,49 0,00 0,00 0,00 539,25 7.599,75 16.309,49 828,38 1.479,17 0,00 0,00 2.307,55 14.001,94 31/01/2022
326 354500 APARECIDA VIEIRA DE CARVALHO OFICIAL DO MP BELO HORIZONTE - COMARCA; DIVISÃO DE EDUCAÇÃO PARA O CONSUMO 7.912,85 2.373,86 0,00 0,00 0,00 0,00 528,05 7.477,56 18.292,32 1.439,09 1.563,74 0,00 0,00 3.002,83 15.289,49 31/01/2022
327 551000 ARACELES BICALHO FELIX ANALISTA DO MP MANHUAÇU - COMARCA; MANHUACU-PJ-02PJ 9.444,70 944,47 0,00 0,00 0,00 0,00 0,00 1.717,00 12.106,17 1.455,48 1.587,40 0,00 0,00 3.042,88 9.063,29 31/01/2022
328 286200 ARACELI MEDRADO DOS SANTOS LIMA OFICIAL DO MP PARACATU - COMARCA; PARACATU-PJ-03PJ 6.123,79 1.837,14 0,00 0,00 0,00 0,00 233,52 4.264,50 12.458,95 1.066,96 1.026,48 0,00 0,00 2.093,44 10.365,51 31/01/2022
329 112200 ARAQUEM AUGUSTO DE MATOS AGENTE DO MP BELO HORIZONTE - COMARCA; BH-23PJ CIVEL-SEC EXP CIVEIS 9.146,93 7.317,54 0,00 140,22 0,00 3.512,57 0,00 1.717,00 21.834,26 2.427,53 3.501,96 0,00 0,00 5.929,49 15.904,77 31/01/2022
330 280600 ARDUINO FRATTEZI ANALISTA DO MP BELO HORIZONTE - COMARCA; CENTRAL DE APOIO TECNICO-SETOR CONTABIL 18.103,37 5.431,01 0,00 0,00 0,00 0,00 517,76 7.365,25 31.417,39 3.558,71 4.623,95 0,00 0,00 8.182,66 23.234,73 31/01/2022
331 520201 ARIANE DE FATIMA CARVALHO ALMEIDA RODRIGUES ANALISTA DO MP VESPASIANO - COMARCA; VESPASIANO-PJ-SECRETARIA 9.146,93 914,69 0,00 0,00 0,00 0,00 0,00 2.870,54 12.932,16 1.403,07 1.355,33 0,00 0,00 2.758,40 10.173,76 31/01/2022
332 537600 ARIELA FREIRE MONTIJO ANALISTA DO MP ARCOS - COMARCA; ARCOS-PJ-01PJ 9.444,70 944,47 0,00 0,00 3.463,06 0,00 0,00 2.486,39 16.338,62 1.455,48 2.435,47 0,00 0,00 3.890,95 12.447,67 31/01/2022
333 182000 ARILSON ALEXANDRE MARTINS MAGALHAES OFICIAL DO MP JOÃO MONLEVADE - COMARCA; JOAO MONLEVADE-PJ-01PJ 15.272,02 7.636,01 0,00 0,00 0,00 0,00 503,98 8.753,71 32.165,72 3.458,50 4.270,71 0,00 0,00 7.729,21 24.436,51 31/01/2022
334 511000 ARISLANE CAROLINA DA SILVA ANALISTA DO MP MONTE CARMELO - COMARCA; MONTE CARMELO-PJ-02PJ 10.069,62 2.013,92 0,00 0,00 0,00 0,00 0,00 3.255,78 15.339,32 1.726,58 1.978,80 0,00 0,00 3.705,38 11.633,94 31/01/2022
335 170000 ARLEY BRITES DA SILVA ASSESSOR BELO HORIZONTE - COMARCA; BH-14PJ DEFESA CONSUMIDOR-SECRETARIA 0,00 2.054,53 5.136,32 0,00 0,00 0,00 527,33 7.469,68 15.187,86 828,38 588,18 0,00 0,00 1.416,56 13.771,30 31/01/2022
336 120400 ARLINDO CASSIO DA CRUZ OFICIAL DO MP SÃO GONÇALO DO SAPUCAÍ - COMARCA; SAO GONCALO DO SAPUCAI-PJ-01PJ 18.820,14 15.056,11 0,00 0,00 13.029,89 5.213,41 0,00 1.717,00 53.836,55 5.213,41 11.925,55 0,00 0,00 17.138,96 36.697,59 31/01/2022
337 243700 ARLINDO MARCIO LACERDA OFICIAL DO MP CONTAGEM - COMARCA; CONTAGEM-PJ-SECRETARIA 13.011,52 5.204,61 0,00 0,00 0,00 0,00 1.445,27 1.717,00 21.378,40 2.707,79 3.792,88 0,00 0,00 6.500,67 14.877,73 31/01/2022
338 392100 ARNALDO DE ANDRADE OFICIAL DO MP DIVINÓPOLIS - COMARCA; DIVINOPOLIS-PJ-02PJ 9.146,93 1.829,39 0,00 0,00 0,00 0,00 1.991,82 8.448,75 21.416,89 1.549,42 2.068,35 0,00 0,00 3.617,77 17.799,12 31/01/2022
339 642400 ARTANE INARDE DE SIQUEIRA DAMASCENO ANALISTA DO MP BELO HORIZONTE - COMARCA; SECRETARIA DE ASSUNTOS INTERNACIONAIS 8.170,49 817,05 0,00 0,00 0,00 0,00 0,00 1.973,46 10.961,00 927,17 1.308,05 0,00 0,00 2.235,22 8.725,78 31/01/2022
340 712100 ARTUR FONTE BOA TEOFILO ASSESSOR BELO HORIZONTE - COMARCA; DIRET DE ESTAGIOS E CONVENIOS ACADEMICOS 0,00 0,00 3.076,28 0,00 0,00 0,00 0,00 1.717,00 4.793,28 434,57 227,80 0,00 0,00 662,37 4.130,91 31/01/2022
341 302100 AUGUSTO ROUSSEAU DE CASTRO ANALISTA DO MP CATAGUASES - COMARCA; CATAGUASES-PJ-02PJ 18.820,14 5.646,04 0,00 0,00 8.155,39 0,00 538,26 7.588,88 40.748,71 3.707,80 7.081,93 0,00 0,00 10.789,73 29.958,98 31/01/2022
342 540200 AUREA AVELAR BITTENCOURT OFICIAL DO MP BELO HORIZONTE - COMARCA; GRUPO ESP PROM JUST DEF PROB ADM PAT PUB 5.562,64 556,26 0,00 0,00 0,00 0,00 0,00 1.717,00 7.835,90 778,43 504,31 0,00 0,00 1.282,74 6.553,16 31/01/2022
343 633501 AUREA GONTIJO BIRCHAL ASSESSOR BELO HORIZONTE - COMARCA; PROCURADOR-GERAL DE JUSTIÇA 0,00 0,00 12.601,30 1.329,24 0,00 0,00 1.329,24 1.717,00 16.976,78 828,38 3.063,18 0,00 0,00 3.891,56 13.085,22 31/01/2022
344 183200 AURELIANO MAGELA DE REZENDE COORDENADOR/OFICIAL BELO HORIZONTE - COMARCA; COORD DE GABINETE DO PGJ 16.112,82 6.445,13 2.687,03 0,00 8.414,99 0,00 0,00 1.717,00 35.376,97 3.402,49 7.451,45 0,00 0,00 10.853,94 24.523,03 31/01/2022
345 629400 AYESKA DA COSTA VAL MOURA DABIEN OFICIAL DO MP BELO HORIZONTE - COMARCA; BH-09PJ AUDITORIA MILITAR-SECRETARIA 5.387,19 538,72 0,00 0,00 0,00 0,00 0,00 1.717,00 7.642,91 749,48 554,16 0,00 0,00 1.303,64 6.339,27 31/01/2022
346 707400 AYMEE JOHANSSENN TYNEE CORREIA ALVES ASSESSOR PROMOTOR JUSTICA NOVA LIMA - COMARCA; NOVA LIMA-PJ-01PJ 0,00 0,00 7.187,72 0,00 0,00 0,00 0,00 1.717,00 8.904,72 828,38 1.208,91 0,00 0,00 2.037,29 6.867,43 31/01/2022
347 701600 BARBARA CHAVES OLIVEIRA ASSESSOR PROCURADOR JUSTICA BELO HORIZONTE - COMARCA; PROC. JUSTICA DIR. DIFUSOS E COLETIVOS-SEC 0,00 0,00 7.187,72 0,00 0,00 0,00 0,00 1.717,00 8.904,72 828,38 1.208,91 0,00 0,00 2.037,29 6.867,43 31/01/2022
348 691900 BARBARA COUTINHO REIS ASSESSOR PROCURADOR JUSTICA BELO HORIZONTE - COMARCA; GABINETE DE PROCURADOR DE JUSTIÇA - SALA 912 0,00 0,00 7.187,72 0,00 0,00 0,00 0,00 1.717,00 8.904,72 828,38 1.208,91 0,00 0,00 2.037,29 6.867,43 31/01/2022
349 692200 BARBARA CRISTINA MENDES BANDEIRA DE MELO DUTRA ASSESSOR PROCURADOR JUSTICA BELO HORIZONTE - COMARCA; GABINETE DE PROCURADOR DE JUSTIÇA - SALA 1009 0,00 0,00 7.187,72 0,00 0,00 0,00 0,00 1.717,00 8.904,72 828,38 1.208,91 0,00 0,00 2.037,29 6.867,43 31/01/2022
350 652800 BARBARA JULIANNE MOREIRA CASTRO ASSESSOR PROCURADOR JUSTICA BELO HORIZONTE - COMARCA; ASSESS TECNICO-JUR JUNTO AS PROC. DE JUST 0,00 0,00 7.187,72 0,00 0,00 0,00 0,00 1.717,00 8.904,72 828,38 1.208,91 0,00 0,00 2.037,29 6.867,43 31/01/2022
351 707700 BARBARA LOUISE PUFF DE OLIVEIRA ASSESSOR PROMOTOR JUSTICA RIBEIRÃO DAS NEVES - COMARCA; RIBEIRAO DAS NEVES-PJ-02PJ 0,00 0,00 7.187,72 0,00 0,00 0,00 0,00 1.717,00 8.904,72 828,38 1.208,91 0,00 0,00 2.037,29 6.867,43 31/01/2022
352 663600 BARBARA REGINA PEREIRA DE PINHO MAGALHAES ASSESSOR PROMOTOR JUSTICA BELO HORIZONTE - COMARCA; CAO-DH CONT EXT ATIV POLIC E AP COMUNIT 0,00 0,00 7.187,72 0,00 0,00 0,00 0,00 1.717,00 8.904,72 828,38 1.208,91 0,00 0,00 2.037,29 6.867,43 31/01/2022
353 692400 BARBARA SOUZA OLIVEIRA ASSESSOR PROMOTOR JUSTICA DIVINO - COMARCA; DIVINO-PJ-UNPJ 0,00 0,00 7.187,72 0,00 0,00 0,00 0,00 1.717,00 8.904,72 828,38 1.208,91 0,00 0,00 2.037,29 6.867,43 31/01/2022
354 546500 BARBARA ZACARONI GOULART OFICIAL DO MP BETIM - COMARCA; BETIM-PJ-08PJ 6.123,79 612,38 0,00 0,00 0,00 0,00 0,00 1.717,00 8.453,17 872,76 743,08 0,00 0,00 1.615,84 6.837,33 31/01/2022
355 316500 BEATRIZ ABILVIA DA SILVA ANALISTA DO MP GOVERNADOR VALADARES - COMARCA; GOVERNADOR VALADARES-PJ-07PJ 17.413,92 5.224,18 0,00 0,00 0,00 0,00 498,04 7.150,14 30.286,28 3.415,31 4.416,91 0,00 0,00 7.832,22 22.454,06 31/01/2022
356 311800 BEATRIZ APARECIDA SOARES GANEM OFICIAL DO MP ITAMBACURI - COMARCA; ITAMBACURI-PJ-02PJ 10.736,08 3.220,82 0,00 0,00 4.652,30 0,00 511,75 7.299,76 26.420,71 2.026,32 3.534,52 0,00 0,00 5.560,84 20.859,87 31/01/2022
357 266800 BEATRIZ AUGUSTA VILACA GOMES DE HUBER OFICIAL DO MP BELO HORIZONTE - COMARCA; BH-05PJ-JUÍZO SUCESSÕES-SEC 10.069,62 3.020,89 0,00 0,00 0,00 0,00 0,00 1.717,00 14.807,51 1.887,70 2.211,41 0,00 0,00 4.099,11 10.708,40 31/01/2022
358 235200 BEATRIZ BOTELHO BATISTA OFICIAL DO MP BELO HORIZONTE - COMARCA; BH-21PJ TUTELA FUNDACOES-SECRETARIA 10.069,62 4.027,85 0,00 0,00 0,00 0,00 0,00 1.717,00 15.814,47 2.048,81 2.444,02 0,00 0,00 4.492,83 11.321,64 31/01/2022
359 182300 BEATRIZ PAULA SOUSA RAMOS OFICIAL DO MP MARIANA - COMARCA; MARIANA-PJ-01PJ 15.272,02 7.636,01 0,00 0,00 0,00 0,00 0,00 1.717,00 24.625,03 3.458,50 4.479,26 0,00 0,00 7.937,76 16.687,27 31/01/2022
360 507000 BELCHIOR FRANKLIN AMARAL LEITE ANALISTA DO MP BELO HORIZONTE - COMARCA; CENTRAL DE APOIO TECNICO 10.736,08 2.147,22 0,00 0,00 0,00 0,00 519,63 8.155,04 21.557,97 1.854,54 2.191,88 0,00 0,00 4.046,42 17.511,55 31/01/2022
361 345100 BENITO ELIAS RODRIGUES ANALISTA DO MP BARBACENA - COMARCA; BARBACENA - SECRETARIA DAS PJS CRIMINAIS 16.750,82 5.025,25 0,00 0,00 0,00 0,00 0,00 1.717,00 23.493,07 3.277,38 4.165,64 0,00 0,00 7.443,02 16.050,05 31/01/2022
362 207300 BENITO VIEIRA DOS SANTOS ANALISTA DO MP BELO HORIZONTE - COMARCA; PROC JUST ESP ACOES COMP ORIG CRIMINAL-ASSESS 18.820,14 7.528,06 0,00 0,00 1.342,66 4.008,93 0,00 1.717,00 33.416,79 4.008,93 5.483,63 0,00 0,00 9.492,56 23.924,23 31/01/2022
363 480200 BERNADETE NUNES DOS SANTOS ANALISTA DO MP GUANHÃES - COMARCA; GUANHAES-PJ-02PJ 10.069,62 3.020,89 0,00 0,00 0,00 0,00 0,00 1.717,00 14.807,51 1.887,70 2.211,41 0,00 0,00 4.099,11 10.708,40 31/01/2022
364 378400 BETANIA FARNESI DE SOUZA E SILVA OFICIAL DO MP CURVELO - COMARCA; CURVELO-PJ-01PJ 9.146,93 3.658,77 0,00 0,00 0,00 0,00 0,00 1.717,00 14.522,70 1.842,13 2.093,49 0,00 0,00 3.935,62 10.587,08 31/01/2022
365 387400 BETANIA MENDONCA DE ASSIS CARVALHO ANALISTA DO MP JUIZ DE FORA - COMARCA; JUIZ DE FORA-PJ-03PJ 14.790,66 2.958,13 0,00 0,00 0,00 0,00 0,00 2.486,39 20.235,18 2.633,02 3.235,34 0,00 0,00 5.868,36 14.366,82 31/01/2022
366 714400 BIANCA DE CASTRO RAMOS ASSESSOR PROMOTOR JUSTICA BETIM - COMARCA; BETIM-PJ-07PJ 0,00 0,00 7.187,72 598,98 0,00 0,00 4.073,04 2.943,91 14.803,65 828,38 2.523,67 0,00 0,00 3.352,05 11.451,60 31/01/2022
367 712700 BIANCA DE JESUS SOUZA ASSESSOR GOVERNADOR VALADARES - COMARCA; COOR REG APOIO COM INC MOB VALE DO RIO DOCE 0,00 0,00 3.076,28 0,00 0,00 0,00 0,00 1.717,00 4.793,28 434,57 227,80 0,00 0,00 662,37 4.130,91 31/01/2022
368 450300 BIANCA OLIVEIRA DE ALBUQUERQUE ANALISTA DO MP BELO HORIZONTE - COMARCA; BH-10PJ EXECUÇÃO PENAL-SECRETARIA 10.069,62 2.013,92 0,00 0,00 0,00 0,00 0,00 2.486,39 14.569,93 1.726,58 1.978,80 0,00 0,00 3.705,38 10.864,55 31/01/2022
369 535400 BIANCA SALOTO ROSSI ANALISTA DO MP SANTOS DUMONT - COMARCA; SANTOS DUMONT-PJ-01PJ 9.444,70 944,47 0,00 0,00 0,00 0,00 0,00 2.486,39 12.875,56 1.455,48 1.587,40 0,00 0,00 3.042,88 9.832,68 31/01/2022
370 120800 BRAS MARQUES DE SOUZA ANALISTA DO MP BELO HORIZONTE - COMARCA; SUPERINTENDENCIA DE GESTAO ADMINISTRATIVA 23.757,25 19.005,81 0,00 0,00 1.828,74 5.467,17 0,00 1.717,00 51.775,97 5.467,17 9.281,38 7.300,84 0,00 22.049,39 29.726,58 31/01/2022
371 710500 BRENNO VINICIUS MAGESTE ROSA ASSESSOR PROMOTOR JUSTICA MANHUAÇU - COMARCA; MANHUACU-PJ-02PJ 0,00 0,00 7.187,72 0,00 0,00 0,00 0,00 1.717,00 8.904,72 828,38 1.208,91 0,00 0,00 2.037,29 6.867,43 31/01/2022
372 460900 BRENO CRISTIANO DE SOUZA REZENDE ANALISTA DO MP ITAÚNA - COMARCA; ITAUNA-PJ-02PJ 10.069,62 2.013,92 0,00 0,00 0,00 0,00 0,00 1.717,00 13.800,54 1.726,58 1.978,80 0,00 0,00 3.705,38 10.095,16 31/01/2022
373 239000 BRENO VENANCIO ROMANINI OFICIAL DO MP BELO HORIZONTE - COMARCA; BH-20PJ ORD ECON TRIBUTARIA-SECRETARIA 10.069,62 3.020,89 0,00 0,00 0,00 0,00 0,00 1.717,00 14.807,51 1.887,70 2.211,41 0,00 0,00 4.099,11 10.708,40 31/01/2022
374 642300 BRUNA IZABELITA DE FATIMA OLIVEIRA COSTA OFICIAL DO MP BELO HORIZONTE - COMARCA; BH-02PJ FAMILIA-SECRETARIA 5.387,19 538,72 0,00 0,00 0,00 0,00 0,00 1.717,00 7.642,91 749,48 554,16 0,00 0,00 1.303,64 6.339,27 31/01/2022
375 513600 BRUNA KARLA MARTINS CARVALHO ANALISTA DO MP GOVERNADOR VALADARES - COMARCA; GOVERNADOR VALADARES-PJ-14PJ 10.069,62 2.013,92 0,00 0,00 0,00 0,00 531,68 7.517,10 20.132,32 927,17 2.095,59 0,00 0,00 3.022,76 17.109,56 31/01/2022
376 415100 BRUNA MARIA SOARES OLIVEIRA COSTA RAMOS ANALISTA DO MP UBÁ - COMARCA; COORD REG BACIA DO RIO PARAIBA DO SUL 14.324,23 2.864,85 0,00 0,00 0,00 0,00 0,00 1.717,00 18.906,08 485,38 3.515,81 0,00 0,00 4.001,19 14.904,89 31/01/2022
377 692900 BRUNA MENDES COELHO ASSESSOR PROCURADOR JUSTICA BELO HORIZONTE - COMARCA; GABINETE DE PROCURADOR DE JUSTIÇA - SALA 801 0,00 0,00 7.187,72 0,00 0,00 0,00 0,00 1.717,00 8.904,72 828,38 1.208,91 0,00 0,00 2.037,29 6.867,43 31/01/2022
378 470000 BRUNA MORAES ANALISTA DO MP TOMBOS - COMARCA; TOMBOS-PJ-UNPJ 12.601,30 2.520,26 0,00 0,00 5.040,52 0,00 499,01 7.160,76 27.821,85 2.212,66 3.910,32 0,00 0,00 6.122,98 21.698,87 31/01/2022
379 614700 BRUNA NATTANY DE LIMA OFICIAL DO MP MANTENA - COMARCA; MANTENA-PJ-01PJ 5.930,75 593,08 0,00 0,00 0,00 0,00 526,26 8.227,36 15.277,45 839,85 693,74 0,00 0,00 1.533,59 13.743,86 31/01/2022
380 693300 BRUNA RAMONY ROCHA DA CRUZ ASSESSOR PROMOTOR JUSTICA JAIBA - COMARCA; JAIBA-PJ-UNPJ 0,00 0,00 7.187,72 0,00 2.395,91 0,00 527,10 7.467,18 17.577,91 741,83 1.891,58 0,00 0,00 2.633,41 14.944,50 31/01/2022
381 631800 BRUNA RAPOSO JORGE OFICIAL DO MP JUIZ DE FORA - COMARCA; JUIZ DE FORA-PJ-06PJ 5.930,75 593,08 0,00 0,00 0,00 0,00 239,21 4.326,53 11.089,57 839,85 693,74 0,00 0,00 1.533,59 9.555,98 31/01/2022
382 707800 BRUNA ROMIE WERDINE ASSESSOR PROMOTOR JUSTICA IBIRITÉ - COMARCA; IBIRITE-PJ-06PJ 0,00 0,00 7.187,72 0,00 0,00 0,00 0,00 1.717,00 8.904,72 828,38 1.208,91 0,00 0,00 2.037,29 6.867,43 31/01/2022
383 697400 BRUNA SILVA SANTOS ASSESSOR PROMOTOR JUSTICA TIMÓTEO - COMARCA; TIMOTEO-PJ-04PJ 0,00 0,00 7.187,72 0,00 0,00 0,00 0,00 1.717,00 8.904,72 828,38 1.208,91 0,00 0,00 2.037,29 6.867,43 31/01/2022
384 699300 BRUNA URSINE TIMO ASSESSOR PROCURADOR JUSTICA BELO HORIZONTE - COMARCA; PROC JUST ESP ACOES COMP ORIG CRIMINAL-ASSESS 0,00 0,00 7.187,72 0,00 0,00 0,00 0,00 1.717,00 8.904,72 828,38 1.208,91 0,00 0,00 2.037,29 6.867,43 31/01/2022
385 463800 BRUNO ALVES TEIXEIRA ANALISTA DO MP UBERLÂNDIA - COMARCA; UBERLANDIA-PJ-04PJ 10.069,62 2.013,92 0,00 0,00 0,00 0,00 531,68 7.517,10 20.132,32 1.726,58 1.978,80 0,00 0,00 3.705,38 16.426,94 31/01/2022
386 538500 BRUNO AUGUSTO DA SILVA OFICIAL DO MP SANTA LUZIA - COMARCA; SANTA LUZIA-PJ-03PJ 6.123,79 612,38 0,00 0,00 0,00 0,00 0,00 1.717,00 8.453,17 872,76 743,08 0,00 0,00 1.615,84 6.837,33 31/01/2022
387 318200 BRUNO BARROS DE SOUZA OFICIAL DO MP UBÁ - COMARCA; UBA-PJ-04PJ 10.069,62 3.020,89 0,00 0,00 4.363,50 0,00 527,98 7.476,82 25.458,81 883,55 3.035,73 0,00 0,00 3.919,28 21.539,53 31/01/2022
388 459600 BRUNO CASTELAR LUGAO MENDES OFICIAL DO MP BELO HORIZONTE - COMARCA; PROC JUST ATUACAO TRIBUNAIS SUPERIORES-GAB001 8.579,10 1.715,82 0,00 0,00 0,00 0,00 528,47 7.482,16 18.305,55 1.143,05 1.640,61 0,00 0,00 2.783,66 15.521,89 31/01/2022
389 427400 BRUNO CESAR RIBEIRO DE PAIVA ANALISTA DO MP BELO HORIZONTE - COMARCA; ASSESS JUR DO CONS SUPERIOR DO MINISTERIO PUB 14.324,23 2.864,85 0,00 0,00 0,00 0,00 0,00 1.717,00 18.906,08 2.543,47 3.158,18 0,00 0,00 5.701,65 13.204,43 31/01/2022
390 380900 BRUNO CIRILO ANTUNES OFICIAL DO MP VARGINHA - COMARCA; VARGINHA-PJ-05PJ 9.444,70 1.888,94 0,00 0,00 0,00 0,00 540,24 7.610,49 19.484,37 1.606,60 1.805,58 0,00 0,00 3.412,18 16.072,19 31/01/2022
391 329000 BRUNO DE MELO REIS ANALISTA DO MP PATROCÍNIO - COMARCA; PATROCINIO-PJ-02PJ 17.413,92 5.224,18 0,00 0,00 0,00 0,00 498,04 8.688,92 31.825,06 3.415,31 4.312,63 0,00 0,00 7.727,94 24.097,12 31/01/2022
392 697800 BRUNO GAZZOLA BEZERRA FALCAO ASSESSOR PROCURADOR JUSTICA BELO HORIZONTE - COMARCA; PROCURADOR-GERAL ADJUNTO JURIDICO- GABINETE 0,00 0,00 7.187,72 0,00 2.395,91 0,00 0,00 1.717,00 11.300,63 828,38 1.867,78 0,00 0,00 2.696,16 8.604,47 31/01/2022
393 378300 BRUNO HERDY LOPES DE OLIVEIRA ANALISTA DO MP GOVERNADOR VALADARES - COMARCA; GOVERNADOR VALADARES-PJ-03PJ 14.790,66 2.958,13 0,00 0,00 0,00 0,00 520,63 7.396,61 25.666,03 2.633,02 3.287,48 0,00 0,00 5.920,50 19.745,53 31/01/2022
394 529700 BRUNO JOSE BUENO DIAS OFICIAL DO MP SÃO SEBASTIÃO DO PARAÍSO - COMARCA; SAO SEBASTIAO DO PARAISO-PJ-02PJ 6.123,79 612,38 0,00 0,00 0,00 0,00 543,38 7.644,83 14.924,38 872,76 690,94 0,00 0,00 1.563,70 13.360,68 31/01/2022
395 691600 BRUNO JOSE RIBEIRO ASSESSOR PROMOTOR JUSTICA CLÁUDIO - COMARCA; CLAUDIO-PJ-UNPJ 0,00 0,00 7.187,72 0,00 0,00 0,00 0,00 1.717,00 8.904,72 828,38 1.208,91 0,00 0,00 2.037,29 6.867,43 31/01/2022
396 350100 BRUNO LAUD SERRANO DOS REIS OFICIAL DO MP UBÁ - COMARCA; UBA-PJ-02PJ 9.752,14 2.925,64 0,00 0,00 0,00 0,00 511,34 7.295,22 20.484,34 1.821,66 2.063,94 0,00 0,00 3.885,60 16.598,74 31/01/2022
397 373800 BRUNO MARTINO DE ALBUQUERQUE ANALISTA DO MP PONTE NOVA - COMARCA; PONTE NOVA-PJ-03PJ 14.790,66 2.958,13 0,00 0,00 0,00 0,00 520,63 7.396,61 25.666,03 2.633,02 3.183,20 0,00 0,00 5.816,22 19.849,81 31/01/2022
398 470400 BRUNO NOVAIS CABRAL ANALISTA DO MP MUTUM - COMARCA; MUTUM-PJ-UNPJ 10.069,62 2.013,92 0,00 0,00 0,00 0,00 531,68 8.286,49 20.901,71 1.726,58 1.874,53 0,00 0,00 3.601,11 17.300,60 31/01/2022
399 648600 BRUNO RIBEIRO E MELO ASSESSOR BELO HORIZONTE - COMARCA; DIR RELACOES INSTITUCIONAIS 0,00 0,00 8.170,49 0,00 2.723,50 0,00 539,25 7.599,75 19.032,99 828,38 2.228,13 0,00 0,00 3.056,51 15.976,48 31/01/2022
400 369200 BRUNO ROBERTO DIAS DE OLIVEIRA OFICIAL DO MP BELO HORIZONTE - COMARCA; BH-22PJ PES COM DEF E IDOSOS-SECRETARIA 10.069,62 2.013,92 0,00 0,00 0,00 0,00 531,68 7.517,10 20.132,32 907,05 2.101,13 0,00 0,00 3.008,18 17.124,14 31/01/2022
401 547700 BRUNO ROBERTO SOUZA GONCALVES ANALISTA DO MP PARACATU - COMARCA; PARACATU-PJ-03PJ 9.444,70 944,47 0,00 0,00 0,00 0,00 0,00 3.255,78 13.644,95 1.455,48 1.587,40 0,00 0,00 3.042,88 10.602,07 31/01/2022
402 546100 BRUNO SA VIEIRA ANALISTA DO MP BARBACENA - COMARCA; BARBACENA-PJ-SECRETARIA 9.444,70 944,47 0,00 0,00 0,00 0,00 533,31 8.304,33 19.226,81 1.455,48 1.535,27 0,00 0,00 2.990,75 16.236,06 31/01/2022
403 438200 BRUNO SALES PEREIRA ANALISTA DO MP BELO HORIZONTE - COMARCA; CENTRAL DE APOIO TECNICO-SETOR CONTABIL 12.601,30 2.520,26 0,00 0,00 0,00 0,00 499,01 7.930,15 23.550,72 2.212,66 2.628,45 0,00 0,00 4.841,11 18.709,61 31/01/2022
404 537400 BRUNO SANT'ANA CESAR ANALISTA DO MP CONTAGEM - COMARCA; CONTAGEM-PJ-21PJ 9.444,70 944,47 0,00 0,00 0,00 0,00 533,31 7.534,94 18.457,42 1.455,48 1.587,40 0,00 0,00 3.042,88 15.414,54 31/01/2022
405 405800 CAIO FERNANDO RODRIGUES DE OLIVEIRA ANALISTA DO MP BELO HORIZONTE - COMARCA; GABINETE DE PROCURADOR DE JUSTIÇA - SALA 805 14.324,23 2.864,85 0,00 0,00 0,00 0,00 504,21 7.217,51 24.910,80 927,17 3.505,43 0,00 0,00 4.432,60 20.478,20 31/01/2022
406 530000 CAIO GUEDES DE OLIVEIRA ANALISTA DO MP DIAMANTINA - COMARCA; DIAMANTINA-PJ-02PJ 10.069,62 1.006,96 0,00 0,00 0,00 0,00 406,14 6.917,02 18.399,74 1.565,47 1.694,06 0,00 0,00 3.259,53 15.140,21 31/01/2022
407 491400 CAIO MIRANDA JUNQUEIRA ANALISTA DO MP BUENO BRANDAO - COMARCA; BUENO BRANDAO-PJ-UNPJ 10.069,62 2.013,92 0,00 0,00 4.027,85 0,00 0,00 1.717,00 17.828,39 1.726,58 2.982,19 0,00 0,00 4.708,77 13.119,62 31/01/2022
408 415800 CAMILA ALVES DA SILVA ANALISTA DO MP CAETÉ - COMARCA; CAETE-PJ-01PJ 14.324,23 2.864,85 0,00 0,00 0,00 0,00 504,21 7.217,51 24.910,80 2.543,47 3.158,18 0,00 0,00 5.701,65 19.209,15 31/01/2022
409 555800 CAMILA CAROLINE ROCHA CHAVES OFICIAL DO MP SALINAS - COMARCA; SALINAS-PJ-01PJ 6.123,79 612,38 0,00 0,00 0,00 0,00 246,99 4.411,47 11.394,63 872,76 743,08 0,00 0,00 1.615,84 9.778,79 31/01/2022
410 445200 CAMILA CONDE ROCHA ANALISTA DO MP CONTAGEM - COMARCA; CONTAGEM-PJ-08PJ 10.736,08 2.147,22 0,00 0,00 0,00 0,00 519,63 7.385,65 20.788,58 1.854,54 2.421,60 0,00 0,00 4.276,14 16.512,44 31/01/2022
411 419900 CAMILA CUNNINGHAM PIMENTA DE PADUA ANALISTA DO MP BELO HORIZONTE - COMARCA; ASSESSORIA PSICOSSOCIAL 14.324,23 2.864,85 0,00 0,00 0,00 0,00 0,00 1.717,00 18.906,08 2.543,47 3.158,18 0,00 0,00 5.701,65 13.204,43 31/01/2022
412 714200 CAMILA DE SOUSA CUNHA ASSESSOR PROMOTOR JUSTICA PRADOS - COMARCA; PRADOS-PJ-UNPJ 0,00 0,00 7.187,72 0,00 0,00 0,00 0,00 1.717,00 8.904,72 828,38 1.208,91 0,00 0,00 2.037,29 6.867,43 31/01/2022
413 507700 CAMILA ELIZABETH RODRIGUES ANALISTA DO MP BELO HORIZONTE - COMARCA; BH-02PJ FAMILIA-SECRETARIA 11.085,56 2.217,11 0,00 0,00 0,00 0,00 0,00 1.717,00 15.019,67 1.921,64 2.260,42 0,00 0,00 4.182,06 10.837,61 31/01/2022
414 372700 CAMILA FONSECA LIMONGE ANALISTA DO MP BETIM - COMARCA; BETIM-PJ-01PJ 14.790,66 2.958,13 0,00 0,00 0,00 0,00 520,63 7.396,61 25.666,03 2.633,02 3.287,48 0,00 0,00 5.920,50 19.745,53 31/01/2022
415 621300 CAMILA GOLFETO DE SOUSA VALENTE OFICIAL DO MP CARANGOLA - COMARCA; CARANGOLA-PJ-SECRETARIA 5.930,75 593,08 0,00 0,00 0,00 0,00 526,26 8.611,51 15.661,60 839,85 589,46 0,00 0,00 1.429,31 14.232,29 31/01/2022
416 409800 CAMILA GONCALVES COSTA RIBEIRO ANALISTA DO MP INHAPIM - COMARCA; INHAPIM-PJ-02PJ 10.069,62 2.013,92 0,00 0,00 0,00 0,00 443,06 7.319,81 19.846,41 1.726,58 1.926,67 0,00 0,00 3.653,25 16.193,16 31/01/2022
417 335000 CAMILA GONTIJO DE PAIVA ANALISTA DO MP BELO HORIZONTE - COMARCA; COORD DE CONTROLE CONSTITUCIONALIDADE 16.750,82 5.025,25 0,00 0,00 0,00 0,00 0,00 1.717,00 23.493,07 3.277,38 4.165,64 0,00 0,00 7.443,02 16.050,05 31/01/2022
418 693400 CAMILA HECKSHER MONTEIRO ASSESSOR PROCURADOR JUSTICA BELO HORIZONTE - COMARCA; GABINETE DE PROCURADOR DE JUSTIÇA - SALA 613 0,00 0,00 7.187,72 0,00 0,00 0,00 0,00 1.717,00 8.904,72 828,38 1.208,91 0,00 0,00 2.037,29 6.867,43 31/01/2022
419 696000 CAMILA IMACULADA OLIVEIRA ASSESSOR PROCURADOR JUSTICA BELO HORIZONTE - COMARCA; GABINETE DE PROCURADOR DE JUSTIÇA - SALA 816 0,00 0,00 7.187,72 0,00 0,00 0,00 0,00 1.717,00 8.904,72 828,38 1.208,91 0,00 0,00 2.037,29 6.867,43 31/01/2022
420 547800 CAMILA MATTARELLI DE ABREU E SILVA ANALISTA DO MP BELO HORIZONTE - COMARCA; CAO-VIOLENCIA DOMESTICA E FAMILIAR 9.444,70 944,47 0,00 0,00 0,00 0,00 0,00 1.717,00 12.106,17 1.455,48 1.587,40 0,00 0,00 3.042,88 9.063,29 31/01/2022
421 430000 CANDIDA MARINA COSTA ANALISTA DO MP BELO HORIZONTE - COMARCA; DIVISAO DE DOCUMENTACAO JURIDICA 14.324,23 2.864,85 0,00 0,00 0,00 0,00 0,00 1.717,00 18.906,08 2.543,47 3.158,18 0,00 0,00 5.701,65 13.204,43 31/01/2022
422 614300 CARINA CORTIELHA OFICIAL DO MP BELO HORIZONTE - COMARCA; BH-23PJ CIVEL-SEC EXP CIVEIS 5.387,19 538,72 0,00 0,00 0,00 0,00 543,21 7.642,91 14.112,03 749,48 554,16 0,00 0,00 1.303,64 12.808,39 31/01/2022
423 380400 CARINA DIAS FACANHA DE SOUZA ANALISTA DO MP SANTA RITA DO SAPUCAÍ - COMARCA; SANTA RITA DO SAPUCAI-PJ-SECRETARIA 14.790,66 2.958,13 0,00 0,00 0,00 0,00 0,00 1.717,00 19.465,79 2.633,02 3.287,48 0,00 0,00 5.920,50 13.545,29 31/01/2022
424 698300 CARINA ESTEPHANY FAVATO FERREIRA JUSTE ASSESSOR PROCURADOR JUSTICA BELO HORIZONTE - COMARCA; PROC. JUSTICA DIR. DIFUSOS E COLETIVOS-SEC 0,00 0,00 7.187,72 0,00 0,00 0,00 0,00 1.717,00 8.904,72 828,38 1.208,91 0,00 0,00 2.037,29 6.867,43 31/01/2022
425 255000 CARLA ADRIANA DE MENEZES OFICIAL DO MP BELO HORIZONTE - COMARCA; CENT DE APOIO TEC-SETOR DEF,IDOSO E INFANC 10.069,62 3.020,89 0,00 0,00 0,00 0,00 527,98 7.476,82 21.095,31 1.887,70 2.211,41 0,00 0,00 4.099,11 16.996,20 31/01/2022
426 425100 CARLA ADRIANA DINIZ AMARAL OFICIAL DO MP CONTAGEM - COMARCA; CONTAGEM-PJ-SECRETARIA 8.858,43 1.771,69 0,00 0,00 0,00 0,00 545,68 7.669,87 18.845,67 1.494,03 1.643,06 0,00 0,00 3.137,09 15.708,58 31/01/2022
427 508100 CARLA ALESSANDRA FONSECA ANALISTA DO MP BELO HORIZONTE - COMARCA; CAO-ORDEM ECONOMICA E TRIBUTARIA-SECRETARIA 10.069,62 2.013,92 0,00 0,00 0,00 0,00 531,68 7.517,10 20.132,32 1.726,58 1.978,80 0,00 0,00 3.705,38 16.426,94 31/01/2022
428 607100 CARLA ANGELICA DIAS MIRANDA OFICIAL DO MP JABOTICATUBAS - COMARCA; JABOTICATUBAS-PJ-UNPJ 6.123,79 612,38 0,00 0,00 0,00 0,00 0,00 1.717,00 8.453,17 872,76 586,67 0,00 0,00 1.459,43 6.993,74 31/01/2022
429 351500 CARLA APARECIDA MENDES RAMIRIO OFICIAL DO MP PASSOS - COMARCA; PASSOS-PJ-01PJ 10.069,62 3.020,89 0,00 0,00 4.363,50 0,00 0,00 1.717,00 19.171,01 1.887,70 3.359,24 0,00 0,00 5.246,94 13.924,07 31/01/2022
430 713100 CARLA DOS SANTOS SOUZA ASSESSOR PROMOTOR JUSTICA ESPERA FELIZ - COMARCA; ESPERA FELIZ-PJ-UNPJ 0,00 0,00 7.187,72 0,00 0,00 0,00 0,00 1.717,00 8.904,72 828,38 1.208,91 0,00 0,00 2.037,29 6.867,43 31/01/2022
431 442800 CARLA GONCALVES COSTA SOALHEIRO ANALISTA DO MP GOVERNADOR VALADARES - COMARCA; GOVERNADOR VALADARES-PJ-11PJ 10.069,62 2.013,92 0,00 0,00 0,00 0,00 443,06 7.088,99 19.615,59 1.726,58 1.926,67 0,00 0,00 3.653,25 15.962,34 31/01/2022
432 321500 CARLA GONCALVES MASSOTE OFICIAL DO MP CAMPO BELO - COMARCA; CAMPO BELO-PJ-02PJ 10.069,62 3.020,89 0,00 0,00 0,00 0,00 0,00 1.717,00 14.807,51 1.887,70 2.211,41 0,00 0,00 4.099,11 10.708,40 31/01/2022
433 429200 CARLA HAUTEQUESTT BECHARA COORDENADOR/ANALISTA BELO HORIZONTE - COMARCA; DIRET DE INFORMACAO E CONHECIMENTO-DINC/CEAF 14.324,23 2.864,85 2.687,03 0,00 0,00 0,00 0,00 1.717,00 21.593,11 2.543,47 3.897,12 0,00 0,00 6.440,59 15.152,52 31/01/2022
434 247500 CARLA MATILDE GUIMARAES DE OLIVEIRA OFICIAL DO MP ITAJUBA - COMARCA; ITAJUBA-PJ-SECRETARIA 10.069,62 4.027,85 0,00 0,00 0,00 0,00 0,00 1.717,00 15.814,47 2.048,81 2.391,88 0,00 0,00 4.440,69 11.373,78 31/01/2022
435 226100 CARLA MERLI DA CONCEICAO ANALISTA DO MP BELO HORIZONTE - COMARCA; CENTRAL DE APOIO TECNICO-SETOR CONTABIL 18.820,14 5.646,04 0,00 0,00 0,00 0,00 0,00 1.717,00 26.183,18 3.707,80 4.787,06 0,00 0,00 8.494,86 17.688,32 31/01/2022
436 181401 CARLO MICHEL GAUDENSI COELHO ANALISTA DO MP BELO HORIZONTE - COMARCA; BH-08PJ JUIZADO ESPECIAL-SECRETARIA 13.011,52 5.204,61 0,00 0,00 0,00 0,00 534,34 7.546,16 26.296,63 2.707,79 3.395,43 0,00 0,00 6.103,22 20.193,41 31/01/2022
437 634000 CARLOS ALBERTO AMORMINO TRIGUEIRO ANALISTA DO MP BELO HORIZONTE - COMARCA; DIRET DE APOIO AS PROCURADORIAS DE JUSTICA 8.436,53 843,65 0,00 0,00 3.093,39 0,00 0,00 2.486,39 14.859,96 927,17 2.181,03 0,00 0,00 3.108,20 11.751,76 31/01/2022
438 637900 CARLOS ALBERTO DE MOURA OFICIAL DO MP SETE LAGOAS - COMARCA; SETE LAGOAS-PJ-07PJ 5.387,19 538,72 0,00 0,00 0,00 0,00 0,00 1.717,00 7.642,91 749,48 502,02 0,00 0,00 1.251,50 6.391,41 31/01/2022
439 638700 CARLOS ALBERTO FERREIRA BRAGA ANALISTA DO MP VESPASIANO - COMARCA; VESPASIANO-PJ-06PJ 8.436,53 843,65 0,00 0,00 0,00 0,00 544,44 7.656,32 17.480,94 927,17 1.323,44 0,00 0,00 2.250,61 15.230,33 31/01/2022
440 375801 CARLOS ALBERTO ROCHA ANALISTA DO MP VARGINHA - COMARCA; GAECO REGIONAL DE VARGINHA 10.069,62 1.006,96 0,00 0,00 0,00 0,00 0,00 2.486,39 13.562,97 1.565,47 1.746,20 0,00 0,00 3.311,67 10.251,30 31/01/2022
441 462800 CARLOS ANDREI SOARES FAGUNDES ANALISTA DO MP MONTES CLAROS - COMARCA; MONTES CLAROS-PJ-09PJ 10.069,62 2.013,92 0,00 0,00 0,00 0,00 531,68 7.517,10 20.132,32 1.726,58 1.926,67 0,00 0,00 3.653,25 16.479,07 31/01/2022
442 370300 CARLOS AUGUSTO BUENO DIAS ASSESSOR BELO HORIZONTE - COMARCA; SUPERINTENDÊNCIA DE ENGENHARIA E ARQUITETURA 0,00 0,00 10.397,52 0,00 0,00 0,00 533,74 7.539,61 18.470,87 828,38 1.447,53 0,00 0,00 2.275,91 16.194,96 31/01/2022
443 505100 CARLOS CEZAR CARVALHO ANALISTA DO MP CONTAGEM - COMARCA; CONTAGEM-PJ-02PJ 10.069,62 4.027,85 0,00 0,00 0,00 0,00 0,00 1.717,00 15.814,47 2.048,81 2.339,75 0,00 0,00 4.388,56 11.425,91 31/01/2022
444 195900 CARLOS DE SOUZA FERREIRA OFICIAL DO MP COROMANDEL - COMARCA; COROMANDEL-PJ-01PJ 10.069,62 8.055,69 0,00 0,00 0,00 2.693,26 0,00 1.717,00 22.535,57 2.693,26 4.115,10 0,00 0,00 6.808,36 15.727,21 31/01/2022
445 196800 CARLOS EDUARDO DE OLIVEIRA MARINHO OFICIAL DO MP ALPINÓPOLIS - COMARCA; ALPINOPOLIS-PJ-UNPJ 16.750,82 11.725,57 0,00 0,00 0,00 0,00 522,07 7.412,28 36.410,74 4.349,44 5.713,42 0,00 0,00 10.062,86 26.347,88 31/01/2022
446 650800 CARLOS EDUARDO NIZA DA SILVA OFICIAL DO MP IGARAPÉ - COMARCA; IGARAPE-PJ-01PJ 4.817,57 481,76 0,00 0,00 0,00 0,00 291,46 5.665,99 11.256,78 773,21 323,42 0,00 0,00 1.096,63 10.160,15 31/01/2022
447 491800 CARLOS EDUARDO ROMAN OFICIAL DO MP BARBACENA - COMARCA; BARBACENA-PJ-09PJ 7.912,85 1.582,57 0,00 0,00 0,00 0,00 0,00 1.717,00 11.212,42 1.312,48 1.380,95 0,00 0,00 2.693,43 8.518,99 31/01/2022
448 299300 CARLOS HENRIQUE BICALHO ANALISTA DO MP BELO HORIZONTE - COMARCA; BH-17PJ PATRIMONIO PUBLICO-SECRETARIA 18.103,37 7.241,35 0,00 0,00 0,00 0,00 464,65 7.555,33 33.364,70 3.848,37 5.042,14 0,00 0,00 8.890,51 24.474,19 31/01/2022
449 205100 CARLOS HENRIQUE ESTEVES OFICIAL DO MP ITAMBACURI - COMARCA; ITAMBACURI-PJ-01PJ 16.750,82 6.700,33 0,00 0,00 0,00 0,00 515,93 7.345,28 31.312,36 3.545,40 4.552,58 0,00 0,00 8.097,98 23.214,38 31/01/2022
450 351600 CARLOS HENRIQUE FELICIO DA FONSECA OFICIAL DO MP JUIZ DE FORA - COMARCA; JUIZ DE FORA-PJ-21PJ 10.069,62 3.020,89 0,00 0,00 0,00 0,00 527,98 7.476,82 21.095,31 1.887,70 2.159,28 0,00 0,00 4.046,98 17.048,33 31/01/2022
451 85400 CARLOS JOSE VIEIRA OFICIAL DO MP BELO HORIZONTE - COMARCA; DIRETORIA DO COLEGIO E DA CAMARA DE PJ 23.757,25 19.005,81 0,00 0,00 0,00 0,00 520,11 7.390,96 50.674,13 5.467,17 7.379,28 7.300,84 0,00 20.147,29 30.526,84 31/01/2022
452 229100 CARLOS MERCES DE OLIVEIRA ANALISTA DO MP BELO HORIZONTE - COMARCA; CENTRAL DE APOIO TECN-SETOR DE MEIO AMBIENTE 18.820,14 7.528,06 0,00 0,00 0,00 0,00 0,00 1.717,00 28.065,20 4.008,93 4.128,86 0,00 0,00 8.137,79 19.927,41 31/01/2022
453 538300 CARLOS RANGEL SILVA DE MELO ANALISTA DO MP BELO HORIZONTE - COMARCA; DIVISAO DE CONTROLE IMOBILIARIO 9.444,70 2.833,41 0,00 0,00 0,00 0,00 0,00 2.486,39 14.764,50 1.757,71 2.023,75 0,00 0,00 3.781,46 10.983,04 31/01/2022
454 265100 CARLOS REIFF MIRANDA ANALISTA DO MP BELO HORIZONTE - COMARCA; BH-19PJ SAUDE-SECRETARIA 150PJ 18.820,14 5.646,04 0,00 0,00 0,00 0,00 0,00 1.717,00 26.183,18 3.707,80 4.839,19 0,00 0,00 8.546,99 17.636,19 31/01/2022
455 305400 CARLOS ROCHA DE SOUZA OFICIAL DO MP MONTALVÂNIA - COMARCA; MONTALVANIA-PJ-SECRETARIA 6.123,79 1.837,14 0,00 0,00 0,00 0,00 525,42 7.448,87 15.935,22 1.066,96 817,93 0,00 0,00 1.884,89 14.050,33 31/01/2022
456 399900 CARMELITA EVANGELISTA DE SOUZA OFICIAL DO MP JOÃO PINHEIRO - COMARCA; JOAO PINHEIRO-PJ-01PJ 8.579,10 1.715,82 0,00 0,00 0,00 0,00 528,47 7.482,16 18.305,55 1.440,40 1.565,63 0,00 0,00 3.006,03 15.299,52 31/01/2022
457 202000 CARMEN LUCIA MARIZ DE MACEDO OFICIAL DO MP BELO HORIZONTE - COMARCA; DIRETORIA GESTAO COMPRAS LICITACOES 15.272,02 10.690,41 0,00 0,00 0,00 0,00 0,00 1.717,00 27.679,43 3.947,20 5.080,55 0,00 0,00 9.027,75 18.651,68 31/01/2022
458 701900 CAROLINA CARVALHO COSTA ASSESSOR PROCURADOR JUSTICA BELO HORIZONTE - COMARCA; GABINETE DE PROCURADOR DE JUSTIÇA - SALA 811 0,00 0,00 7.187,72 0,00 0,00 0,00 0,00 1.717,00 8.904,72 828,38 1.208,91 0,00 0,00 2.037,29 6.867,43 31/01/2022
459 228500 CAROLINA CHIARELLA DOS SANTOS RIBEIRO COORDENADOR/OFICIAL BELO HORIZONTE - COMARCA; DIVISAO TRANSPORTES 0,00 3.545,75 11.819,15 0,00 0,00 0,00 0,00 1.717,00 17.081,90 1.887,70 2.732,60 0,00 0,00 4.620,30 12.461,60 31/01/2022
460 446500 CAROLINA COSTA VAL RODRIGUES COORDENADOR/ANALISTA BELO HORIZONTE - COMARCA; DIVISAO DE MATERIAIS 13.011,52 2.602,30 2.363,83 0,00 0,00 0,00 527,34 7.469,85 25.974,84 2.291,42 3.444,35 0,00 0,00 5.735,77 20.239,07 31/01/2022
461 603501 CAROLINA DOMINGOS BRANDAO RABELLO ANALISTA DO MP BARROSO - COMARCA; BARROSO-PJ-01PJ 9.444,70 944,47 0,00 0,00 0,00 0,00 0,00 1.717,00 12.106,17 1.455,48 1.587,40 0,00 0,00 3.042,88 9.063,29 31/01/2022
462 404300 CAROLINA DOS SANTOS VIEIRA ANALISTA DO MP BELO HORIZONTE - COMARCA; BH-08PJ JUIZADO ESPECIAL-SECRETARIA 14.790,66 2.958,13 0,00 0,00 0,00 0,00 0,00 1.717,00 19.465,79 2.633,02 3.183,20 0,00 0,00 5.816,22 13.649,57 31/01/2022
463 551200 CAROLINA LOPES ARANTES MASCARENHAS ANALISTA DO MP BELO HORIZONTE - COMARCA; EXTINTA-COORD EST DEF DIR FAM PES DEFIC IDOSO 9.444,70 944,47 0,00 0,00 0,00 0,00 0,00 2.486,39 12.875,56 1.455,48 1.483,13 0,00 0,00 2.938,61 9.936,95 31/01/2022
464 622600 CAROLINA LOREDO LOPES CATIZANI OFICIAL DO MP RIBEIRÃO DAS NEVES - COMARCA; RIBEIRAO DAS NEVES-PJ-12PJ 5.387,19 538,72 0,00 0,00 0,00 0,00 543,21 7.642,91 14.112,03 749,48 554,16 0,00 0,00 1.303,64 12.808,39 31/01/2022
465 382200 CAROLINA MENDES CHAVES LIN ANALISTA DO MP BELO HORIZONTE - COMARCA; BH-12PJ JUIZO CRIMINAL-GAB 088PJ 10.069,62 2.013,92 0,00 0,00 0,00 0,00 0,00 2.486,39 14.569,93 1.726,58 1.926,67 0,00 0,00 3.653,25 10.916,68 31/01/2022
466 461900 CAROLINA MURTA TEIXEIRA DIAS ANALISTA DO MP BELO HORIZONTE - COMARCA; CENTRO AUTOCOMPOSICAO DE CONFLITOS 10.069,62 2.013,92 0,00 0,00 8.055,70 0,00 0,00 1.717,00 21.856,24 1.726,58 4.194,12 0,00 0,00 5.920,70 15.935,54 31/01/2022
467 509600 CAROLINA PINTO DE OLIVEIRA SOUZA ANALISTA DO MP MURIAÉ - COMARCA; MURIAE-PJ-01PJ 10.069,62 2.013,92 0,00 0,00 0,00 0,00 531,68 8.286,49 20.901,71 1.726,58 1.874,53 0,00 0,00 3.601,11 17.300,60 31/01/2022
468 629100 CAROLINA RODRIGUES AMARAL ANALISTA DO MP BELO HORIZONTE - COMARCA; PROC. JUSTICA DIR. DIFUSOS E COLETIVOS-SEC 9.146,93 914,69 0,00 0,00 0,00 0,00 0,00 1.717,00 11.778,62 1.403,07 1.511,74 0,00 0,00 2.914,81 8.863,81 31/01/2022
469 502600 CAROLINA RODRIGUES RUBEN ANALISTA DO MP BELO HORIZONTE - COMARCA; BH-18PJ VIOLENCIA DOMESTICA-GAB 007PJ 10.069,62 2.013,92 0,00 0,00 4.027,85 0,00 531,68 9.055,88 25.698,95 1.726,58 2.982,19 0,00 0,00 4.708,77 20.990,18 31/01/2022
470 529600 CAROLINA VAZ DE MELO MAMBRINI ANALISTA DO MP BELO HORIZONTE - COMARCA; BH-14PJ DEFESA CONSUMIDOR-GAB 005PJ 9.444,70 944,47 0,00 0,00 0,00 0,00 0,00 1.717,00 12.106,17 1.455,48 1.587,40 0,00 0,00 3.042,88 9.063,29 31/01/2022
471 619100 CAROLINA ZAKHIA NARDELLI RODRIGUES ANALISTA DO MP NEPOMUCENO - COMARCA; NEPOMUCENO-PJ-UNPJ 9.146,93 914,69 0,00 0,00 3.353,87 0,00 516,50 8.120,90 22.052,89 1.403,07 2.434,05 0,00 0,00 3.837,12 18.215,77 31/01/2022
472 517600 CAROLINE ALVES DE OLIVEIRA MULLER ANALISTA DO MP VISCONDE DO RIO BRANCO - COMARCA; VISCONDE DO RIO BRANCO-PJ-01PJ 10.069,62 2.013,92 0,00 845,84 335,65 0,00 1.538,64 7.517,10 22.320,77 1.887,69 2.159,27 0,00 0,00 4.046,96 18.273,81 31/01/2022
473 373200 CAROLINE ANTUNES RIBEIRO OFICIAL DO MP JACUI - COMARCA; JACUI-PJ-UNPJ 9.146,93 1.829,39 0,00 0,00 0,00 0,00 523,20 7.424,69 18.924,21 1.549,42 1.618,76 0,00 0,00 3.168,18 15.756,03 31/01/2022
474 556800 CAROLINE DE SOUZA CARDOSO DOMINGUES OFICIAL DO MP BRASÍLIA DE MINAS - COMARCA; BRASILIA DE MINAS-PJ-02PJ 6.123,79 612,38 0,00 0,00 0,00 0,00 0,00 1.717,00 8.453,17 872,76 743,08 0,00 0,00 1.615,84 6.837,33 31/01/2022
475 499400 CAROLINE MARQUES DE LOURDES MARZULLO OFICIAL DO MP JUIZ DE FORA - COMARCA; JUIZ DE FORA-PJ-08PJ 7.912,85 1.582,57 0,00 0,00 0,00 0,00 0,00 2.870,54 12.365,96 1.005,27 1.437,24 0,00 0,00 2.442,51 9.923,45 31/01/2022
476 616800 CAROLINE MONTEIRO DE BARROS ANALISTA DO MP CONTAGEM - COMARCA; CONTAGEM-PJ-11PJ 9.146,93 914,69 0,00 0,00 3.353,87 0,00 516,50 7.351,51 21.283,50 765,05 2.548,16 0,00 0,00 3.313,21 17.970,29 31/01/2022
477 618100 CAROLINE VASCONCELOS COSTA LANZA ANALISTA DO MP PARAOPEBA - COMARCA; PARAOPEBA-PJ-UNPJ 9.146,93 914,69 0,00 0,00 0,00 0,00 0,00 4.025,17 14.086,79 1.403,07 1.511,74 0,00 0,00 2.914,81 11.171,98 31/01/2022
478 699000 CAROLLINA RODRIGUES SOUTO AMARAL ASSESSOR PROCURADOR JUSTICA BELO HORIZONTE - COMARCA; GABINETE DE PROCURADOR DE JUSTIÇA - SALA 405 0,00 0,00 7.187,72 0,00 0,00 0,00 0,00 1.717,00 8.904,72 828,38 1.208,91 0,00 0,00 2.037,29 6.867,43 31/01/2022
479 604000 CASSIA APARECIDA DA SILVA OFICIAL DO MP PARACATU - COMARCA; PARACATU-PJ-01PJ 6.123,79 612,38 0,00 0,00 0,00 0,00 0,00 1.717,00 8.453,17 872,76 743,08 0,00 0,00 1.615,84 6.837,33 31/01/2022
480 268800 CASSIA BEATRIZ TEIXEIRA OFICIAL DO MP BELO HORIZONTE - COMARCA; PROC JUST ESP ACOES COMP ORIG CRIMINAL-SEC 13.011,52 3.903,46 0,00 0,00 0,00 0,00 496,17 7.129,79 24.540,94 2.499,61 3.094,87 0,00 0,00 5.594,48 18.946,46 31/01/2022
481 500000 CASSIA DE OLIVEIRA COSTA VIANA ANALISTA DO MP SETE LAGOAS - COMARCA; SETE LAGOAS-PJ-09PJ 10.069,62 5.034,81 0,00 0,00 0,00 0,00 0,00 1.717,00 16.821,43 2.209,92 2.676,63 0,00 0,00 4.886,55 11.934,88 31/01/2022
482 368800 CASSIA LUISA BATISTA MENDONCA WEBER OFICIAL DO MP BELO HORIZONTE - COMARCA; DIVISÃO DE EDUCAÇÃO PARA O CONSUMO 8.436,53 1.687,31 0,00 0,00 0,00 0,00 0,00 1.717,00 11.840,84 1.413,03 1.526,11 0,00 0,00 2.939,14 8.901,70 31/01/2022
483 622200 CASSIA VAZ DE AZEVEDO LISBOA MARZANO ASSESSOR BELO HORIZONTE - COMARCA; CGMP-SECRETARIA DA CORREGEDORIA-GERAL DO MP 0,00 0,00 3.076,28 0,00 0,00 0,00 138,43 4.332,16 7.546,87 492,00 127,23 0,00 0,00 619,23 6.927,64 31/01/2022
484 121000 CASSIO HENRIQUE AFONSO DA SILVA OFICIAL DO MP BELO HORIZONTE - COMARCA; CGMP-ASSESSORIA JURIDICA 18.820,14 13.174,10 0,00 0,00 0,00 0,00 0,00 1.717,00 33.711,24 4.912,29 6.473,90 0,00 0,00 11.386,19 22.325,05 31/01/2022
485 512001 CATARINA NATALINO CALIXTO COORDENADOR/ANALISTA BELO HORIZONTE - COMARCA; DIRETORIA GESTAO TRANSPORTES 0,00 1.343,52 13.435,16 -210,99 0,00 0,00 0,00 1.717,00 16.284,69 1.403,07 2.382,15 0,00 1.551,94 5.337,16 10.947,53 31/01/2022
486 606200 CATARINE DE SIQUEIRA DE QUADROS ANALISTA DO MP CONTAGEM - COMARCA; CONTAGEM-PJ-07PJ 9.444,70 944,47 0,00 0,00 0,00 0,00 533,31 8.304,33 19.226,81 1.455,48 1.483,13 0,00 0,00 2.938,61 16.288,20 31/01/2022
487 622300 CECILIA APARECIDA PEREIRA ASSUNCAO OFICIAL DO MP TRÊS PONTAS - COMARCA; TRES PONTAS-PJ-SECRETARIA 5.930,75 593,08 0,00 0,00 2.174,61 0,00 526,26 8.227,36 17.452,06 839,85 1.239,62 0,00 0,00 2.079,47 15.372,59 31/01/2022
488 538000 CECILIA FONTES DE MATOS PIMENTEL ANALISTA DO MP PALMA - COMARCA; PALMA-PJ-UNPJ 9.444,70 944,47 0,00 0,00 0,00 0,00 0,00 2.486,39 12.875,56 1.455,48 1.587,40 0,00 0,00 3.042,88 9.832,68 31/01/2022
489 261300 CECILIO ANTONIO CAMPOS DOS REIS ANALISTA DO MP BELO HORIZONTE - COMARCA; AUDITORIA INTERNA 18.820,14 5.646,04 0,00 0,00 0,00 0,00 538,26 7.588,88 32.593,32 3.707,80 4.839,19 0,00 0,00 8.546,99 24.046,33 31/01/2022
490 386400 CEFAS AMORELI DE FIGUEIREDO OFICIAL DO MP CABO VERDE - COMARCA; CABO VERDE-PJ-SECRETARIA 6.123,79 1.224,76 0,00 0,00 0,00 0,00 0,00 1.717,00 9.065,55 968,98 885,02 0,00 0,00 1.854,00 7.211,55 31/01/2022
491 149000 CELIA MAGALHAES CLAROS SOSSI OFICIAL DO MP GOVERNADOR VALADARES - COMARCA; GAECO REGIONAL DE GOVERNADOR VALADARES 17.413,92 12.189,74 0,00 0,00 1.516,29 4.529,80 542,73 7.637,73 43.830,21 4.529,80 7.688,63 0,00 0,00 12.218,43 31.611,78 31/01/2022
492 421000 CELINA BENEDITA DE SOUZA ALMEIDA OFICIAL DO MP CAMBUÍ - COMARCA; CAMBUI-PJ-01PJ 8.858,43 4.429,21 0,00 0,00 0,00 0,00 535,93 7.563,56 21.387,13 1.919,24 2.204,81 0,00 0,00 4.124,05 17.263,08 31/01/2022
493 252900 CELIO DE MELO CASTOR ANALISTA DO MP BELO HORIZONTE - COMARCA; SUPER DE GESTAO DE PESSOAS-LOTACAO TEMPORARIA 18.820,14 5.646,04 0,00 0,00 0,00 0,00 0,00 1.717,00 26.183,18 3.707,80 4.839,19 0,00 0,00 8.546,99 17.636,19 31/01/2022
494 395700 CELIO FERREIRA LIMA OFICIAL DO MP CONTAGEM - COMARCA; CONTAGEM-PJ-SECRETARIA 9.444,70 1.888,94 0,00 0,00 0,00 0,00 0,00 1.717,00 13.050,64 1.606,60 1.753,44 0,00 0,00 3.360,04 9.690,60 31/01/2022
495 281300 CELMA REGINA PEREIRA SANTOS ANALISTA DO MP BELO HORIZONTE - COMARCA; PROMOT ESTADUAL DE DEF PATRI CULT E TUR DE MG 18.820,14 5.646,04 0,00 0,00 0,00 0,00 0,00 1.717,00 26.183,18 3.707,80 4.839,19 0,00 0,00 8.546,99 17.636,19 31/01/2022
496 535600 CELSO MEDEIROS DE PAIVA OFICIAL DO MP RIO PRETO - COMARCA; RIO PRETO-PJ-SECRETARIA 5.562,64 556,26 0,00 0,00 0,00 0,00 538,46 7.591,14 14.248,50 778,43 547,13 0,00 0,00 1.325,56 12.922,94 31/01/2022
497 367000 CESAR NARVAES DE AVELAR OFICIAL DO MP BELO HORIZONTE - COMARCA; DIVISAO DE MEMORIA INSTITUCIONAL 10.069,62 3.020,89 0,00 0,00 0,00 0,00 0,00 1.717,00 14.807,51 1.887,70 2.211,41 0,00 0,00 4.099,11 10.708,40 31/01/2022
498 226500 CESAR SILVEIRA BARROUIN OFICIAL DO MP BELO HORIZONTE - COMARCA; DIRETORIA DE ADMINISTRACAO FINANCEIRA 13.011,52 5.204,61 0,00 0,00 0,00 0,00 534,34 7.546,16 26.296,63 2.707,79 3.395,43 0,00 0,00 6.103,22 20.193,41 31/01/2022
499 121400 CEZAR MORENO CONCEICAO TAVARES OFICIAL DO MP BELO HORIZONTE - COMARCA; COORD DE INCLUSAO E MOBILIZACAO SOCIAIS 17.413,92 12.189,74 0,00 0,00 0,00 0,00 542,73 8.407,12 38.553,51 4.529,80 5.921,68 0,00 0,00 10.451,48 28.102,03 31/01/2022
500 243800 CHARLES MARTINS MUNIZ OFICIAL DO MP BELO HORIZONTE - COMARCA; LAB TECNOLOGIA CONTRA LAVAGEM DINHEIRO 13.011,52 5.204,61 0,00 0,00 0,00 0,00 534,34 7.027,16 25.777,63 2.707,79 3.395,43 0,00 0,00 6.103,22 19.674,41 31/01/2022
501 193500 CHARLIN CESAR KOURLY OFICIAL DO MP ARAGUARI - COMARCA; ARAGUARI-PJ-07PJ 16.750,82 6.700,33 0,00 0,00 0,00 0,00 515,93 7.345,28 31.312,36 3.545,40 4.604,72 0,00 0,00 8.150,12 23.162,24 31/01/2022
502 385500 CHILLEN PEIXOTO DE MOURA OFICIAL DO MP BELO HORIZONTE - COMARCA; DIVISAO DE MATERIAIS 9.444,70 1.888,94 0,00 0,00 0,00 0,00 0,00 2.486,39 13.820,03 1.606,60 1.805,58 0,00 0,00 3.412,18 10.407,85 31/01/2022
503 534500 CHRISTIAN DOUGLAS BRITO RUAS OFICIAL DO MP SÃO JOÃO DA PONTE - COMARCA; SAO JOAO DA PONTE-PJ-SECRETARIA 6.123,79 612,38 0,00 0,00 0,00 0,00 543,38 7.644,83 14.924,38 872,76 743,08 0,00 0,00 1.615,84 13.308,54 31/01/2022
504 370600 CHRISTIAN KARINE FELIX PRATES ASSESSOR BELO HORIZONTE - COMARCA; SUPRIN DE PLANEJAMENTO E COORDENACAO 0,00 0,00 10.397,52 0,00 3.465,84 0,00 0,00 1.717,00 15.580,36 828,38 3.044,71 0,00 0,00 3.873,09 11.707,27 31/01/2022
505 435800 CHRISTIANA BAHIA ANDRADE PINA ANALISTA DO MP BELO HORIZONTE - COMARCA; LABORATORIO TECNOLOGIA INTELIGENCIA 14.324,23 2.864,85 0,00 0,00 5.729,69 0,00 504,21 7.986,90 31.409,88 2.543,47 4.733,85 0,00 0,00 7.277,32 24.132,56 31/01/2022
506 516800 CHRISTIANE FERREIRA DO NASCIMENTO ANALISTA DO MP POUSO ALEGRE - COMARCA; POUSO ALEGRE-PJ-08PJ 10.069,62 2.013,92 0,00 845,84 0,00 0,00 1.006,96 1.717,00 15.653,34 1.887,69 2.211,41 0,00 0,00 4.099,10 11.554,24 31/01/2022
507 176000 CHRISTIANE JUNQUEIRA PULITI ANDRADE DE BARROS ASSESSOR BELO HORIZONTE - COMARCA; PROCURADORIA-GERAL ADJUNTA INSTITUCIONAL 0,00 13.931,13 17.413,92 0,00 0,00 4.808,42 0,00 1.717,00 37.870,47 4.808,42 7.750,53 0,00 0,00 12.558,95 25.311,52 31/01/2022
508 319200 CHRISTIANE MARIA DE ASSIS RUSSO OFICIAL DO MP BELO HORIZONTE - COMARCA; CAO-ORDEM ECONOMICA E TRIBUTARIA-SECRETARIA 12.204,02 3.661,21 0,00 0,00 0,00 0,00 0,00 2.486,39 18.351,62 2.331,65 2.800,24 0,00 0,00 5.131,89 13.219,73 31/01/2022
509 510300 CHRISTIANE MARY DE CARVALHO FERREIRA ANALISTA DO MP BELO HORIZONTE - COMARCA; DIRETORIA DE SISTEMAS DE INFORMACAO 10.069,62 2.013,92 0,00 0,00 0,00 0,00 0,00 1.717,00 13.800,54 1.726,58 1.926,67 0,00 0,00 3.653,25 10.147,29 31/01/2022
510 424900 CHRISTIANE PEREIRA TURNER DE ARAUJO OFICIAL DO MP BELO HORIZONTE - COMARCA; CAO-PATRIMONIO PUBLICO 8.858,43 1.771,69 0,00 0,00 3.543,37 0,00 545,68 8.439,26 23.158,43 1.494,03 2.513,22 0,00 0,00 4.007,25 19.151,18 31/01/2022
511 513700 CHRISTIANE VIEIRA SOARES PEDERSOLI COORDENADOR/ANALISTA BELO HORIZONTE - COMARCA; ASSESSORIA JURIDICA DO PROCON-MG 10.069,62 2.013,92 2.363,83 0,00 0,00 0,00 0,00 1.717,00 16.164,37 1.726,58 2.628,86 0,00 0,00 4.355,44 11.808,93 31/01/2022
512 412300 CHRYSTIAN MACHADO RIBEIRO ANALISTA DO MP VARGINHA - COMARCA; VARGINHA-PJ-04PJ 14.324,23 2.864,85 0,00 0,00 0,00 0,00 504,21 7.217,51 24.910,80 2.543,47 3.158,18 0,00 0,00 5.701,65 19.209,15 31/01/2022
513 513800 CHRYSTIANE DO NASCIMENTO DE MAGALHAES OFICIAL DO MP UBERLÂNDIA - COMARCA; UBERLANDIA-PJ-10PJ 7.663,37 1.532,67 0,00 0,00 3.065,35 0,00 539,50 7.602,47 20.403,36 1.264,58 2.050,49 0,00 0,00 3.315,07 17.088,29 31/01/2022
514 497900 CIBELE DE FREITAS SANCHES DIAS ANALISTA DO MP SABARÁ - COMARCA; SABARA-PJ-03PJ 10.069,62 2.013,92 0,00 0,00 0,00 0,00 531,68 7.517,10 20.132,32 399,90 2.188,46 0,00 0,00 2.588,36 17.543,96 31/01/2022
515 500900 CIBELLE SILVA PRADO ALVARENGA ANALISTA DO MP ITANHANDU - COMARCA; ITANHANDU-PJ-UNPJ 10.069,62 2.013,92 0,00 0,00 0,00 0,00 0,00 2.537,68 14.621,22 1.726,58 1.978,80 0,00 0,00 3.705,38 10.915,84 31/01/2022
516 705300 CICERO HELENO PEREIRA SILVA ASSESSOR PROMOTOR JUSTICA CORINTO - COMARCA; CORINTO-PJ-UNPJ 0,00 0,00 7.187,72 0,00 0,00 0,00 0,00 1.717,00 8.904,72 828,38 1.208,91 0,00 0,00 2.037,29 6.867,43 31/01/2022
517 296400 CINTIA APARECIDA MOREIRA NAVES E RODRIGUES ANALISTA DO MP CAMPO BELO - COMARCA; CAMPO BELO-PJ-01PJ 18.103,37 5.431,01 0,00 0,00 0,00 0,00 517,76 7.365,25 31.417,39 3.558,71 4.623,95 0,00 0,00 8.182,66 23.234,73 31/01/2022
518 407900 CINTIA NETO COMELLI ANALISTA DO MP BELO HORIZONTE - COMARCA; CENTRAL DE APOIO TECNICO-SETOR CONTABIL 14.324,23 2.864,85 0,00 0,00 0,00 0,00 0,00 1.717,00 18.906,08 2.543,47 3.106,05 0,00 0,00 5.649,52 13.256,56 31/01/2022
519 304700 CINTIA QUEIROZ OFICIAL DO MP BELO HORIZONTE - COMARCA; OUVIDORIA DO MPMG 10.069,62 3.020,89 0,00 0,00 0,00 0,00 0,00 1.717,00 14.807,51 1.887,70 2.211,41 0,00 0,00 4.099,11 10.708,40 31/01/2022
520 286100 CIRO CANGUSSU CORDEIRO OFICIAL DO MP IPATINGA - COMARCA; IPATINGA-PJ-09PJ 7.912,85 2.373,86 0,00 0,00 0,00 0,00 0,00 2.486,39 12.773,10 1.439,09 1.459,46 0,00 0,00 2.898,55 9.874,55 31/01/2022
521 689900 CISSA NOGUEIRA NUNES ASSESSOR PROCURADOR JUSTICA BELO HORIZONTE - COMARCA; GABINETE DE PROCURADOR DE JUSTIÇA - SALA 608 0,00 0,00 7.187,72 0,00 0,00 0,00 0,00 1.717,00 8.904,72 828,38 1.208,91 0,00 0,00 2.037,29 6.867,43 31/01/2022
522 681700 CLARA FERREIRA ALKIMIM ASSESSOR PROMOTOR JUSTICA PEDRA AZUL - COMARCA; PEDRA AZUL-PJ-02PJ 0,00 0,00 7.187,72 0,00 0,00 0,00 0,00 1.717,00 8.904,72 828,38 1.208,91 0,00 0,00 2.037,29 6.867,43 31/01/2022
523 695500 CLARA RODRIGUES BLACH ASSESSOR PROCURADOR JUSTICA BELO HORIZONTE - COMARCA; GABINETE DE PROCURADOR DE JUSTIÇA - SALA 1003 0,00 0,00 7.187,72 0,00 0,00 0,00 0,00 1.717,00 8.904,72 828,38 1.208,91 0,00 0,00 2.037,29 6.867,43 31/01/2022
524 412500 CLARICE GOMES MAROTTA ANALISTA DO MP BELO HORIZONTE - COMARCA; COORD ESTADUAL DE DEFESA DOS ANIMAIS 14.324,23 4.297,27 0,00 0,00 0,00 0,00 546,23 7.675,88 26.843,61 2.772,65 3.489,07 0,00 0,00 6.261,72 20.581,89 31/01/2022
525 605300 CLARISSA AZEVEDO ROCHA OFICIAL DO MP BELO HORIZONTE - COMARCA; BH-17PJ PATRIMONIO PUBLICO-SECRETARIA 6.123,79 612,38 0,00 0,00 0,00 0,00 0,00 1.717,00 8.453,17 872,76 743,08 0,00 0,00 1.615,84 6.837,33 31/01/2022
526 308100 CLARISSA DUARTE BELLONI DIRETOR/ANALISTA BELO HORIZONTE - COMARCA; DIRETORIA-GERAL 0,00 7.409,35 24.697,83 0,00 0,00 0,00 470,91 9.161,23 41.739,32 3.558,71 6.877,19 0,00 0,00 10.435,90 31.303,42 31/01/2022
527 497100 CLARISSA ROCHA GUIDI ANALISTA DO MP BELO HORIZONTE - COMARCA; BH-02PJ FAMILIA-SECRETARIA 11.085,56 2.217,11 0,00 0,00 4.434,22 0,00 0,00 3.255,78 20.992,67 1.921,64 3.427,70 0,00 0,00 5.349,34 15.643,33 31/01/2022
528 641800 CLARISSE TAVARES GONCALVES OFICIAL DO MP BELO HORIZONTE - COMARCA; BH-07PJ 01 TRIBUNAL JURI-SECRETARIA 5.387,19 538,72 0,00 0,00 0,00 0,00 0,00 1.717,00 7.642,91 749,48 554,16 0,00 0,00 1.303,64 6.339,27 31/01/2022
529 463700 CLAUDIA ADRIANA FERRAO DIAS ANALISTA DO MP SETE LAGOAS - COMARCA; SETE LAGOAS-PJ-06PJ 10.069,62 2.013,92 0,00 0,00 0,00 0,00 0,00 1.717,00 13.800,54 1.726,58 1.978,80 0,00 0,00 3.705,38 10.095,16 31/01/2022
530 415400 CLAUDIA ALMEIDA DE VASCONCELLOS BARROS ASSESSOR/OFICIAL BELO HORIZONTE - COMARCA; DIVISAO DE SERVICOS 0,00 2.079,50 10.397,52 0,00 0,00 0,00 0,00 1.717,00 14.194,02 1.789,54 2.069,70 0,00 0,00 3.859,24 10.334,78 31/01/2022
531 207000 CLAUDIA APARECIDA VILELA MACHADO ANALISTA DO MP BELO HORIZONTE - COMARCA; CENTRAL DE APOIO TECNICO-SETOR CONTABIL 18.820,14 7.528,06 0,00 0,00 0,00 0,00 483,05 6.986,64 33.817,89 4.008,93 5.117,53 0,00 0,00 9.126,46 24.691,43 31/01/2022
532 365700 CLAUDIA BREGUEZ CUNHA ANALISTA DO MP VARGINHA - COMARCA; VARGINHA-PJ-07PJ 15.272,02 4.581,61 0,00 0,00 0,00 0,00 509,58 7.276,02 27.639,23 2.969,79 3.773,69 0,00 0,00 6.743,48 20.895,75 31/01/2022
533 430500 CLAUDIA CECILIA SANTANA VENCESLAU OFICIAL DO MP BELO HORIZONTE - COMARCA; DIRETORIA DE INTELIGENCIA 8.858,43 1.771,69 0,00 0,00 3.543,37 0,00 389,77 5.969,05 20.532,31 1.494,03 2.565,35 0,00 0,00 4.059,38 16.472,93 31/01/2022
534 480400 CLAUDIA GOULART DE SOUZA OFICIAL DO MP PASSOS - COMARCA; PASSOS-PJ-06PJ 7.912,85 1.582,57 0,00 0,00 0,00 0,00 522,25 7.414,25 17.431,92 1.312,48 1.380,95 0,00 0,00 2.693,43 14.738,49 31/01/2022
535 519800 CLAUDIA HELENA CORREA DE ALMEIDA ANALISTA DO MP BELO HORIZONTE - COMARCA; BH-12PJ JUIZO CRIMINAL-GAB 096PJ 10.069,62 1.006,96 0,00 0,00 0,00 0,00 527,98 7.476,82 19.081,38 1.565,47 1.746,20 0,00 0,00 3.311,67 15.769,71 31/01/2022
536 422100 CLAUDIA IACOMINI CABRAL ANALISTA DO MP BELO HORIZONTE - COMARCA; CENT DE APOIO TEC-SETOR DEF,IDOSO E INFANC 14.324,23 10.026,96 0,00 0,00 0,00 0,00 0,00 1.717,00 26.068,19 3.689,40 4.812,63 0,00 0,00 8.502,03 17.566,16 31/01/2022
537 258200 CLAUDIA LAGE MICHALAROS ANALISTA DO MP BELO HORIZONTE - COMARCA; CENTRAL DE APOIO TECN-SETOR DE MEIO AMBIENTE 18.820,14 13.174,10 0,00 0,00 1.643,79 4.912,29 469,25 6.836,08 45.855,65 4.912,29 8.328,96 0,00 0,00 13.241,25 32.614,40 31/01/2022
538 284600 CLAUDIA LENI DE FREITAS OFICIAL DO MP CONTAGEM - COMARCA; CONTAGEM-PJ-SECRETARIA 6.123,79 2.449,52 0,00 0,00 0,00 0,00 0,00 1.717,00 10.290,31 1.164,94 1.167,94 0,00 0,00 2.332,88 7.957,43 31/01/2022
539 433600 CLAUDIA LUIZA SANTIAGO FELICIO ANALISTA DO MP BELO HORIZONTE - COMARCA; CENT DE APOIO TEC-SETOR DEF,IDOSO E INFANC 14.324,23 2.864,85 0,00 0,00 0,00 0,00 0,00 1.717,00 18.906,08 2.543,47 3.053,91 0,00 0,00 5.597,38 13.308,70 31/01/2022
540 317000 CLAUDIA MACHADO ALVES ASSESSOR/OFICIAL BELO HORIZONTE - COMARCA; DIR GOVERNANCA TECNOLOGIA INFORMACAO 0,00 3.119,26 10.397,52 -98,04 0,00 0,00 545,18 7.664,38 21.628,30 1.635,77 2.188,62 0,00 761,10 4.585,49 17.042,81 31/01/2022
541 155300 CLAUDIA MACIEL MIRANDA OFICIAL DO MP CONGONHAS - COMARCA; CONGONHAS-PJ-02PJ 17.413,92 8.706,96 0,00 0,00 0,00 0,00 478,88 6.941,18 33.540,94 3.972,55 5.117,15 0,00 0,00 9.089,70 24.451,24 31/01/2022
542 242200 CLAUDIA MICHELLE DIAS MUNIZ BALEEIRO OFICIAL DO MP MONTE AZUL - COMARCA; MONTE AZUL-PJ-SECRETARIA 13.011,52 5.204,61 0,00 0,00 0,00 0,00 534,34 7.546,16 26.296,63 2.707,79 3.343,29 0,00 0,00 6.051,08 20.245,55 31/01/2022
543 623000 CLAUDIA PATRICIA SILVA RODRIGUES RAPOSEIRAS OFICIAL DO MP PARÁ DE MINAS - COMARCA; PARA DE MINAS-PJ-02PJ 5.930,75 593,08 0,00 0,00 2.174,61 0,00 0,00 2.486,39 11.184,83 839,85 1.239,62 0,00 0,00 2.079,47 9.105,36 31/01/2022
544 418400 CLAUDIA REGINA MARTINS BONIFACIO OFICIAL DO MP ITUIUTABA - COMARCA; ITUIUTABA-PJ-06PJ 8.858,43 1.771,69 0,00 0,00 0,00 0,00 545,68 7.669,87 18.845,67 1.494,03 1.538,79 0,00 0,00 3.032,82 15.812,85 31/01/2022
545 498300 CLAUDIA SOUTO FARIAS BRAUN OFICIAL DO MP TEÓFILO OTONI - COMARCA; TEOFILO OTONI-PJ-SECRETARIA 6.123,79 1.224,76 0,00 0,00 0,00 0,00 538,89 7.595,84 15.483,28 968,98 780,75 0,00 0,00 1.749,73 13.733,55 31/01/2022
546 206500 CLAUDIA VALERIA FONSECA ANDRADE ANALISTA DO MP BELO HORIZONTE - COMARCA; BH-23PJ INF-FISC MED SOC FEC 18.820,14 9.410,07 0,00 0,00 10.846,75 4.310,05 0,00 1.717,00 45.104,01 4.310,05 9.876,80 0,00 0,00 14.186,85 30.917,16 31/01/2022
547 277500 CLAUDIO ANTONIO BORGES BRUNSWICK ALVARES OFICIAL DO MP BELO HORIZONTE - COMARCA; BH-15PJ M AMB 16PJ HAB URB-SECRETARIA 10.069,62 3.020,89 0,00 0,00 0,00 0,00 0,00 1.717,00 14.807,51 1.887,70 2.211,41 0,00 0,00 4.099,11 10.708,40 31/01/2022
548 444800 CLAUDIO ARESIO DO CARMO ANALISTA DO MP SETE LAGOAS - COMARCA; SETE LAGOAS-PJ-01PJ 11.085,56 4.434,22 0,00 0,00 0,00 0,00 512,15 7.304,12 23.336,05 2.276,38 2.720,44 0,00 0,00 4.996,82 18.339,23 31/01/2022
549 545100 CLAUDIO HENRIQUE MACEDO DE SOUZA FRANSOZO ANALISTA DO MP OURO PRETO - COMARCA; OURO PRETO-PJ-03PJ 9.444,70 944,47 0,00 0,00 0,00 0,00 0,00 2.486,39 12.875,56 801,90 1.699,04 0,00 0,00 2.500,94 10.374,62 31/01/2022
550 353500 CLAUDIO HENRIQUE PEDRO DA ROCHA OFICIAL DO MP BELO HORIZONTE - COMARCA; DIVISAO TRANSPORTES 10.069,62 3.020,89 0,00 0,00 0,00 0,00 0,00 1.717,00 14.807,51 1.887,70 2.107,14 0,00 0,00 3.994,84 10.812,67 31/01/2022
551 265800 CLAUDIO KUPIDLOWSKY FERNANDES OFICIAL DO MP BELO HORIZONTE - COMARCA; SECRETARIA DO PROCON-MG 10.069,62 3.020,89 0,00 0,00 0,00 0,00 527,98 7.476,82 21.095,31 1.887,70 938,00 0,00 0,00 2.825,70 18.269,61 31/01/2022
552 193600 CLAUDIO LEITE FONTES OFICIAL DO MP ITUIUTABA - COMARCA; ITUIUTABA-PJ-02PJ 10.069,62 4.027,85 0,00 0,00 4.699,16 0,00 516,91 7.355,99 26.669,53 2.048,81 3.402,99 0,00 0,00 5.451,80 21.217,73 31/01/2022
553 329400 CLAUDIO MARCIO BERNARDES OFICIAL DO MP ITAÚNA - COMARCA; ITAUNA-PJ-03PJ 10.069,62 7.048,73 0,00 0,00 0,00 0,00 502,14 7.964,26 25.584,75 2.532,15 3.089,71 0,00 0,00 5.621,86 19.962,89 31/01/2022
554 270200 CLAUDIO RABELO ALVES OFICIAL DO MP FORMIGA - COMARCA; FORMIGA-PJ-03PJ 11.085,56 3.325,67 0,00 0,00 4.803,74 0,00 528,41 7.481,49 27.224,87 2.099,01 3.628,98 0,00 0,00 5.727,99 21.496,88 31/01/2022
555 264700 CLAUDIO ROBERTO KFURI DE ARAUJO ANALISTA DO MP BELO HORIZONTE - COMARCA; CENTRAL DE APOIO TECNICO-SETOR DE INFORMATICA 18.820,14 5.646,04 0,00 0,00 0,00 0,00 0,00 1.717,00 26.183,18 3.707,80 4.734,92 0,00 0,00 8.442,72 17.740,46 31/01/2022
556 188600 CLAUDIO SALES OFICIAL DO MP NEPOMUCENO - COMARCA; NEPOMUCENO-PJ-SECRETARIA 15.272,02 12.217,62 0,00 0,00 0,00 0,00 0,00 1.717,00 29.206,64 4.191,56 5.537,61 0,00 0,00 9.729,17 19.477,47 31/01/2022
557 543300 CLAUDIO SILVA DE CARVALHO ANALISTA DO MP CAMPO BELO - COMARCA; CAMPO BELO-PJ-03PJ 8.579,10 857,91 0,00 0,00 0,00 0,00 519,04 7.379,21 17.335,26 1.303,14 1.315,32 0,00 0,00 2.618,46 14.716,80 31/01/2022
558 160700 CLAUDIO VICENTE HESS ASSESSOR BELO HORIZONTE - COMARCA; CENTRAL DE APOIO TECNICO-SETOR DE INFORMATICA 0,00 6.717,58 13.435,16 0,00 6.717,58 0,00 0,00 1.717,00 28.587,32 828,38 6.517,35 0,00 0,00 7.345,73 21.241,59 31/01/2022
559 312900 CLAUDIO VIEIRA FIRPE OFICIAL DO MP BELO HORIZONTE - COMARCA; DIR RELACOES INSTITUCIONAIS 10.069,62 3.020,89 0,00 0,00 0,00 0,00 527,98 7.476,82 21.095,31 1.887,70 2.211,41 0,00 0,00 4.099,11 16.996,20 31/01/2022
560 634100 CLEA CRISTINA GUERRA DE FREITAS COSTA OFICIAL DO MP BELO HORIZONTE - COMARCA; BH-18PJ VIOLENCIA DOMESTICA-SECRETARIA 5.387,19 538,72 0,00 0,00 0,00 0,00 0,00 2.486,39 8.412,30 749,48 502,02 0,00 0,00 1.251,50 7.160,80 31/01/2022
561 459200 CLEIA ZILLE PEREIRA ANALISTA DO MP BELO HORIZONTE - COMARCA; BH-07PJ 01 TRIBUNAL JURI-SECRETARIA 10.069,62 2.013,92 0,00 0,00 0,00 0,00 0,00 1.717,00 13.800,54 1.726,58 1.978,80 0,00 0,00 3.705,38 10.095,16 31/01/2022
562 481800 CLEIDE CARDOSO DA SILVA ANALISTA DO MP MANHUAÇU - COMARCA; MANHUACU-PJ-04PJ 10.069,62 2.013,92 0,00 0,00 0,00 0,00 0,00 1.717,00 13.800,54 1.726,58 1.874,53 0,00 0,00 3.601,11 10.199,43 31/01/2022
563 347600 CLEIDIMAR DE OLIVEIRA SILVA OFICIAL DO MP PATOS DE MINAS - COMARCA; PATOS DE MINAS-PJ-03PJ 9.752,14 2.925,64 0,00 0,00 0,00 0,00 511,34 7.295,22 20.484,34 1.821,66 1.907,52 0,00 0,00 3.729,18 16.755,16 31/01/2022
564 396500 CLEIDISON BATISTA DE ANDRADE OFICIAL DO MP RESPLENDOR - COMARCA; RESPLENDOR-PJ-UNPJ 8.858,43 1.771,69 0,00 0,00 0,00 0,00 545,68 7.669,87 18.845,67 1.494,03 1.538,79 0,00 0,00 3.032,82 15.812,85 31/01/2022
565 535100 CLEISON ALVES DA SILVA ANALISTA DO MP BOA ESPERANÇA - COMARCA; BOA ESPERANCA-PJ-01PJ 9.444,70 944,47 0,00 0,00 0,00 0,00 533,31 7.534,94 18.457,42 1.455,48 1.483,13 0,00 0,00 2.938,61 15.518,81 31/01/2022
566 298100 CLEONICE AUGUSTA BARROS DE OLIVEIRA ANALISTA DO MP JUIZ DE FORA - COMARCA; JUIZ DE FORA-PJ-08PJ 18.820,14 5.646,04 0,00 0,00 0,00 0,00 0,00 1.717,00 26.183,18 3.707,80 4.839,19 0,00 0,00 8.546,99 17.636,19 31/01/2022
567 264100 CLETO HENRIQUE ANDRADE SILVA ANALISTA DO MP BELO HORIZONTE - COMARCA; DIRETORIA DE SISTEMAS DE INFORMACAO 18.820,14 5.646,04 0,00 0,00 0,00 0,00 0,00 1.717,00 26.183,18 3.707,80 4.734,92 0,00 0,00 8.442,72 17.740,46 31/01/2022
568 334400 CLEUBA DE OLIVEIRA BARCELOS GONCALVES OFICIAL DO MP DIVINÓPOLIS - COMARCA; COORD REG SAUDE MACRORREGIAO SANITARIA OESTE 10.069,62 3.020,89 0,00 0,00 0,00 0,00 527,98 7.476,82 21.095,31 1.887,70 2.159,28 0,00 0,00 4.046,98 17.048,33 31/01/2022
569 347500 CLEUSA CORDEIRO DA MATA PIMENTA OFICIAL DO MP CAMPO BELO - COMARCA; CAMPO BELO-PJ-01PJ 10.069,62 8.055,69 0,00 0,00 904,11 2.693,26 531,68 7.517,10 29.771,46 2.693,26 4.259,46 0,00 0,00 6.952,72 22.818,74 31/01/2022
570 510200 CLEZIO SALES SILVA OFICIAL DO MP BRASÓPOLIS - COMARCA; BRASOPOLIS-PJ-UNPJ 6.123,79 1.224,76 0,00 0,00 0,00 0,00 538,89 9.134,62 17.022,06 968,98 885,02 0,00 0,00 1.854,00 15.168,06 31/01/2022
571 323000 CLOTILDE DE PADUA VIEIRA OFICIAL DO MP BELO HORIZONTE - COMARCA; BH-19PJ SAUDE-SECRETARIA 129PJ 9.146,93 2.744,08 0,00 0,00 0,00 0,00 0,00 1.717,00 13.608,01 1.695,78 1.934,33 0,00 0,00 3.630,11 9.977,90 31/01/2022
572 285200 CLOVIS ANDRE LUDTKE OFICIAL DO MP BELO HORIZONTE - COMARCA; DIVISAO DE MANUTENCAO PREDIAL 10.069,62 3.020,89 0,00 0,00 0,00 0,00 527,98 7.476,82 21.095,31 1.887,70 2.211,41 0,00 0,00 4.099,11 16.996,20 31/01/2022
573 381100 CONCEICAO APARECIDA TEIXEIRA ARANTES ANALISTA DO MP BELO HORIZONTE - COMARCA; BH-23PJ INFRACIONAL-ASS JURIDICA 14.324,23 2.864,85 0,00 0,00 0,00 0,00 4.419,90 1.717,00 23.325,98 3.250,65 4.127,04 0,00 0,00 7.377,69 15.948,29 31/01/2022
574 249900 CONSTANTINO CEZAR GOMES MOTA OFICIAL DO MP MONTES CLAROS - COMARCA; COORD REG BACIA RIOS VERDE GRANDE E PARDO 10.069,62 3.020,89 0,00 0,00 0,00 0,00 0,00 3.255,78 16.346,29 1.887,70 2.107,14 0,00 0,00 3.994,84 12.351,45 31/01/2022
575 481000 CRISHMA ANALIA LOMBELLO ANALISTA DO MP JUIZ DE FORA - COMARCA; JUIZ DE FORA-PJ-13PJ 10.069,62 2.013,92 0,00 0,00 0,00 0,00 0,00 1.717,00 13.800,54 1.726,58 1.926,67 0,00 0,00 3.653,25 10.147,29 31/01/2022
576 523900 CRISTHYANE BAZOLI COSTA GUEDES COUTO OFICIAL DO MP BELO HORIZONTE - COMARCA; BH-04PJ JUIZO REG PÚBLICOS-SECRETARIA 7.663,37 766,34 0,00 0,00 0,00 0,00 525,45 7.449,20 16.404,36 1.141,97 1.134,77 0,00 0,00 2.276,74 14.127,62 31/01/2022
577 187000 CRISTIAN DAYVSON EVANGELISTA OFICIAL DO MP JUIZ DE FORA - COMARCA; JUIZ DE FORA-PJ-13PJ 15.272,02 6.108,81 0,00 0,00 0,00 0,00 548,77 7.703,63 29.633,23 3.214,15 4.074,34 0,00 0,00 7.288,49 22.344,74 31/01/2022
578 682100 CRISTIAN TRISTAO DE ANDRADE ASSESSOR PROMOTOR JUSTICA TRÊS CORACOES - COMARCA; TRES CORACOES-PJ-04PJ 0,00 0,00 7.187,72 0,00 0,00 0,00 527,10 7.467,18 15.182,00 741,83 1.232,71 0,00 0,00 1.974,54 13.207,46 31/01/2022
579 319800 CRISTIANA GONCALVES DOS SANTOS GUSMAO OFICIAL DO MP PARAOPEBA - COMARCA; PARAOPEBA-PJ-UNPJ 10.069,62 3.020,89 0,00 0,00 0,00 0,00 0,00 1.717,00 14.807,51 1.887,70 2.211,41 0,00 0,00 4.099,11 10.708,40 31/01/2022
580 520600 CRISTIANA JANAINA BARBOZA JUVENCIO DOS SANTOS ANALISTA DO MP BELO HORIZONTE - COMARCA; BH-02PJ FAMILIA-SECRETARIA 10.069,62 1.006,96 0,00 0,00 0,00 0,00 527,98 7.476,82 19.081,38 1.565,47 1.746,20 0,00 0,00 3.311,67 15.769,71 31/01/2022
581 195600 CRISTIANA SOARES HALABI OFICIAL DO MP UBERABA - COMARCA; UBERABA-PJ-01PJ 16.112,82 6.445,13 0,00 0,00 0,00 0,00 496,28 7.130,91 30.185,14 3.402,49 4.398,39 0,00 0,00 7.800,88 22.384,26 31/01/2022
582 218900 CRISTIANE ALVES BELLES OFICIAL DO MP JUIZ DE FORA - COMARCA; JUIZ DE FORA-PJ-10PJ 6.123,79 1.837,14 0,00 0,00 0,00 0,00 525,42 8.602,41 17.088,76 1.066,96 922,21 0,00 0,00 1.989,17 15.099,59 31/01/2022
583 263600 CRISTIANE CARVALHO COUTINHO OFICIAL DO MP BELO HORIZONTE - COMARCA; BH-23PJ INFRACIONAL-SEC EXP 10.736,08 3.220,82 0,00 0,00 0,00 0,00 0,00 1.717,00 15.673,90 2.026,32 2.638,97 0,00 0,00 4.665,29 11.008,61 31/01/2022
584 541000 CRISTIANE COELHO ALVES OFICIAL DO MP ITABIRA - COMARCA; ITABIRA-PJ-03PJ 5.562,64 556,26 0,00 0,00 0,00 0,00 0,00 1.717,00 7.835,90 778,43 547,13 0,00 0,00 1.325,56 6.510,34 31/01/2022
585 441700 CRISTIANE CORRADO DE ANDRADE ANALISTA DO MP BELO HORIZONTE - COMARCA; DIRETORIA DE SISTEMAS DE INFORMACAO 14.324,23 2.864,85 0,00 0,00 0,00 0,00 0,00 1.717,00 18.906,08 2.543,47 3.158,18 0,00 0,00 5.701,65 13.204,43 31/01/2022
586 375100 CRISTIANE DAS DORES ERCIO DE LIMA OFICIAL DO MP GOVERNADOR VALADARES - COMARCA; COOR REG APOIO COM INC MOB VALE DO RIO DOCE 8.579,10 1.715,82 0,00 0,00 0,00 0,00 0,00 1.717,00 12.011,92 1.440,40 1.565,63 0,00 0,00 3.006,03 9.005,89 31/01/2022
587 178800 CRISTIANE DE LIMA HOSKEN OFICIAL DO MP BELO HORIZONTE - COMARCA; BH-14PJ DEFESA CONSUMIDOR-GAB 110PJ 16.750,82 6.700,33 0,00 0,00 0,00 0,00 515,93 7.345,28 31.312,36 3.545,40 4.552,58 0,00 0,00 8.097,98 23.214,38 31/01/2022
588 494000 CRISTIANE DE MELO MARQUEZ OLIVEIRA ANALISTA DO MP UBERLÂNDIA - COMARCA; UBERLANDIA-PJ-06PJ 12.204,02 2.440,80 0,00 0,00 0,00 0,00 536,98 8.344,32 23.526,12 2.136,38 2.570,46 0,00 0,00 4.706,84 18.819,28 31/01/2022
589 266100 CRISTIANE DE OLIVEIRA CASTRO OFICIAL DO MP BELO HORIZONTE - COMARCA; BH-14PJ DEFESA CONSUMIDOR-SECRETARIA 13.011,52 3.903,46 0,00 0,00 0,00 0,00 1.445,27 1.717,00 20.077,25 2.499,61 3.388,04 0,00 0,00 5.887,65 14.189,60 31/01/2022
590 329500 CRISTIANE DOS REIS SILVA OFICIAL DO MP ARAXÁ - COMARCA; ARAXA-PJ-04PJ 10.069,62 3.020,89 0,00 0,00 0,00 0,00 0,00 1.717,00 14.807,51 1.887,70 2.159,28 0,00 0,00 4.046,98 10.760,53 31/01/2022
591 301600 CRISTIANE GODINHO PIRES ANALISTA DO MP BETIM - COMARCA; BETIM-PJ-06PJ 18.820,14 5.646,04 0,00 0,00 0,00 0,00 0,00 1.717,00 26.183,18 3.707,80 4.839,19 0,00 0,00 8.546,99 17.636,19 31/01/2022
592 406100 CRISTIANE GONCALVES CHAVES ANALISTA DO MP BELO HORIZONTE - COMARCA; BH-14PJ DEFESA CONSUMIDOR-GAB 112PJ 14.790,66 4.437,20 0,00 0,00 0,00 0,00 0,00 1.717,00 20.944,86 2.869,67 3.629,14 0,00 0,00 6.498,81 14.446,05 31/01/2022
593 487600 CRISTIANE LOPES DE OLIVEIRA OFICIAL DO MP DIVINÓPOLIS - COMARCA; DIVINOPOLIS-PJ-03PJ 6.123,79 1.224,76 0,00 0,00 0,00 0,00 538,89 7.595,84 15.483,28 968,98 885,02 0,00 0,00 1.854,00 13.629,28 31/01/2022
594 502500 CRISTIANE MACIEL DE OLIVEIRA GOMES ANALISTA DO MP JUIZ DE FORA - COMARCA; JUIZ DE FORA-PJ-05PJ 10.069,62 2.013,92 0,00 0,00 0,00 0,00 531,68 8.286,49 20.901,71 1.726,58 1.978,80 0,00 0,00 3.705,38 17.196,33 31/01/2022
595 285500 CRISTIANE MAGALHAES LOURENCO ANALISTA DO MP BELO HORIZONTE - COMARCA; CENTRAL DE APOIO TECNICO-SETOR CONTABIL 18.103,37 5.431,01 0,00 0,00 0,00 0,00 517,76 7.365,25 31.417,39 3.558,71 4.571,81 0,00 0,00 8.130,52 23.286,87 31/01/2022
596 536500 CRISTIANE MICHELE DE SOUZA ANALISTA DO MP BARÃO DE COCAIS - COMARCA; BARAO DE COCAIS-PJ-UNPJ 9.444,70 944,47 0,00 0,00 0,00 0,00 0,00 1.717,00 12.106,17 1.455,48 1.483,13 0,00 0,00 2.938,61 9.167,56 31/01/2022
597 346600 CRISTIANE NOGUEIRA ANDRADE ANALISTA DO MP BELO HORIZONTE - COMARCA; CENTRAL DE APOIO TECNICO-SETOR CONTABIL 16.750,82 5.025,25 0,00 0,00 0,00 0,00 0,00 1.717,00 23.493,07 3.277,38 4.217,78 0,00 0,00 7.495,16 15.997,91 31/01/2022
598 234000 CRISTIANE OLIVEIRA TOSTES OFICIAL DO MP JUIZ DE FORA - COMARCA; JUIZ DE FORA-PJ-08PJ 14.790,66 4.437,20 0,00 0,00 0,00 0,00 493,52 7.870,19 27.591,57 2.869,67 3.629,14 0,00 0,00 6.498,81 21.092,76 31/01/2022
599 445800 CRISTIANE ORZIL COSTA OFICIAL DO MP SANTA LUZIA - COMARCA; SANTA LUZIA-PJ-05PJ 6.529,10 1.305,82 0,00 0,00 0,00 0,00 545,83 8.440,93 16.821,68 1.046,80 1.109,72 0,00 0,00 2.156,52 14.665,16 31/01/2022
600 616100 CRISTIANE PAES RODRIGUES MARCICANO ANALISTA DO MP CATAGUASES - COMARCA; CATAGUASES-PJ-05PJ 8.436,53 843,65 0,00 0,00 0,00 0,00 544,44 8.425,71 18.250,33 1.278,04 1.331,23 0,00 0,00 2.609,27 15.641,06 31/01/2022
601 612300 CRISTIANE RIBEIRO DOS REIS ARCANJO OFICIAL DO MP BELO HORIZONTE - COMARCA; DIRETORIA DE PAGAMENTO DE PESSOAL-DPAG 5.930,75 593,08 0,00 0,00 0,00 0,00 0,00 0,00 6.523,83 839,85 589,46 0,00 0,00 1.429,31 5.094,52 31/01/2022
602 257700 CRISTIANE RODRIGUES PAES NUNES ANALISTA DO MP BELO HORIZONTE - COMARCA; BH-22PJ PES COM DEF E IDOSOS-ORIENTACAO PSIC 18.820,14 5.646,04 0,00 0,00 0,00 0,00 538,26 8.358,27 33.362,71 3.707,80 4.787,06 0,00 0,00 8.494,86 24.867,85 31/01/2022
603 510800 CRISTIANE SANTOS FERNANDES ORNELES ANALISTA DO MP BELO HORIZONTE - COMARCA; BH-03PJ EMPRESARIAL-SECRETARIA 10.069,62 2.013,92 0,00 0,00 0,00 0,00 531,68 7.517,10 20.132,32 1.726,58 1.978,80 0,00 0,00 3.705,38 16.426,94 31/01/2022
604 535701 CRISTIANE SANTOS MIRANDA ANALISTA DO MP CONTAGEM - COMARCA; CONTAGEM-PJ-20PJ 8.170,49 817,05 0,00 0,00 0,00 0,00 0,00 1.717,00 10.704,54 1.231,22 1.263,63 0,00 0,00 2.494,85 8.209,69 31/01/2022
605 536200 CRISTIANO DE OLIVEIRA ANALISTA DO MP CONCEIÇÃO DO MATO DENTRO - COMARCA; CONCEICAO DO MATO DENTRO-PJ-UNPJ 10.069,62 1.006,96 0,00 0,00 0,00 0,00 0,00 2.486,39 13.562,97 1.565,47 1.694,06 0,00 0,00 3.259,53 10.303,44 31/01/2022
606 477400 CRISTIANO SOARES ELEUTERIO ANALISTA DO MP BELO HORIZONTE - COMARCA; GABINETE DE PROCURADOR DE JUSTIÇA - SALA 812 12.204,02 2.440,80 0,00 0,00 0,00 0,00 0,00 1.717,00 16.361,82 2.136,38 2.570,46 0,00 0,00 4.706,84 11.654,98 31/01/2022
607 449400 CRISTIANO TEIXEIRA RODRIGUES LANA ANALISTA DO MP BELO HORIZONTE - COMARCA; BH-18PJ VIOLENCIA DOMESTICA-GAB 185PJ 10.736,08 2.147,22 0,00 0,00 0,00 0,00 519,63 7.385,65 20.788,58 927,17 2.418,58 0,00 0,00 3.345,75 17.442,83 31/01/2022
608 239400 CRISTINA DE FATIMA CRUZ E SILVA OFICIAL DO MP MONTE SANTO DE MINAS - COMARCA; MONTE SANTO DE MINAS-PJ-SECRETARIA 13.011,52 3.903,46 0,00 0,00 0,00 0,00 0,00 1.717,00 18.631,98 2.499,61 3.094,87 0,00 0,00 5.594,48 13.037,50 31/01/2022
609 544000 CRISTINA DE OLIVEIRA TERRA ANALISTA DO MP BELO HORIZONTE - COMARCA; BH-18PJ VIOLENCIA DOMESTICA 9.444,70 944,47 0,00 0,00 0,00 0,00 533,31 7.534,94 18.457,42 1.455,48 1.587,40 0,00 0,00 3.042,88 15.414,54 31/01/2022
610 356800 CRISTINA DE PINHO BARROSO OFICIAL DO MP SABINÓPOLIS - COMARCA; SABINOPOLIS-PJ-UNPJ 8.436,53 2.530,96 0,00 0,00 0,00 0,00 0,00 1.717,00 12.684,49 1.548,01 1.616,72 0,00 0,00 3.164,73 9.519,76 31/01/2022
611 649500 CRISTINA DO DIVINO ESPIRITO SANTOS OFICIAL DO MP DIVINÓPOLIS - COMARCA; DIVINOPOLIS-PJ-12PJ 5.217,34 521,73 0,00 0,00 0,00 0,00 526,08 7.456,07 13.721,22 721,46 458,35 0,00 0,00 1.179,81 12.541,41 31/01/2022
612 348201 CRISTINA MARIA DA SILVA ANALISTA DO MP ARAXÁ - COMARCA; ARAXA-PJ-06PJ 10.069,62 2.013,92 0,00 0,00 4.027,85 0,00 0,00 2.486,39 18.597,78 1.726,58 3.086,46 0,00 0,00 4.813,04 13.784,74 31/01/2022
613 434900 CRISTINA MELO DE MADUREIRA ANALISTA DO MP BELO HORIZONTE - COMARCA; BH-07PJ 01 TRIBUNAL JURI-SECRETARIA 14.324,23 2.864,85 0,00 0,00 5.729,69 0,00 0,00 1.717,00 24.635,77 2.543,47 4.733,85 0,00 0,00 7.277,32 17.358,45 31/01/2022
614 307700 CRISTINA TEIXEIRA MARQUES OFICIAL DO MP BELO HORIZONTE - COMARCA; CENTRAL DE APOIO TECNICO-SETOR CONTABIL 9.146,93 2.744,08 0,00 0,00 0,00 0,00 523,20 7.424,68 19.838,89 1.695,78 1.934,33 0,00 0,00 3.630,11 16.208,78 31/01/2022
615 265300 CRISTOVAO SANCHES DE MEDEIROS ANALISTA DO MP BELO HORIZONTE - COMARCA; DIRETORIA DE CONTABILIDADE 17.413,92 5.224,18 0,00 0,00 0,00 0,00 0,00 1.717,00 24.355,10 3.415,31 4.416,91 0,00 0,00 7.832,22 16.522,88 31/01/2022
616 349800 CROZEIR LUIZ DA SILVA OFICIAL DO MP UNAÍ - COMARCA; UNAI-PJ-SECRETARIA 9.752,14 1.950,43 0,00 0,00 0,00 0,00 514,91 7.334,23 19.551,71 1.665,62 1.838,66 0,00 0,00 3.504,28 16.047,43 31/01/2022
617 490500 CYNTHIA CRISTINA DE SOUZA OLIVEIRA VALENTE ANALISTA DO MP BELO HORIZONTE - COMARCA; BH-09PJ AUDITORIA MILITAR-SECRETARIA 10.069,62 2.013,92 0,00 0,00 0,00 0,00 0,00 1.717,00 13.800,54 1.726,58 1.978,80 0,00 0,00 3.705,38 10.095,16 31/01/2022
618 389800 CYNTHIA GARIGLIO DOS SANTOS OFICIAL DO MP PERDIZES - COMARCA; PERDIZES-PJ-SECRETARIA 8.170,49 1.634,10 0,00 0,00 0,00 0,00 0,00 2.486,39 12.290,98 1.361,95 1.295,95 0,00 0,00 2.657,90 9.633,08 31/01/2022
619 335101 CYNTHIA GONTIJO D ASSUNCAO ANALISTA DO MP BELO HORIZONTE - COMARCA; FEPDC-SECRETARIA EXECUTIVA 10.069,62 2.013,92 0,00 0,00 0,00 0,00 0,00 2.486,39 14.569,93 1.726,58 1.978,80 0,00 0,00 3.705,38 10.864,55 31/01/2022
620 269700 CYNTIA ROCHA CAVALCANTI OFICIAL DO MP UBERLÂNDIA - COMARCA; UBERLANDIA-PJ-06PJ 13.011,52 3.903,46 0,00 0,00 0,00 0,00 496,17 7.899,18 25.310,33 2.499,61 3.094,87 0,00 0,00 5.594,48 19.715,85 31/01/2022
621 278000 DAIRTON LOPES MARTINS FILHO COORDENADOR/ANALISTA BELO HORIZONTE - COMARCA; DIRETORIA DE SISTEMAS DE INFORMACAO 0,00 4.030,55 13.435,16 0,00 0,00 0,00 512,33 7.306,03 25.284,07 1.887,70 3.414,59 0,00 0,00 5.302,29 19.981,78 31/01/2022
622 392700 DALIANA CHAVES IBRAIM MARINHO OFICIAL DO MP ITAÚNA - COMARCA; ITAUNA-PJ-04PJ 7.421,79 1.484,36 0,00 0,00 0,00 0,00 522,49 7.416,94 16.845,58 1.218,20 1.244,83 0,00 0,00 2.463,03 14.382,55 31/01/2022
623 558101 DALLEY TASSIA SILVA ANALISTA DO MP MORADA NOVA DE MINAS - COMARCA; MORADA NOVA DE MINAS-PJ-UNPJ 9.146,93 914,69 0,00 0,00 0,00 0,00 0,00 3.230,13 13.291,75 1.403,07 1.407,47 0,00 0,00 2.810,54 10.481,21 31/01/2022
624 476700 DALTON DAUD ANALISTA DO MP ARAGUARI - COMARCA; ARAGUARI-PJ-05PJ 10.069,62 2.013,92 0,00 0,00 0,00 0,00 531,68 7.517,10 20.132,32 1.726,58 1.874,53 0,00 0,00 3.601,11 16.531,21 31/01/2022
625 426900 DANIEL ALVES DA SILVA OFICIAL DO MP BELO HORIZONTE - COMARCA; DIVISAO TRANSPORTES 6.123,79 1.224,76 0,00 0,00 0,00 0,00 538,89 7.595,84 15.483,28 968,98 780,75 0,00 0,00 1.749,73 13.733,55 31/01/2022
626 122000 DANIEL ANTONIO VIEIRA OFICIAL DO MP ENTRE-RIOS DE MINAS - COMARCA; ENTRE RIOS DE MINAS-PJ-SECRETARIA 10.069,62 8.055,69 0,00 0,00 0,00 0,00 0,00 1.717,00 19.842,31 2.693,26 3.165,90 0,00 0,00 5.859,16 13.983,15 31/01/2022
627 714000 DANIEL FERREIRA CAMARA ASSESSOR PROMOTOR JUSTICA RIBEIRÃO DAS NEVES - COMARCA; RIBEIRAO DAS NEVES-PJ-12PJ 0,00 0,00 7.187,72 0,00 0,00 0,00 0,00 1.717,00 8.904,72 828,38 1.208,91 0,00 0,00 2.037,29 6.867,43 31/01/2022
628 411000 DANIEL FERREIRA DA SILVA ANALISTA DO MP GOVERNADOR VALADARES - COMARCA; GOVERNADOR VALADARES-PJ-15PJ 13.011,52 3.903,46 0,00 0,00 0,00 0,00 0,00 3.255,78 20.170,76 2.499,61 2.886,32 0,00 0,00 5.385,93 14.784,83 31/01/2022
629 703500 DANIEL FILIPE DE DEUS SOARES ASSESSOR PROMOTOR JUSTICA ITABIRITO - COMARCA; ITABIRITO-PJ-02PJ 0,00 0,00 7.187,72 0,00 0,00 0,00 0,00 1.717,00 8.904,72 828,38 1.208,91 0,00 0,00 2.037,29 6.867,43 31/01/2022
630 309000 DANIEL GOMES DOS SANTOS ANALISTA DO MP POÇOS DE CALDAS - COMARCA; POCOS DE CALDAS-PJ-05PJ 18.103,37 5.431,01 0,00 0,00 0,00 0,00 517,76 7.365,25 31.417,39 3.558,71 4.623,95 0,00 0,00 8.182,66 23.234,73 31/01/2022
631 554500 DANIEL GOMES PEREIRA OFICIAL DO MP NANUQUE - COMARCA; NANUQUE-PJ-02PJ 6.123,79 612,38 0,00 0,00 0,00 0,00 543,38 7.644,83 14.924,38 872,76 743,08 0,00 0,00 1.615,84 13.308,54 31/01/2022
632 453000 DANIEL GONCALVES PEREIRA ANALISTA DO MP UNAÍ - COMARCA; UNAI-PJ-02PJ 10.069,62 2.013,92 0,00 0,00 0,00 0,00 531,68 9.440,03 22.055,25 1.726,58 1.978,80 0,00 0,00 3.705,38 18.349,87 31/01/2022
633 495500 DANIEL GUIMARAES CABRAL OFICIAL DO MP BELO HORIZONTE - COMARCA; BH-17PJ PATRIMONIO PUBLICO-SECRETARIA 7.421,79 1.484,36 0,00 0,00 0,00 0,00 0,00 1.717,00 10.623,15 1.218,20 1.244,83 0,00 0,00 2.463,03 8.160,12 31/01/2022
634 442900 DANIEL GUIMARAES GONCALVES ANALISTA DO MP UBERLÂNDIA - COMARCA; UBERLANDIA-PJ-03PJ 13.011,52 2.602,30 0,00 0,00 0,00 0,00 515,26 7.337,98 23.467,06 927,17 2.993,61 0,00 0,00 3.920,78 19.546,28 31/01/2022
635 655900 DANIEL LUIZ DA SILVA ASSESSOR BELO HORIZONTE - COMARCA; DIV FISCAL ADM CONT TERCEIRIZACAO 0,00 0,00 5.136,32 0,00 0,00 0,00 0,00 1.717,00 6.853,32 722,98 673,76 0,00 0,00 1.396,74 5.456,58 31/01/2022
636 464600 DANIEL PIACENTINI STIVANIN ANALISTA DO MP ANDRADAS - COMARCA; ANDRADAS-PJ-02PJ 10.069,62 2.013,92 0,00 0,00 0,00 0,00 0,00 1.717,00 13.800,54 1.726,58 1.978,80 0,00 0,00 3.705,38 10.095,16 31/01/2022
637 417000 DANIEL QUEIROZ FERREIRA ANALISTA DO MP PASSOS - COMARCA; PASSOS-PJ-06PJ 13.011,52 2.602,30 0,00 0,00 0,00 0,00 515,26 8.107,37 24.236,45 881,52 3.042,71 0,00 0,00 3.924,23 20.312,22 31/01/2022
638 396700 DANIEL SILVA CARNEVALLI DIRETOR/ANALISTA BELO HORIZONTE - COMARCA; SUPERINTENDENCIA DE TECNOLOGIA DA INFORMACAO 12.167,40 2.433,48 3.482,78 518,62 111,62 0,00 8.170,96 2.821,25 29.706,11 2.129,35 4.152,31 0,00 1.176,48 7.458,14 22.247,97 31/01/2022
639 489300 DANIEL TABOZA ROCHA ANALISTA DO MP IPATINGA - COMARCA; IPATINGA-PJ-08PJ 10.069,62 2.013,92 0,00 0,00 0,00 0,00 0,00 2.486,39 14.569,93 927,17 2.095,59 0,00 0,00 3.022,76 11.547,17 31/01/2022
640 414100 DANIEL TARDELI VALADAO ANALISTA DO MP TRÊS CORACOES - COMARCA; TRES CORACOES-PJ-02PJ 13.011,52 2.602,30 0,00 0,00 0,00 0,00 0,00 3.255,78 18.869,60 519,73 2.897,10 0,00 0,00 3.416,83 15.452,77 31/01/2022
641 446601 DANIEL VIEIRA BUENO ANALISTA DO MP SÃO DOMINGOS DO PRATA - COMARCA; SAO DOMINGOS DO PRATA-PJ-UNPJ 9.146,93 914,69 0,00 0,00 0,00 0,00 0,00 2.486,39 12.548,01 1.403,07 1.459,60 0,00 0,00 2.862,67 9.685,34 31/01/2022
642 253200 DANIELA BATISTA LIMA BARBOSA ASSESSOR BELO HORIZONTE - COMARCA; CENTRAL DE APOIO TECN-SETOR DE MEIO AMBIENTE 0,00 1.540,90 5.136,32 0,00 0,00 0,00 0,00 1.717,00 8.394,22 828,38 1.068,52 0,00 0,00 1.896,90 6.497,32 31/01/2022
643 505800 DANIELA BORGES DE MATTOS RESENDE ANALISTA DO MP JUIZ DE FORA - COMARCA; JUIZ DE FORA-PJ-20PJ 10.069,62 2.013,92 0,00 0,00 4.027,85 0,00 531,68 7.517,10 24.160,17 1.726,58 3.086,46 0,00 0,00 4.813,04 19.347,13 31/01/2022
644 478000 DANIELA CARVALHO SOARES ANALISTA DO MP SÃO JOÃO DEL REI - COMARCA; SAO JOAO DEL REI-PJ-01PJ 10.069,62 2.013,92 0,00 0,00 0,00 0,00 0,00 1.717,00 13.800,54 1.726,58 1.978,80 0,00 0,00 3.705,38 10.095,16 31/01/2022
645 275900 DANIELA CHAGAS SODRE ANALISTA DO MP BELO HORIZONTE - COMARCA; CENTRAL DE APOIO TECNICO-SETOR CONTABIL 18.103,37 5.431,01 0,00 0,00 7.844,79 0,00 0,00 1.717,00 33.096,17 3.558,71 6.729,13 0,00 0,00 10.287,84 22.808,33 31/01/2022
646 234301 DANIELA CRUZ SOARES ANALISTA DO MP BELO HORIZONTE - COMARCA; LABORATORIO TECNOLOGIA INTELIGENCIA 18.820,14 5.646,04 0,00 0,00 0,00 0,00 538,26 7.588,88 32.593,32 3.707,80 4.839,19 0,00 0,00 8.546,99 24.046,33 31/01/2022
647 638000 DANIELA DE ALMEIDA BATISTA ANALISTA DO MP ANDRELÂNDIA - COMARCA; ANDRELANDIA-PJ-UNPJ 8.436,53 843,65 0,00 0,00 0,00 0,00 510,41 8.054,50 17.845,09 927,17 1.427,72 0,00 0,00 2.354,89 15.490,20 31/01/2022
648 301000 DANIELA DE ALMEIDA E OLIVEIRA ANALISTA DO MP BELO HORIZONTE - COMARCA; DIRETORIA DE SISTEMAS DE INFORMACAO 18.103,37 5.431,01 0,00 0,00 0,00 0,00 0,00 1.717,00 25.251,38 3.558,71 4.623,95 0,00 0,00 8.182,66 17.068,72 31/01/2022
649 296000 DANIELA DE AZEVEDO SILVA ANALISTA DO MP BRASÓPOLIS - COMARCA; BRASOPOLIS-PJ-UNPJ 18.820,14 5.646,04 0,00 0,00 0,00 0,00 0,00 1.717,00 26.183,18 3.707,80 4.839,19 0,00 0,00 8.546,99 17.636,19 31/01/2022
650 453500 DANIELA DE CASTRO SOUSA BARBOSA ANALISTA DO MP BELO HORIZONTE - COMARCA; BH-08PJ JUIZADO ESPECIAL-SECRETARIA 10.736,08 2.147,22 0,00 0,00 0,00 0,00 519,63 7.385,65 20.788,58 1.854,54 2.421,60 0,00 0,00 4.276,14 16.512,44 31/01/2022
651 506000 DANIELA DE OLIVEIRA CAVALIERI ANALISTA DO MP BELO HORIZONTE - COMARCA; BH-14PJ DEFESA CONSUMIDOR-GAB 005PJ 10.069,62 2.013,92 0,00 0,00 0,00 0,00 531,68 7.517,10 20.132,32 1.726,58 1.978,80 0,00 0,00 3.705,38 16.426,94 31/01/2022
652 546200 DANIELA DE VILHENA LEMES GONCALVES OFICIAL DO MP TRÊS CORACOES - COMARCA; TRES CORACOES-PJ-05PJ 5.562,64 556,26 0,00 0,00 0,00 0,00 0,00 1.717,00 7.835,90 778,43 494,99 0,00 0,00 1.273,42 6.562,48 31/01/2022
653 356400 DANIELA LEAL FERRAZ ANALISTA DO MP MONTES CLAROS - COMARCA; COORD REG PJ DEF EDUC DIR CRIANCA ADOL NORTE 15.272,02 4.581,61 0,00 0,00 0,00 0,00 509,58 7.276,02 27.639,23 2.969,79 3.773,69 0,00 0,00 6.743,48 20.895,75 31/01/2022
654 501000 DANIELA LOURENCO SANTOS DA SILVA GUIMARAES ANALISTA DO MP BELO HORIZONTE - COMARCA; BH-12PJ JUIZO CRIMINAL-GAB 095PJ 10.069,62 2.013,92 0,00 0,00 0,00 0,00 531,68 7.517,10 20.132,32 1.726,58 1.926,67 0,00 0,00 3.653,25 16.479,07 31/01/2022
655 195801 DANIELA MARIA DE OLIVEIRA QUEIROZ ANALISTA DO MP ARAGUARI - COMARCA; ARAGUARI-PJ-06PJ 14.324,23 5.729,69 0,00 0,00 0,00 0,00 0,00 1.717,00 21.770,92 3.001,84 3.819,96 0,00 0,00 6.821,80 14.949,12 31/01/2022
656 511400 DANIELA MARIA LARA DE OLIVEIRA ANALISTA DO MP BOA ESPERANÇA - COMARCA; BOA ESPERANCA-PJ-02PJ 10.069,62 2.013,92 0,00 0,00 4.027,85 0,00 531,68 8.286,49 24.929,56 1.726,58 3.034,33 0,00 0,00 4.760,91 20.168,65 31/01/2022
657 252101 DANIELA PAULA ALVES PENA ANALISTA DO MP CONTAGEM - COMARCA; CONTAGEM-PJ-APO TECNICO 14.790,66 5.916,26 0,00 0,00 0,00 0,00 531,48 7.514,94 28.753,34 3.106,32 3.970,80 0,00 0,00 7.077,12 21.676,22 31/01/2022
658 604700 DANIELA PEIXOTO NOGUEIRA COORDENADOR/OFICIAL BELO HORIZONTE - COMARCA; DIRET DE FORMACAO, APERFEIC. E POS-GRADUACAO 0,00 1.181,92 11.819,15 -57,34 0,00 0,00 474,03 2.486,39 15.904,15 872,76 2.474,05 0,00 444,49 3.791,30 12.112,85 31/01/2022
659 662000 DANIELA RIBAS DE AVILA ASSESSOR BELO HORIZONTE - COMARCA; CENTRO AUTOCOMPOSICAO DE CONFLITOS 0,00 0,00 8.170,49 0,00 0,00 0,00 389,46 5.965,65 14.525,60 828,38 1.479,17 0,00 0,00 2.307,55 12.218,05 31/01/2022
660 711600 DANIELA SOTTE DE OLIVEIRA NEVES ASSESSOR PROMOTOR JUSTICA AIURUOCA - COMARCA; AIURUOCA-PJ-UNPJ 0,00 0,00 7.187,72 0,00 0,00 0,00 0,00 1.717,00 8.904,72 828,38 1.208,91 0,00 0,00 2.037,29 6.867,43 31/01/2022
661 462000 DANIELA SOUSA GOMES DO AMARAL ANALISTA DO MP BETIM - COMARCA; BETIM-PJ-04PJ 11.085,56 2.217,11 0,00 0,00 0,00 0,00 536,54 7.570,17 21.409,38 1.921,64 2.260,42 0,00 0,00 4.182,06 17.227,32 31/01/2022
662 427000 DANIELA TEIXEIRA DINIZ ANDRADE ANALISTA DO MP BELO HORIZONTE - COMARCA; DIRETORIA DE PROJETOS DE EDIFICACOES 10.069,62 2.013,92 0,00 0,00 0,00 0,00 0,00 1.717,00 13.800,54 1.726,58 1.926,67 0,00 0,00 3.653,25 10.147,29 31/01/2022
663 337200 DANIELA TOLEDO SENIUK ANALISTA DO MP BELO HORIZONTE - COMARCA; GABINETE DE PROCURADOR DE JUSTIÇA - SALA 412 16.750,82 5.025,25 0,00 0,00 0,00 0,00 0,00 1.717,00 23.493,07 3.277,38 4.217,78 0,00 0,00 7.495,16 15.997,91 31/01/2022
664 605600 DANIELE ALZIRA SILVA CABRAL MOREIRA OFICIAL DO MP BELO HORIZONTE - COMARCA; BH-10PJ EXECUÇÃO PENAL-SECRETARIA 6.123,79 612,38 0,00 0,00 0,00 0,00 0,00 2.178,63 8.914,80 872,76 743,08 0,00 0,00 1.615,84 7.298,96 31/01/2022
665 195500 DANIELE CHAVES FONSECA OFICIAL DO MP BELO HORIZONTE - COMARCA; EXTINTA-CGMP-DIV APOIO FISC ORIENT FUNCIONAL 16.112,82 6.445,13 0,00 0,00 0,00 0,00 496,28 7.130,91 30.185,14 3.402,49 4.398,39 0,00 0,00 7.800,88 22.384,26 31/01/2022
666 323400 DANIELE MEGALE SANTINI OFICIAL DO MP BELO HORIZONTE - COMARCA; EXTINTA-CGMP-DIV APOIO FISC ORIENT FUNCIONAL 10.736,08 3.220,82 0,00 0,00 4.652,30 0,00 511,75 7.299,76 26.420,71 2.026,32 3.638,80 0,00 0,00 5.665,12 20.755,59 31/01/2022
667 357900 DANIELE REJANE PINTO VERSIEUX OFICIAL DO MP PEDRO LEOPOLDO - COMARCA; PEDRO LEOPOLDO-PJ-03PJ 10.069,62 3.020,89 0,00 0,00 0,00 0,00 527,98 7.476,82 21.095,31 1.887,70 2.211,41 0,00 0,00 4.099,11 16.996,20 31/01/2022
668 389500 DANIELE VASCONCELOS AMORIM PRADO OFICIAL DO MP SÃO SEBASTIÃO DO PARAÍSO - COMARCA; SAO SEBASTIAO DO PARAISO-PJ-04PJ 9.146,93 1.829,39 0,00 0,00 0,00 0,00 0,00 1.717,00 12.693,32 1.549,42 1.723,04 0,00 0,00 3.272,46 9.420,86 31/01/2022
669 629700 DANIELLA BASTOS MARTINS BICALHO OFICIAL DO MP GOVERNADOR VALADARES - COMARCA; GOVERNADOR VALADARES-PJ-16PJ 5.930,75 593,08 0,00 0,00 0,00 0,00 526,26 7.457,97 14.508,06 839,85 693,74 0,00 0,00 1.533,59 12.974,47 31/01/2022
670 265000 DANIELLE CASTANHEIRA SCALABRINI OFICIAL DO MP BELO HORIZONTE - COMARCA; JUNTA RECURSAL DO PROCON ESTADUAL 10.069,62 3.020,89 0,00 0,00 0,00 0,00 527,98 7.476,82 21.095,31 1.887,70 2.159,28 0,00 0,00 4.046,98 17.048,33 31/01/2022
671 490100 DANIELLE DE AVILA SILVA LOPES ANALISTA DO MP BELO HORIZONTE - COMARCA; PROC. JUSTICA DIR. DIFUSOS E COLETIVOS-SEC 10.069,62 3.020,89 0,00 0,00 0,00 0,00 0,00 2.486,39 15.576,90 1.887,70 2.211,41 0,00 0,00 4.099,11 11.477,79 31/01/2022
672 711100 DANIELLE DOMINGOS LOPES DE MELO ASSESSOR PROCURADOR JUSTICA BELO HORIZONTE - COMARCA; GABINETE DE PROCURADOR DE JUSTIÇA - SALA 703 0,00 0,00 7.187,72 0,00 0,00 0,00 0,00 1.717,00 8.904,72 828,38 1.208,91 0,00 0,00 2.037,29 6.867,43 31/01/2022
673 549600 DANIELLE GOMES LOPES RODRIGUES OFICIAL DO MP VESPASIANO - COMARCA; VESPASIANO-PJ-02PJ 6.123,79 612,38 0,00 0,00 0,00 0,00 0,00 1.717,00 8.453,17 872,76 743,08 0,00 0,00 1.615,84 6.837,33 31/01/2022
674 613000 DANIELLE SILVA OLIVEIRA FRANKLIN ASSESSOR/OFICIAL BELO HORIZONTE - COMARCA; DIRETORIA DE ORCAMENTO-DIOR/SPC 0,00 1.039,75 10.397,52 0,00 0,00 0,00 545,18 8.433,77 20.416,22 839,85 2.044,93 0,00 0,00 2.884,78 17.531,44 31/01/2022
675 380800 DANILLO RIBEIRO ANTUNES ANALISTA DO MP MONTES CLAROS - COMARCA; MONTES CLAROS-PJ-SECRETARIA 14.790,66 2.958,13 0,00 0,00 5.916,26 0,00 520,63 7.396,61 31.582,29 2.633,02 4.862,31 0,00 0,00 7.495,33 24.086,96 31/01/2022
676 453700 DANILO BOTELHO DE CARVALHO DIRETOR/ANALISTA BELO HORIZONTE - COMARCA; SUPERINTENDENCIA DE FINANCAS 0,00 3.482,78 17.413,92 -132,91 0,00 0,00 523,83 8.200,85 29.488,47 2.291,42 3.962,54 0,00 1.034,72 7.288,68 22.199,79 31/01/2022
677 391200 DANILO D'AVILA MENDES ANALISTA DO MP MONTES CLAROS - COMARCA; GAECO REGIONAL DE MONTES CLAROS 14.790,66 2.958,13 0,00 0,00 0,00 0,00 520,63 8.166,00 26.435,42 2.633,02 3.287,48 0,00 0,00 5.920,50 20.514,92 31/01/2022
678 710900 DANILO DE SOUZA RODRIGUES ASSESSOR PROMOTOR JUSTICA IPANEMA - COMARCA; IPANEMA-PJ-01PJ 0,00 0,00 7.187,72 0,00 0,00 0,00 0,00 1.717,00 8.904,72 828,38 1.208,91 0,00 0,00 2.037,29 6.867,43 31/01/2022
679 494900 DANILO GAVIAO AVELINO DE MELLO ANALISTA DO MP POUSO ALEGRE - COMARCA; GAECO REGIONAL DE POUSO ALEGRE 10.069,62 2.013,92 0,00 0,00 4.027,85 0,00 531,68 7.722,27 24.365,34 1.726,58 3.086,46 0,00 0,00 4.813,04 19.552,30 31/01/2022
680 604300 DANILO NASCIMENTO SALGADO ANALISTA DO MP JANAÚBA - COMARCA; JANAUBA-PJ-01PJ 9.444,70 944,47 0,00 0,00 0,00 0,00 533,31 7.534,94 18.457,42 1.455,48 1.587,40 0,00 0,00 3.042,88 15.414,54 31/01/2022
681 298300 DANUZA MONICA DE SOUZA DINIZ ANALISTA DO MP BELO HORIZONTE - COMARCA; CAO-FUNDACOES-ASSESSORIA JURIDICA 17.413,92 5.224,18 0,00 0,00 0,00 0,00 498,04 7.150,14 30.286,28 3.415,31 4.364,77 0,00 0,00 7.780,08 22.506,20 31/01/2022
682 398700 DARCY LUIZ MILEO GREGATTI OFICIAL DO MP LAMBARI - COMARCA; LAMBARI-PJ-SECRETARIA 9.444,70 1.888,94 0,00 0,00 0,00 0,00 0,00 1.717,00 13.050,64 1.606,60 1.805,58 0,00 0,00 3.412,18 9.638,46 31/01/2022
683 406200 DARIANA AUGUSTA DE TOLEDO PATROCINIO RUIZ COORDENADOR/OFICIAL BELO HORIZONTE - COMARCA; DIRETORIA GESTAO COMPRAS LICITACOES 0,00 2.687,03 13.435,16 -93,47 0,00 0,00 532,03 8.290,38 24.851,13 1.549,42 2.938,61 0,00 725,61 5.213,64 19.637,49 31/01/2022
684 586901 DARIO VITORINO DE CARVALHO SILVA ASSESSOR BELO HORIZONTE - COMARCA; DIRETORIA DE SEGURANCA 0,00 0,00 17.413,92 0,00 0,00 0,00 510,81 7.289,45 25.214,18 828,38 3.968,98 0,00 0,00 4.797,36 20.416,82 31/01/2022
685 305000 DARLI LEITE DE OLIVEIRA OFICIAL DO MP ARAÇUAÍ - COMARCA; ARACUAI-PJ-01PJ 6.123,79 1.837,14 0,00 0,00 0,00 0,00 291,90 4.901,37 13.154,20 1.066,96 870,07 0,00 0,00 1.937,03 11.217,17 31/01/2022
686 703700 DAVID ALVES DOS SANTOS ASSESSOR PROMOTOR JUSTICA BELO HORIZONTE - COMARCA; CENTRO AUTOCOMPOSICAO DE CONFLITOS 0,00 0,00 7.187,72 0,00 0,00 0,00 0,00 1.717,00 8.904,72 828,38 1.208,91 0,00 0,00 2.037,29 6.867,43 31/01/2022
687 122200 DAVID RIBEIRO DOS SANTOS ANALISTA DO MP BORDA DA MATA - COMARCA; BORDA DA MATA-PJ-UNPJ 18.820,14 15.056,11 0,00 0,00 1.744,16 5.213,41 496,85 7.137,20 48.467,87 5.213,41 8.926,25 0,00 0,00 14.139,66 34.328,21 31/01/2022
688 389400 DAWSON CANEDO MARQUES OFICIAL DO MP TRÊS CORACOES - COMARCA; TRES CORACOES-PJ-01PJ 9.146,93 1.829,39 0,00 0,00 0,00 0,00 523,20 7.424,69 18.924,21 1.549,42 923,12 0,00 0,00 2.472,54 16.451,67 31/01/2022
689 537200 DAYANE TEIXEIRA DE OLIVEIRA CASELLI ANALISTA DO MP BELO HORIZONTE - COMARCA; ASSESS TECNICO-JUR JUNTO AS PROC. DE JUST 8.170,49 817,05 0,00 0,00 0,00 0,00 0,00 1.717,00 10.704,54 1.231,22 1.263,63 0,00 0,00 2.494,85 8.209,69 31/01/2022
690 256100 DAYSE ROSALY PEREIRA BATISTA OFICIAL DO MP BELO HORIZONTE - COMARCA; BH-08PJ JUIZADO ESPECIAL-SECRETARIA 10.069,62 3.020,89 0,00 0,00 0,00 0,00 0,00 1.717,00 14.807,51 1.887,70 2.211,41 0,00 0,00 4.099,11 10.708,40 31/01/2022
691 311901 DEBORA APARECIDA DA SILVA ASSESSOR BELO HORIZONTE - COMARCA; BH-23PJ CIVEL-SETOR ATEND PUB 0,00 0,00 3.076,28 0,00 0,00 0,00 0,00 1.717,00 4.793,28 434,57 227,80 0,00 0,00 662,37 4.130,91 31/01/2022
692 194301 DEBORA APARECIDA DOS SANTOS ANALISTA DO MP UBERLÂNDIA - COMARCA; UBERLANDIA-PJ-SEC FAMILIA 18.820,14 7.528,06 0,00 0,00 8.782,73 0,00 483,05 6.986,64 42.600,62 4.008,93 7.689,19 0,00 0,00 11.698,12 30.902,50 31/01/2022
693 518800 DEBORA CARVALHO FIORATTO COORDENADOR/OFICIAL BELO HORIZONTE - COMARCA; DIRETORIA MATERIAIS E SERVICOS 0,00 2.687,03 13.435,16 1.220,91 0,00 0,00 1.383,30 1.717,00 20.443,40 1.479,54 3.537,78 0,00 0,00 5.017,32 15.426,08 31/01/2022
694 444900 DEBORA CLAUDIA PEREIRA ALVES ANALISTA DO MP BELO HORIZONTE - COMARCA; BH-08PJ JUIZADO ESPECIAL-SECRETARIA 10.736,08 2.147,22 0,00 0,00 0,00 0,00 519,63 7.385,65 20.788,58 1.854,54 2.421,60 0,00 0,00 4.276,14 16.512,44 31/01/2022
695 617700 DEBORA COMANDUCI SCHREIDER ANALISTA DO MP BICAS - COMARCA; BICAS-PJ-UNPJ 9.146,93 914,69 0,00 0,00 0,00 0,00 0,00 1.717,00 11.778,62 1.403,07 1.459,60 0,00 0,00 2.862,67 8.915,95 31/01/2022
696 555700 DEBORA CRISTINA BUITRAGO PEREIRA ANALISTA DO MP BELO HORIZONTE - COMARCA; DIRETORIA GESTAO CONTRATOS CONVENIOS 9.444,70 944,47 0,00 0,00 0,00 0,00 0,00 3.255,78 13.644,95 1.455,48 1.587,40 0,00 0,00 3.042,88 10.602,07 31/01/2022
697 513100 DEBORA CRISTINA PEREIRA DE OLIVEIRA ANALISTA DO MP BELO HORIZONTE - COMARCA; BH-23PJ CIVEL-SETOR JURIDICO 10.736,08 2.147,22 0,00 0,00 4.294,43 0,00 0,00 2.486,39 19.664,12 1.854,54 3.344,52 0,00 0,00 5.199,06 14.465,06 31/01/2022
698 612100 DEBORA DUARTE SILVA DE SOUZA OFICIAL DO MP RIBEIRÃO DAS NEVES - COMARCA; RIBEIRAO DAS NEVES-PJ-06PJ 5.930,75 1.779,23 0,00 0,00 0,00 0,00 537,13 7.576,58 15.823,69 1.026,81 864,24 0,00 0,00 1.891,05 13.932,64 31/01/2022
699 539700 DEBORA SALES CARVALHO ANALISTA DO MP PATOS DE MINAS - COMARCA; COORD REG PJ DEF EDU DIR CRI ADO AL PAR NOROE 9.444,70 944,47 0,00 0,00 0,00 0,00 0,00 1.717,00 12.106,17 771,91 1.707,28 0,00 0,00 2.479,19 9.626,98 31/01/2022
700 424100 DEBORA SANTOS E ALVES ANALISTA DO MP JANUÁRIA - COMARCA; JANUARIA-PJ-01PJ 14.324,23 2.864,85 0,00 0,00 0,00 0,00 504,21 8.756,29 26.449,58 2.543,47 3.158,18 0,00 0,00 5.701,65 20.747,93 31/01/2022
701 426301 DEBORA SCUCATO MACHADO SOARES OFICIAL DO MP ITABIRITO - COMARCA; ITABIRITO-PJ-01PJ 6.123,79 1.224,76 0,00 0,00 0,00 0,00 538,89 8.365,23 16.252,67 968,98 885,02 0,00 0,00 1.854,00 14.398,67 31/01/2022
702 678100 DEBORA SOUZA COSTA ASSESSOR PROMOTOR JUSTICA BOTELHOS - COMARCA; BOTELHOS-PJ-UNPJ 0,00 0,00 7.187,72 0,00 0,00 0,00 0,00 2.486,39 9.674,11 828,38 1.156,77 0,00 0,00 1.985,15 7.688,96 31/01/2022
703 550200 DEBORA TRINDADE LEITE ANALISTA DO MP MANHUAÇU - COMARCA; MANHUACU-PJ-05PJ 9.444,70 944,47 0,00 0,00 0,00 0,00 0,00 1.717,00 12.106,17 1.455,48 1.483,13 0,00 0,00 2.938,61 9.167,56 31/01/2022
704 438000 DEBORAH COSTA LAGE ANALISTA DO MP BELO HORIZONTE - COMARCA; PROC JUST ATUACAO TRIBUNAIS SUPERIORES-GAB006 14.324,23 2.864,85 0,00 0,00 0,00 0,00 0,00 1.717,00 18.906,08 2.543,47 3.158,18 0,00 0,00 5.701,65 13.204,43 31/01/2022
705 475700 DEBORAH LOBAO LACERDA ASSESSOR/OFICIAL BELO HORIZONTE - COMARCA; BH-17PJ PATRIMONIO PUBLICO-SECRETARIA 0,00 1.634,10 8.170,49 0,00 3.268,20 0,00 0,00 1.717,00 14.789,79 968,98 2.459,19 0,00 0,00 3.428,17 11.361,62 31/01/2022
706 613700 DEISER MARIA FERREIRA ROSCOE OFICIAL DO MP BELO HORIZONTE - COMARCA; DIVISÃO DE EDUCAÇÃO PARA O CONSUMO 5.930,75 593,08 0,00 0,00 0,00 0,00 526,26 7.457,97 14.508,06 839,85 693,74 0,00 0,00 1.533,59 12.974,47 31/01/2022
707 551900 DEISY ROCHA DA SILVA ANALISTA DO MP CARMO DO PARANAÍBA - COMARCA; CARMO DO PARANAIBA-PJ-01PJ 9.444,70 944,47 0,00 0,00 0,00 0,00 533,31 7.534,94 18.457,42 1.455,48 1.587,40 0,00 0,00 3.042,88 15.414,54 31/01/2022
708 501900 DELI RAQUEL RODRIGUES ANALISTA DO MP ITUIUTABA - COMARCA; ITUIUTABA-PJ-04PJ 10.069,62 2.013,92 0,00 0,00 0,00 0,00 0,00 1.717,00 13.800,54 1.726,58 1.978,80 0,00 0,00 3.705,38 10.095,16 31/01/2022
709 378600 DELIANE LOPES VIEIRA BREIJAO ANALISTA DO MP JUIZ DE FORA - COMARCA; JUIZ DE FORA-PJ-12PJ 14.790,66 2.958,13 0,00 0,00 0,00 0,00 520,63 7.396,61 25.666,03 2.633,02 3.235,34 0,00 0,00 5.868,36 19.797,67 31/01/2022
710 487700 DENIA FERREIRA MAIA SILVA OFICIAL DO MP TRÊS CORACOES - COMARCA; TRES CORACOES-PJ-04PJ 6.123,79 1.224,76 0,00 0,00 0,00 0,00 0,00 1.815,28 9.163,83 968,98 780,75 0,00 0,00 1.749,73 7.414,10 31/01/2022
711 424800 DENIS APARECIDO CAMPOS DELFINO ANALISTA DO MP LUZ - COMARCA; LUZ-PJ-UNPJ 13.011,52 2.602,30 0,00 0,00 0,00 0,00 515,26 8.107,37 24.236,45 2.291,42 2.585,75 0,00 0,00 4.877,17 19.359,28 31/01/2022
712 381400 DENISE ANGELICA MELLO DE PAULA OFICIAL DO MP BELO HORIZONTE - COMARCA; BH-18PJ DIREITOS HUMANOS-SECRETARIA 9.146,93 1.829,39 0,00 0,00 0,00 0,00 0,00 2.486,39 13.462,71 1.549,42 1.723,04 0,00 0,00 3.272,46 10.190,25 31/01/2022
713 702100 DENISE CANDIDO LIMA MACEDO KATOPODIS ASSESSOR PROCURADOR JUSTICA BELO HORIZONTE - COMARCA; GABINETE DE PROCURADOR DE JUSTIÇA - SALA 514 0,00 0,00 7.187,72 0,00 0,00 0,00 0,00 1.717,00 8.904,72 828,38 1.208,91 0,00 0,00 2.037,29 6.867,43 31/01/2022
714 196300 DENISE DE ALMEIDA VILELA FURTADO OFICIAL DO MP BELO HORIZONTE - COMARCA; CENTRAL DE APOIO TECNICO-SECRETARIA 15.272,02 6.108,81 0,00 0,00 0,00 0,00 0,00 2.870,54 24.251,37 3.214,15 4.126,48 0,00 0,00 7.340,63 16.910,74 31/01/2022
715 271100 DENISE ELOY PEIXOTO OFICIAL DO MP BELO HORIZONTE - COMARCA; DIRETORIA DE INTELIGENCIA 13.011,52 3.903,46 0,00 0,00 0,00 0,00 496,17 7.129,79 24.540,94 2.499,61 3.094,87 0,00 0,00 5.594,48 18.946,46 31/01/2022
716 385400 DENISE FREITAS DE ASSIS ASSESSOR/OFICIAL CARATINGA - COMARCA; CARATINGA-PJ-SECRETARIA 0,00 2.079,50 10.397,52 -90,50 4.159,01 0,00 0,00 1.717,00 18.262,53 1.494,03 3.101,49 0,00 702,55 5.298,07 12.964,46 31/01/2022
717 437100 DENISE NOGUEIRA MAGRI MENDES ANALISTA DO MP BELO HORIZONTE - COMARCA; LAB TECNOLOGIA CONTRA LAVAGEM DINHEIRO 14.324,23 4.297,27 0,00 0,00 0,00 0,00 0,00 1.717,00 20.338,50 2.772,65 3.332,66 0,00 0,00 6.105,31 14.233,19 31/01/2022
718 524700 DENISE RAMOS GUIMARAES OFICIAL DO MP BELO HORIZONTE - COMARCA; BH-07PJ 01 TRIBUNAL JURI-SECRETARIA 6.123,79 612,38 0,00 0,00 0,00 0,00 0,00 1.717,00 8.453,17 872,76 743,08 0,00 0,00 1.615,84 6.837,33 31/01/2022
719 239100 DENISE RIBEIRO DOS SANTOS CAETANO OFICIAL DO MP ITANHANDU - COMARCA; ITANHANDU-PJ-SECRETARIA 13.011,52 3.903,46 0,00 0,00 0,00 0,00 496,17 7.129,79 24.540,94 2.499,61 3.042,73 0,00 0,00 5.542,34 18.998,60 31/01/2022
720 325500 DENISE ROSA TORRES OFICIAL DO MP BELO HORIZONTE - COMARCA; DIRETORIA DE PESSOAL ADMINISTRATIVO - DPAD 10.736,08 3.220,82 0,00 0,00 0,00 0,00 511,75 7.299,76 21.768,41 2.026,32 2.411,55 0,00 0,00 4.437,87 17.330,54 31/01/2022
721 437200 DENISE VIVIANE DOS SANTOS ANALISTA DO MP BELO HORIZONTE - COMARCA; CGMP-ASSESSORIA JURIDICA 12.204,02 2.440,80 0,00 0,00 0,00 0,00 0,00 2.870,54 17.515,36 2.136,38 2.466,19 0,00 0,00 4.602,57 12.912,79 31/01/2022
722 267900 DENISIA DE ALMEIDA SALES OFICIAL DO MP BELO HORIZONTE - COMARCA; BH-18PJ DIREITOS HUMANOS-SECRETARIA 10.069,62 3.020,89 0,00 0,00 4.363,50 0,00 0,00 1.717,00 19.171,01 1.887,70 3.359,24 0,00 0,00 5.246,94 13.924,07 31/01/2022
723 480300 DESIREE ARANTES FERREIRA GOUVEA OFICIAL DO MP PRATÁPOLIS - COMARCA; PRATAPOLIS-PJ-UNPJ 6.123,79 1.224,76 0,00 0,00 0,00 968,98 0,00 1.717,00 10.034,53 968,98 1.151,49 0,00 0,00 2.120,47 7.914,06 31/01/2022
724 355300 DEYSE CRISTINA MORAIS OFICIAL DO MP PASSOS - COMARCA; PASSOS-PJ-02PJ 9.752,14 2.925,64 0,00 0,00 4.225,93 0,00 511,34 7.295,22 24.710,27 1.821,66 3.278,20 0,00 0,00 5.099,86 19.610,41 31/01/2022
725 523700 DIANA CAMPOS RESENDE OFICIAL DO MP SÃO JOÃO DEL REI - COMARCA; SAO JOAO DEL REI-PJ-04PJ 7.663,37 3.831,69 0,00 0,00 0,00 0,00 0,00 1.717,00 13.212,06 1.632,42 1.790,73 0,00 0,00 3.423,15 9.788,91 31/01/2022
726 241900 DIANA CARDOSO MARTINS OFICIAL DO MP BELO HORIZONTE - COMARCA; CAO-CRIMINAL 10.069,62 3.020,89 0,00 0,00 0,00 0,00 0,00 1.717,00 14.807,51 1.887,70 2.211,41 0,00 0,00 4.099,11 10.708,40 31/01/2022
727 410100 DIANA GORDILHO SILVEIRA SENA ANALISTA DO MP BELO HORIZONTE - COMARCA; BH-06PJ JUIZO CIVEL-SECRETARIA 14.324,23 2.864,85 0,00 0,00 0,00 0,00 504,21 7.217,51 24.910,80 2.543,47 3.158,18 0,00 0,00 5.701,65 19.209,15 31/01/2022
728 553000 DIANA MARIA MARQUES ANALISTA DO MP BETIM - COMARCA; BETIM-PJ-13PJ 9.444,70 944,47 0,00 0,00 0,00 0,00 533,31 7.534,94 18.457,42 1.455,48 1.535,27 0,00 0,00 2.990,75 15.466,67 31/01/2022
729 520000 DIARLE TOSTE DOS SANTOS ANALISTA DO MP RIO POMBA - COMARCA; RIO POMBA-PJ-UNPJ 10.069,62 2.013,92 0,00 845,84 335,65 0,00 1.538,64 7.517,10 22.320,77 1.887,69 1.492,67 0,00 0,00 3.380,36 18.940,41 31/01/2022
730 539800 DIEGO CAMARGOS RODRIGUES OFICIAL DO MP CONTAGEM - COMARCA; CONTAGEM-PJ-05PJ 6.123,79 612,38 0,00 0,00 0,00 0,00 0,00 1.717,00 8.453,17 872,76 743,08 0,00 0,00 1.615,84 6.837,33 31/01/2022
731 607300 DIEGO CERVEIRA DE SOUZA ANALISTA DO MP PATOS DE MINAS - COMARCA; COORD REG BACIAS PARACATU,URUCUIA E ABAETE 10.069,62 1.006,96 0,00 0,00 0,00 0,00 0,00 1.717,00 12.793,58 927,17 1.839,45 0,00 0,00 2.766,62 10.026,96 31/01/2022
732 446900 DIEGO DE FREITAS OFICIAL DO MP UBERABA - COMARCA; UBERABA-PJ-06PJ 8.436,53 1.687,31 0,00 0,00 0,00 0,00 519,69 7.386,35 18.029,88 1.413,03 1.526,11 0,00 0,00 2.939,14 15.090,74 31/01/2022
733 288800 DILENE NEPOMUCENO ALVES OFICIAL DO MP BELO HORIZONTE - COMARCA; DIRETORIA DE PESSOAL ADMINISTRATIVO - DPAD 10.069,62 3.020,89 0,00 0,00 0,00 0,00 527,98 7.476,82 21.095,31 1.887,70 2.211,41 0,00 0,00 4.099,11 16.996,20 31/01/2022
734 681200 DILLIANY PAULA LOPES SERRANO ASSESSOR PROMOTOR JUSTICA RESPLENDOR - COMARCA; RESPLENDOR-PJ-UNPJ 0,00 0,00 7.187,72 0,00 0,00 0,00 527,10 7.467,18 15.182,00 741,83 1.232,71 0,00 0,00 1.974,54 13.207,46 31/01/2022
735 270101 DILSON DO AMARAL ANALISTA DO MP RIO CASCA - COMARCA; RIO CASCA-PJ-UNPJ 9.444,70 944,47 0,00 0,00 0,00 0,00 0,00 1.717,00 12.106,17 1.455,48 1.587,40 0,00 0,00 3.042,88 9.063,29 31/01/2022
736 466000 DIMITRI GUDE MARCIAL ANALISTA DO MP NANUQUE - COMARCA; NANUQUE-PJ-02PJ 10.069,62 2.013,92 0,00 0,00 4.027,85 0,00 531,68 8.286,49 24.929,56 1.726,58 2.982,19 0,00 0,00 4.708,77 20.220,79 31/01/2022
737 516300 DINORA APARECIDA MACEDO BRANDAO ANALISTA DO MP BELO HORIZONTE - COMARCA; BH-19PJ SAUDE-SECRETARIA 150PJ 9.752,14 1.950,43 0,00 0,00 3.900,86 0,00 514,91 7.334,23 23.452,57 1.665,62 2.963,54 0,00 0,00 4.629,16 18.823,41 31/01/2022
738 511700 DIOGENES HENRIQUES PEREIRA LOURENCO ANALISTA DO MP BELO HORIZONTE - COMARCA; BH-03PJ EMPRESARIAL-SECRETARIA 10.069,62 2.013,92 0,00 0,00 0,00 0,00 531,68 8.286,49 20.901,71 297,37 2.268,79 0,00 0,00 2.566,16 18.335,55 31/01/2022
739 604100 DIOGO CESAR DE OLIVEIRA HONORIO ASSESSOR PIUMHI - COMARCA; PIUMHI-PJ-02PJ 0,00 0,00 8.170,49 910,25 0,00 0,00 910,25 1.717,00 11.707,99 828,38 1.729,49 0,00 0,00 2.557,87 9.150,12 31/01/2022
740 259600 DIOGO MESQUITA MAIA ANALISTA DO MP BELO HORIZONTE - COMARCA; DIRET DE APOIO AS PROCURADORIAS DE JUSTICA 17.413,92 13.931,14 0,00 0,00 12.051,16 4.808,42 459,73 6.732,21 55.396,58 4.808,42 11.012,46 0,00 0,00 15.820,88 39.575,70 31/01/2022
741 386700 DIRCIMAR FERNANDES CARNEIRO OFICIAL DO MP VISCONDE DO RIO BRANCO - COMARCA; VISCONDE DO RIO BRANCO-PJ-03PJ 9.146,93 6.402,85 0,00 0,00 0,00 0,00 513,14 7.375,40 23.438,32 2.281,18 2.779,51 0,00 0,00 5.060,69 18.377,63 31/01/2022
742 113800 DIRSON APARECIDO GUIMARAES ASSESSOR BELO HORIZONTE - COMARCA; DIVISAO DE MANUTENCAO PREDIAL 0,00 4.622,69 5.136,32 0,00 0,00 0,00 0,00 1.717,00 11.476,01 828,38 1.916,01 0,00 0,00 2.744,39 8.731,62 31/01/2022
743 216700 DOMICIO VALDETE PEREIRA OFICIAL DO MP TEÓFILO OTONI - COMARCA; COORD REG PJ DEF EDU DIR CRIAN ADOL JEQUI MUC 15.272,02 6.108,81 0,00 0,00 0,00 0,00 548,77 7.703,63 29.633,23 3.214,15 4.022,20 0,00 0,00 7.236,35 22.396,88 31/01/2022
744 192701 DONIZETTI APARECIDO AMORIM ANALISTA DO MP PRATÁPOLIS - COMARCA; PRATAPOLIS-PJ-UNPJ 10.069,62 4.027,85 0,00 0,00 0,00 0,00 0,00 1.717,00 15.814,47 2.048,81 2.391,88 0,00 0,00 4.440,69 11.373,78 31/01/2022
745 558700 DORCILIA FATIMA DE OLIVEIRA OFICIAL DO MP DIVINÓPOLIS - COMARCA; DIVINOPOLIS-PJ-02PJ 6.123,79 612,38 0,00 0,00 296,69 872,76 543,38 7.644,83 16.093,83 872,76 1.012,54 0,00 0,00 1.885,30 14.208,53 31/01/2022
746 555300 DOUGLAS CUNHA DE SOUZA ANALISTA DO MP VARZEA DA PALMA - COMARCA; VARZEA DA PALMA-PJ-01PJ 9.444,70 944,47 0,00 0,00 0,00 0,00 0,00 1.717,00 12.106,17 1.455,48 1.587,40 0,00 0,00 3.042,88 9.063,29 31/01/2022
747 265900 DOUGLAS GOMES MOREIRA ANALISTA DO MP BELO HORIZONTE - COMARCA; CENTRAL DE APOIO TECNICO-SETOR DE ENGENHARIA 18.820,14 5.646,04 0,00 0,00 0,00 0,00 0,00 1.717,00 26.183,18 3.707,80 4.839,19 0,00 0,00 8.546,99 17.636,19 31/01/2022
748 241000 DOUGLAS MEIRELLES DE CASTRO OFICIAL DO MP CONCEIÇÃO DO RIO VERDE - COMARCA; CONCEICAO DO RIO VERDE-PJ-UNPJ 13.011,52 5.204,61 0,00 0,00 0,00 0,00 534,34 7.546,16 26.296,63 2.707,79 3.291,16 0,00 0,00 5.998,95 20.297,68 31/01/2022
749 534900 DOUGLAS SILVA E SOUZA ANALISTA DO MP CAMPOS GERAIS - COMARCA; CAMPOS GERAIS-PJ-01PJ 9.444,70 944,47 0,00 0,00 0,00 0,00 533,31 7.534,94 18.457,42 757,92 1.658,99 0,00 0,00 2.416,91 16.040,51 31/01/2022
750 638900 DOUGLAS WALLAS CONCEICAO NEVES OFICIAL DO MP RIBEIRÃO DAS NEVES - COMARCA; RIBEIRAO DAS NEVES-PJ-SEC CIVEL 4.974,42 497,44 0,00 0,00 0,00 0,00 0,00 1.717,00 7.188,86 681,38 448,02 0,00 0,00 1.129,40 6.059,46 31/01/2022
751 146800 DUCINALVA AMARAL LOPES REIS OFICIAL DO MP PARAISÓPOLIS - COMARCA; PARAISOPOLIS-PJ-UNPJ 18.820,14 13.174,10 0,00 0,00 1.643,79 4.912,29 469,25 6.836,08 45.855,65 4.912,29 8.276,82 0,00 0,00 13.189,11 32.666,54 31/01/2022
752 122500 DUILIO CARLOS FERREIRA UTSCH OFICIAL DO MP CONCEIÇÃO DO MATO DENTRO - COMARCA; CONCEICAO DO MATO DENTRO-PJ-UNPJ 15.272,02 12.217,62 0,00 233,95 1.403,54 6.005,71 0,00 1.717,00 36.849,84 4.191,56 7.076,26 0,00 0,00 11.267,82 25.582,02 31/01/2022
753 201800 DULCINEIA ANDRE DE SOUZA OFICIAL DO MP JEQUITINHONHA - COMARCA; JEQUITINHONHA-PJ-SECRETARIA 15.272,02 6.108,81 0,00 0,00 0,00 0,00 548,77 7.703,63 29.633,23 3.214,15 3.970,07 0,00 0,00 7.184,22 22.449,01 31/01/2022
754 395800 DUVIDIER MEDIRCIO JUNIOR ANALISTA DO MP BELO HORIZONTE - COMARCA; CENTRAL DE APOIO TECNICO-SETOR DE ENGENHARIA 15.499,20 3.099,84 0,00 0,00 0,00 0,00 0,00 1.717,00 20.316,04 2.769,06 3.483,88 0,00 0,00 6.252,94 14.063,10 31/01/2022
755 604800 ECIA RAMILIS ISSA DE ABREU ANALISTA DO MP BRASÍLIA DE MINAS - COMARCA; BRASILIA DE MINAS-PJ-01PJ 9.444,70 944,47 0,00 0,00 0,00 0,00 533,31 7.534,94 18.457,42 1.455,48 1.587,40 0,00 0,00 3.042,88 15.414,54 31/01/2022
756 273000 EDELFINA APARECIDA GUIMARAES OFICIAL DO MP CACHOEIRA DE MINAS - COMARCA; CACHOEIRA DE MINAS-PJ-UNPJ 10.736,08 7.515,26 0,00 0,00 0,00 0,00 0,00 1.717,00 19.968,34 2.713,43 3.351,43 0,00 0,00 6.064,86 13.903,48 31/01/2022
757 523300 EDER DOS SANTOS PATRICIO ANALISTA DO MP NOVA SERRANA - COMARCA; NOVA SERRANA-PJ-03PJ 10.069,62 1.006,96 0,00 0,00 0,00 0,00 527,98 8.246,21 19.850,77 927,17 1.787,31 0,00 0,00 2.714,48 17.136,29 31/01/2022
758 356700 EDER JOSE PACHECO OFICIAL DO MP CAMPO BELO - COMARCA; CAMPO BELO-PJ-SECRETARIA 10.069,62 3.020,89 0,00 0,00 0,00 0,00 4.719,26 8.246,21 26.055,98 1.887,70 3.259,74 0,00 0,00 5.147,44 20.908,54 31/01/2022
759 507900 EDERSON SILVA LOPES OFICIAL DO MP BELO HORIZONTE - COMARCA; LABORATORIO TECNOLOGIA INTELIGENCIA 7.187,72 1.437,54 0,00 0,00 0,00 0,00 537,64 7.582,18 16.745,08 1.173,26 1.075,67 0,00 0,00 2.248,93 14.496,15 31/01/2022
760 296200 EDGARD GOULART MATOSINHO DE LAET JR ANALISTA DO MP GOVERNADOR VALADARES - COMARCA; GOVERNADOR VALADARES-PJ-12PJ 17.413,92 5.224,18 0,00 0,00 0,00 0,00 498,04 7.150,14 30.286,28 3.415,31 4.312,63 0,00 0,00 7.727,94 22.558,34 31/01/2022
761 295000 EDILA MARIA DA SILVEIRA OFICIAL DO MP FORMIGA - COMARCA; FORMIGA-PJ-01PJ 9.146,93 2.744,08 0,00 0,00 0,00 0,00 0,00 1.717,00 13.608,01 1.695,78 1.934,33 0,00 0,00 3.630,11 9.977,90 31/01/2022
762 332300 EDILA MARILAC MIRANDA PRADO OFICIAL DO MP DIAMANTINA - COMARCA; DIAMANTINA-PJ-01PJ 10.069,62 5.034,81 0,00 0,00 0,00 0,00 0,00 3.255,78 18.360,21 2.209,92 2.572,36 0,00 0,00 4.782,28 13.577,93 31/01/2022
763 376600 EDILANE CONSOLACAO ROSA NAZARETH ANALISTA DO MP BETIM - COMARCA; BETIM-PJ-10PJ 14.790,66 2.958,13 0,00 0,00 0,00 0,00 0,00 1.717,00 19.465,79 988,74 3.536,69 0,00 0,00 4.525,43 14.940,36 31/01/2022
764 309800 EDILZA DOS REIS OFICIAL DO MP UBERLÂNDIA - COMARCA; UBERLANDIA-PJ-03PJ 10.069,62 3.020,89 0,00 0,00 0,00 0,00 527,98 7.476,82 21.095,31 1.887,70 2.159,28 0,00 0,00 4.046,98 17.048,33 31/01/2022
765 200500 EDINEIA MARIA DE OLIVEIRA ANTUNES OFICIAL DO MP MONTES CLAROS - COMARCA; MONTES CLAROS-PJ-10PJ 15.272,02 6.108,81 0,00 0,00 0,00 0,00 0,00 1.717,00 23.097,83 3.214,15 4.126,48 0,00 0,00 7.340,63 15.757,20 31/01/2022
766 427700 EDISANGELA SOARES LOPES OFICIAL DO MP PIRAPORA - COMARCA; PIRAPORA-PJ-02PJ 6.123,79 1.224,76 0,00 0,00 2.449,52 0,00 0,00 1.717,00 11.515,07 968,98 1.558,64 0,00 0,00 2.527,62 8.987,45 31/01/2022
767 555400 EDISON MONTEIRO SAMPAIO NETO ANALISTA DO MP BELO HORIZONTE - COMARCA; BH-12PJ JUIZO CRIMINAL-GAB 094PJ 9.444,70 944,47 0,00 0,00 0,00 0,00 0,00 1.717,00 12.106,17 1.455,48 1.587,40 0,00 0,00 3.042,88 9.063,29 31/01/2022
768 517700 EDMILSON TADEU FERNANDES OFICIAL DO MP POUSO ALEGRE - COMARCA; GAECO REGIONAL DE POUSO ALEGRE 7.421,79 1.484,36 0,00 623,42 247,39 0,00 1.264,67 7.416,94 18.458,57 1.336,95 1.416,27 0,00 0,00 2.753,22 15.705,35 31/01/2022
769 358400 EDNA APARECIDA SILVA FERREIRA OFICIAL DO MP CORONEL FABRICIANO - COMARCA; CORONEL FABRICIANO-PJ-02PJ 10.736,08 3.220,82 0,00 0,00 0,00 0,00 511,75 7.299,76 21.768,41 2.026,32 2.586,84 0,00 0,00 4.613,16 17.155,25 31/01/2022
770 331800 EDNA MARCIA CAMILO DA SILVA OFICIAL DO MP SETE LAGOAS - COMARCA; SETE LAGOAS-PJ-SEC CRIMINAIS 10.069,62 3.020,89 0,00 0,00 0,00 0,00 0,00 1.717,00 14.807,51 1.887,70 2.159,28 0,00 0,00 4.046,98 10.760,53 31/01/2022
771 327900 EDRIEL SANTANA PEREIRA OFICIAL DO MP TUPACIGUARA - COMARCA; TUPACIGUARA-PJ-01PJ 10.069,62 3.020,89 0,00 0,00 4.363,50 0,00 527,98 8.246,21 26.228,20 1.887,70 3.411,38 0,00 0,00 5.299,08 20.929,12 31/01/2022
772 482400 EDSON GARCIA OFICIAL DO MP MACHADO - COMARCA; MACHADO-PJ-02PJ 5.743,70 574,37 0,00 0,00 0,00 0,00 0,00 2.486,39 8.804,46 808,31 541,55 0,00 0,00 1.349,86 7.454,60 31/01/2022
773 225601 EDSON LABRE FILHO ANALISTA DO MP VARGINHA - COMARCA; VARGINHA-PJ-01PJ 17.413,92 5.224,18 0,00 0,00 0,00 0,00 498,04 7.150,14 30.286,28 3.415,31 4.364,77 0,00 0,00 7.780,08 22.506,20 31/01/2022
774 602700 EDSON NOGUEIRA BUENO OFICIAL DO MP PITANGUI - COMARCA; PITANGUI-PJ-02PJ 5.562,64 556,26 0,00 0,00 0,00 0,00 0,00 1.717,00 7.835,90 778,43 599,27 0,00 0,00 1.377,70 6.458,20 31/01/2022
775 414400 EDUARDO ABRANTES CAMPOS ANALISTA DO MP SÃO JOÃO DEL REI - COMARCA; SAO JOAO DEL REI-PJ-02PJ 14.324,23 2.864,85 0,00 0,00 0,00 0,00 0,00 1.717,00 18.906,08 2.543,47 3.158,18 0,00 0,00 5.701,65 13.204,43 31/01/2022
776 476800 EDUARDO ALVES DE MOURA ANALISTA DO MP UBERLÂNDIA - COMARCA; UBERLANDIA-PJ-02PJ 10.069,62 2.013,92 0,00 0,00 0,00 0,00 531,68 8.286,49 20.901,71 927,17 1.939,18 0,00 0,00 2.866,35 18.035,36 31/01/2022
777 390800 EDUARDO AMORIM PETTERSEN OFICIAL DO MP CARANGOLA - COMARCA; CARANGOLA-PJ-SECRETARIA 8.858,43 1.771,69 0,00 0,00 0,00 0,00 545,68 7.669,87 18.845,67 1.494,03 1.643,06 0,00 0,00 3.137,09 15.708,58 31/01/2022
778 461600 EDUARDO ANTONIO DE ASSIS FARIA ASSESSOR BELO HORIZONTE - COMARCA; ASSESS EXECUTIVA DO CONSELHO SUPERIOR DO MP 0,00 0,00 8.170,49 0,00 0,00 0,00 539,25 7.599,75 16.309,49 828,38 1.374,90 0,00 0,00 2.203,28 14.106,21 31/01/2022
779 248800 EDUARDO DE CASTRO AMORIM ANALISTA DO MP BELO HORIZONTE - COMARCA; SUPER DE GESTAO DE PESSOAS-LOTACAO TEMPORARIA 18.820,14 5.646,04 0,00 0,00 8.155,39 0,00 538,26 7.588,88 40.748,71 3.707,80 7.081,93 0,00 0,00 10.789,73 29.958,98 31/01/2022
780 209100 EDUARDO DE SOUZA MAIA ANALISTA DO MP BELO HORIZONTE - COMARCA; SUPER DE GESTAO DE PESSOAS-LOTACAO TEMPORARIA 18.820,14 7.528,06 0,00 0,00 0,00 0,00 0,00 1.717,00 28.065,20 4.008,93 5.117,53 0,00 0,00 9.126,46 18.938,74 31/01/2022
781 633900 EDUARDO GONCALVES PIRES OFICIAL DO MP BELO HORIZONTE - COMARCA; DIRETORIA DE PAGAMENTO DE PESSOAL-DPAG 6.529,10 1.958,73 0,00 0,00 0,00 0,00 529,07 7.488,72 16.505,62 1.151,27 1.148,19 0,00 0,00 2.299,46 14.206,16 31/01/2022
782 350500 EDUARDO GONCALVES RIBEIRO OFICIAL DO MP VESPASIANO - COMARCA; VESPASIANO-PJ-04PJ 9.146,93 2.744,08 0,00 0,00 0,00 0,00 523,20 7.424,68 19.838,89 1.695,78 1.934,33 0,00 0,00 3.630,11 16.208,78 31/01/2022
783 115800 EDUARDO HENRIQUE DE CAMPOS MAIA OFICIAL DO MP BELO HORIZONTE - COMARCA; DIV FISCAL ADM CONT TERCEIRIZACAO 17.413,92 8.706,96 0,00 0,00 0,00 0,00 478,88 6.941,18 33.540,94 3.972,55 5.065,02 0,00 0,00 9.037,57 24.503,37 31/01/2022
784 392600 EDUARDO HENRIQUE DOS SANTOS COSTA ELIAZAR OFICIAL DO MP MATOZINHOS - COMARCA; MATOZINHOS-PJ-01PJ 8.579,10 1.715,82 0,00 0,00 0,00 0,00 528,47 7.482,16 18.305,55 1.440,40 1.409,22 0,00 0,00 2.849,62 15.455,93 31/01/2022
785 99101 EDUARDO JOSE DE FREITAS NUNES ASSESSOR BELO HORIZONTE - COMARCA; PROC JUST ATUACAO TRIBUNAIS SUPERIORES-GAB007 0,00 2.054,53 5.136,32 0,00 0,00 0,00 5.136,32 1.717,00 14.044,17 828,38 1.209,77 0,00 0,00 2.038,15 12.006,02 31/01/2022
786 407500 EDUARDO MASCARENHAS CURI AZEVEDO COORDENADOR/ANALISTA BELO HORIZONTE - COMARCA; DIR CONTEUDO JORNALISTICO 0,00 2.687,03 13.435,16 0,00 0,00 0,00 0,00 2.486,39 18.608,58 1.726,58 3.089,43 0,00 0,00 4.816,01 13.792,57 31/01/2022
787 601300 EDUARDO TRAD VIEIRA OFICIAL DO MP SILVIANÓPOLIS - COMARCA; SILVIANOPOLIS-PJ-UNPJ 5.562,64 556,26 0,00 0,00 0,00 0,00 0,00 1.717,00 7.835,90 778,43 599,27 0,00 0,00 1.377,70 6.458,20 31/01/2022
788 257600 EDUARDO VALADARES CABRAL ANALISTA DO MP BELO HORIZONTE - COMARCA; COORD DE INCLUSAO E MOBILIZACAO SOCIAIS 16.112,82 4.833,85 0,00 0,00 0,00 0,00 0,00 1.717,00 22.663,67 3.144,68 4.026,19 0,00 0,00 7.170,87 15.492,80 31/01/2022
789 545700 EDVAIR FERREIRA DE CARVALHO OFICIAL DO MP ARAGUARI - COMARCA; ARAGUARI-PJ-06PJ 5.562,64 556,26 0,00 0,00 0,00 0,00 538,46 7.591,14 14.248,50 778,43 547,13 0,00 0,00 1.325,56 12.922,94 31/01/2022
790 401700 EDWANIA AMORIM DO CARMO OFICIAL DO MP RIBEIRÃO DAS NEVES - COMARCA; RIBEIRAO DAS NEVES-PJ-03PJ 9.146,93 1.829,39 0,00 0,00 0,00 0,00 0,00 1.717,00 12.693,32 1.549,42 1.723,04 0,00 0,00 3.272,46 9.420,86 31/01/2022
791 303600 EFIGENIO SARAIVA LOPES ANALISTA DO MP BELO HORIZONTE - COMARCA; DIRETORIA DE PAGAMENTO DE PESSOAL-DPAG 18.820,14 5.646,04 0,00 0,00 0,00 0,00 538,26 7.588,88 32.593,32 3.707,80 4.734,92 0,00 0,00 8.442,72 24.150,60 31/01/2022
792 286000 ELAINE APARECIDA SILVA BERZOINI OFICIAL DO MP JUIZ DE FORA - COMARCA; JUIZ DE FORA-PJ-14PJ 10.069,62 3.020,89 0,00 0,00 0,00 0,00 527,98 7.476,82 21.095,31 1.887,70 2.211,41 0,00 0,00 4.099,11 16.996,20 31/01/2022
793 509000 ELAINE CANDIDA PONTES OFICIAL DO MP BELO HORIZONTE - COMARCA; BH-02PJ FAMILIA-SECRETARIA 8.170,49 1.634,10 0,00 0,00 0,00 0,00 539,25 7.599,75 17.943,59 1.361,95 1.452,37 0,00 0,00 2.814,32 15.129,27 31/01/2022
794 283601 ELAINE CRISTINA MEQUELINO DUARTE ANALISTA DO MP ALFENAS - COMARCA; ALFENAS-PJ-02PJ 14.790,66 2.958,13 0,00 0,00 0,00 0,00 520,63 7.396,61 25.666,03 2.633,02 3.183,20 0,00 0,00 5.816,22 19.849,81 31/01/2022
795 535500 ELAINE DE OLIVEIRA CAMPOS REIS OFICIAL DO MP RIBEIRÃO DAS NEVES - COMARCA; RIBEIRAO NEVES-SEC PJ EXECUCAO PENAL 6.123,79 612,38 0,00 0,00 0,00 0,00 543,38 7.644,83 14.924,38 872,76 743,08 0,00 0,00 1.615,84 13.308,54 31/01/2022
796 455700 ELAINE DE OLIVEIRA CASTRO ANALISTA DO MP POMPÉU - COMARCA; POMPEU-PJ-UNPJ 10.069,62 2.013,92 0,00 0,00 0,00 0,00 0,00 1.717,00 13.800,54 1.726,58 1.926,67 0,00 0,00 3.653,25 10.147,29 31/01/2022
797 367200 ELAINE MUNIZ BARBOSA ANALISTA DO MP BELO HORIZONTE - COMARCA; DIRETORIA DE SISTEMAS DE INFORMACAO 15.272,02 4.581,61 0,00 0,00 0,00 0,00 0,00 2.486,39 22.340,02 2.969,79 3.721,56 0,00 0,00 6.691,35 15.648,67 31/01/2022
798 679200 ELAINE RIBEIRO CHAVES ASSESSOR PROCURADOR JUSTICA BELO HORIZONTE - COMARCA; GABINETE DE PROCURADOR DE JUSTIÇA - SALA 614 0,00 0,00 7.187,72 0,00 0,00 0,00 0,00 1.717,00 8.904,72 828,38 1.156,77 0,00 0,00 1.985,15 6.919,57 31/01/2022
799 176900 ELAINE RIBEIRO TAVEIRA OFICIAL DO MP BELO HORIZONTE - COMARCA; DIVISAO FROTA 13.435,16 5.374,06 0,00 0,00 0,00 0,00 482,77 6.983,58 26.275,57 2.802,69 3.532,44 0,00 0,00 6.335,13 19.940,44 31/01/2022
800 496200 ELAINE SABRINA MOREIRA SCHUWARTEN ANALISTA DO MP IPATINGA - COMARCA; GAECO REGIONAL DE IPATINGA 10.736,08 2.147,22 0,00 0,00 0,00 0,00 0,00 1.717,00 14.600,30 1.854,54 2.163,55 0,00 0,00 4.018,09 10.582,21 31/01/2022
801 489200 ELAINE VICENTINO GARCIA ANALISTA DO MP BELO HORIZONTE - COMARCA; CENTRAL DE APOIO TECNICO-SETOR CONTABIL 10.069,62 3.020,89 0,00 0,00 0,00 0,00 527,98 7.476,82 21.095,31 1.887,70 2.107,14 0,00 0,00 3.994,84 17.100,47 31/01/2022
802 244500 ELCI ALVES DE SOUZA ASSESSOR BELO HORIZONTE - COMARCA; CAO-CONFLITOS AGRARIOS-SECRETARIA 0,00 1.540,90 5.136,32 0,00 2.225,74 0,00 538,63 7.592,95 17.034,54 664,50 1.673,53 0,00 0,00 2.338,03 14.696,51 31/01/2022
803 472500 ELCI VAZ DE OLIVEIRA FILHO ANALISTA DO MP PIUMHI - COMARCA; PIUMHI-PJ-02PJ 10.069,62 5.034,81 0,00 0,00 0,00 0,00 0,00 1.717,00 16.821,43 2.209,92 2.676,63 0,00 0,00 4.886,55 11.934,88 31/01/2022
804 385200 ELCI VIANA REIS OFICIAL DO MP RIO PARDO DE MINAS - COMARCA; RIO PARDO DE MINAS-PJ-SECRETARIA 9.146,93 3.658,77 0,00 0,00 0,00 0,00 516,50 7.351,51 20.673,71 1.842,13 2.145,62 0,00 0,00 3.987,75 16.685,96 31/01/2022
805 289801 ELCIO JOSE DOS SANTOS ASSESSOR/ANALISTA BELO HORIZONTE - COMARCA; DIVISAO DE SERVICOS 0,00 2.520,26 12.601,30 0,00 0,00 0,00 0,00 1.717,00 16.838,56 1.726,58 2.814,26 0,00 0,00 4.540,84 12.297,72 31/01/2022
806 319600 ELEN TULER DE ALBERGARIA ANALISTA DO MP BELO HORIZONTE - COMARCA; BH-19PJ SAUDE-SECRETARIA 130PJ 18.820,14 7.528,06 0,00 0,00 0,00 0,00 0,00 1.717,00 28.065,20 4.008,93 5.273,94 0,00 0,00 9.282,87 18.782,33 31/01/2022
807 205500 ELIANA ALVES DE SOUSA OFICIAL DO MP GOVERNADOR VALADARES - COMARCA; GOVERNADOR VALADARES-PJ-07PJ 10.069,62 4.027,85 0,00 0,00 0,00 0,00 0,00 1.717,00 15.814,47 2.048,81 2.444,02 0,00 0,00 4.492,83 11.321,64 31/01/2022
808 628800 ELIANA APARECIDA PEREIRA ANALISTA DO MP CAMBUÍ - COMARCA; CAMBUI-PJ-02PJ 8.436,53 843,65 0,00 0,00 0,00 0,00 0,00 1.717,00 10.997,18 1.278,04 1.279,09 0,00 0,00 2.557,13 8.440,05 31/01/2022
809 301700 ELIANA DA SILVEIRA ANALISTA DO MP BELO HORIZONTE - COMARCA; BH-11PJ COMB CRIME ORGANIZ-GAB 081PJ 16.750,82 5.025,25 0,00 0,00 0,00 0,00 0,00 1.717,00 23.493,07 3.277,38 4.217,78 0,00 0,00 7.495,16 15.997,91 31/01/2022
810 251500 ELIANA DE LIMA MILAGRES FONSECA ANALISTA DO MP CONTAGEM - COMARCA; CONTAGEM-PJ-16PJ 18.820,14 5.646,04 0,00 0,00 8.155,39 0,00 538,26 7.588,88 40.748,71 3.707,80 6.977,65 0,00 0,00 10.685,45 30.063,26 31/01/2022
811 503900 ELIANA DIAS DUTRA FERREIRA OFICIAL DO MP GOVERNADOR VALADARES - COMARCA; GOVERNADOR VALADARES-PJ-10PJ 7.912,85 1.582,57 0,00 0,00 0,00 0,00 0,00 0,00 9.495,42 1.312,48 1.276,67 0,00 0,00 2.589,15 6.906,27 31/01/2022
812 413900 ELIANA PINTO DE OLIVEIRA NEVES ANALISTA DO MP CAMPO BELO - COMARCA; CAMPO BELO-PJ-04PJ 13.011,52 2.602,30 0,00 0,00 0,00 0,00 515,26 7.337,98 23.467,06 2.291,42 2.794,30 0,00 0,00 5.085,72 18.381,34 31/01/2022
813 228200 ELIANA RODRIGUES DA CUNHA PINHEIRO OFICIAL DO MP BELO HORIZONTE - COMARCA; DIRETORIA DE PROJETOS DE EDIFICACOES 13.011,52 3.903,46 0,00 143,99 0,00 3.614,08 0,00 1.717,00 22.390,05 2.499,61 3.782,26 0,00 0,00 6.281,87 16.108,18 31/01/2022
814 386600 ELIANA SABINO CHAVES PESSOA ANALISTA DO MP CARATINGA - COMARCA; CARATINGA-PJ-06PJ 14.324,23 10.026,96 0,00 3.090,39 0,00 6.779,79 535,73 7.561,29 42.318,39 3.689,40 6.624,94 0,00 108,76 10.423,10 31.895,29 31/01/2022
815 677500 ELIANA SILVA ANDRADE ASSESSOR PROMOTOR JUSTICA TRÊS CORACOES - COMARCA; TRES CORACOES-PJ-06PJ 0,00 0,00 7.187,72 0,00 0,00 0,00 0,00 1.717,00 8.904,72 828,38 1.208,91 0,00 0,00 2.037,29 6.867,43 31/01/2022
816 297400 ELIANE AUGUSTA RIBEIRO COSTA ANALISTA DO MP CONSELHEIRO LAFAIETE - COMARCA; CONSELHEIRO LAFAIETE-PJ-05PJ 18.103,37 5.431,01 0,00 0,00 0,00 0,00 517,76 7.365,25 31.417,39 3.558,71 4.519,67 0,00 0,00 8.078,38 23.339,01 31/01/2022
817 510600 ELIANE CAROLINA MAIA ANALISTA DO MP IGARAPÉ - COMARCA; IGARAPE-PJ-03PJ 10.069,62 1.006,96 0,00 0,00 0,00 0,00 0,00 1.717,00 12.793,58 1.565,47 1.589,78 0,00 0,00 3.155,25 9.638,33 31/01/2022
818 262600 ELIANE FERREIRA SOARES ASSESSOR BELO HORIZONTE - COMARCA; BH-18PJ DIREITOS HUMANOS-SECRETARIA 0,00 2.054,53 5.136,32 0,00 0,00 0,00 0,00 1.717,00 8.907,85 828,38 1.157,63 0,00 0,00 1.986,01 6.921,84 31/01/2022
819 204400 ELIANE GLAUCE DE QUEIROS MAIA OFICIAL DO MP GUANHÃES - COMARCA; GUANHAES-PJ-02PJ 15.272,02 6.108,81 0,00 0,00 0,00 0,00 548,77 7.703,63 29.633,23 3.214,15 4.126,48 0,00 0,00 7.340,63 22.292,60 31/01/2022
820 91800 ELIANE KAPLER ALVES OFICIAL DO MP BELO HORIZONTE - COMARCA; DIVISAO DE CONTROLE IMOBILIARIO 18.820,14 9.410,07 0,00 0,00 0,00 0,00 0,00 1.717,00 29.947,21 4.310,05 5.604,41 0,00 0,00 9.914,46 20.032,75 31/01/2022
821 334200 ELIANE MARCIA DE OLIVEIRA BRITO OFICIAL DO MP BELO HORIZONTE - COMARCA; BH-08PJ JUIZADO ESPECIAL-SECRETARIA 6.123,79 1.837,14 0,00 0,00 0,00 0,00 0,00 1.717,00 9.677,93 1.066,96 1.026,48 0,00 0,00 2.093,44 7.584,49 31/01/2022
822 365900 ELIANE MARIA DE OLIVEIRA FERREIRA OFICIAL DO MP SETE LAGOAS - COMARCA; SETE LAGOAS-PJ-SEC CRIMINAIS 10.069,62 5.034,81 0,00 0,00 0,00 0,00 0,00 1.717,00 16.821,43 2.209,92 2.676,63 0,00 0,00 4.886,55 11.934,88 31/01/2022
823 320600 ELIANE STADLER DE SOUZA OFICIAL DO MP FRANCISCO SÁ - COMARCA; FRANCISCO SA-PJ-SECRETARIA 9.146,93 2.744,08 0,00 0,00 0,00 0,00 0,00 1.717,00 13.608,01 1.695,78 1.882,19 0,00 0,00 3.577,97 10.030,04 31/01/2022
824 448900 ELIAS PEREIRA OTONI ASSESSOR BELO HORIZONTE - COMARCA; BH-18PJ DIREITOS HUMANOS-SECRETARIA 0,00 0,00 5.136,32 618,01 0,00 0,00 618,01 1.717,00 8.089,34 828,38 710,45 0,00 0,00 1.538,83 6.550,51 31/01/2022
825 495400 ELICA SOUZA GASPARONI MATTOS OFICIAL DO MP UBÁ - COMARCA; UBA-PJ-06PJ 7.912,85 1.582,57 0,00 0,00 3.165,14 0,00 522,25 7.414,25 20.597,06 1.312,48 2.251,36 0,00 0,00 3.563,84 17.033,22 31/01/2022
826 86600 ELIENE FERREIRA DA SILVA OFICIAL DO MP BELO HORIZONTE - COMARCA; BH-22PJ PES COM DEF E IDOSOS-SECRETARIA 21.145,12 14.801,58 0,00 0,00 0,00 5.467,17 0,00 1.717,00 43.130,87 5.467,17 8.726,34 484,48 0,00 14.677,99 28.452,88 31/01/2022
827 183800 ELIENE MARIA CUNHA OFICIAL DO MP BELO HORIZONTE - COMARCA; DIRETORIA DE PESSOAL ADMINISTRATIVO - DPAD 16.750,82 6.700,33 0,00 0,00 0,00 0,00 515,93 7.345,28 31.312,36 3.545,40 4.552,58 0,00 0,00 8.097,98 23.214,38 31/01/2022
828 172300 ELINA APARECIDA SILVA ASSESSOR BELO HORIZONTE - COMARCA; BH-19PJ SAUDE-SECRETARIA 130PJ 0,00 1.230,51 3.076,28 0,00 0,00 0,00 0,00 1.717,00 6.023,79 807,83 378,03 0,00 0,00 1.185,86 4.837,93 31/01/2022
829 492501 ELINE CAMPOS DA FONSECA CUNHA ANALISTA DO MP PONTE NOVA - COMARCA; PONTE NOVA-PJ-02PJ 10.069,62 2.013,92 0,00 0,00 0,00 0,00 531,68 7.517,10 20.132,32 1.726,58 1.978,80 0,00 0,00 3.705,38 16.426,94 31/01/2022
830 618900 ELISA MOURA VIEIRA MARCATTI OFICIAL DO MP BELO HORIZONTE - COMARCA; GRUPO ESP PROM JUST DEF PROB ADM PAT PUB 5.930,75 593,08 0,00 0,00 0,00 0,00 0,00 2.486,39 9.010,22 839,85 693,74 0,00 0,00 1.533,59 7.476,63 31/01/2022
831 256500 ELISABETE NOGUEIRA ANALISTA DO MP RIBEIRÃO DAS NEVES - COMARCA; RIBEIRAO NEVES-SEC PJ EXECUCAO PENAL 15.272,02 7.636,01 0,00 0,00 0,00 0,00 0,00 1.717,00 24.625,03 3.458,50 4.322,85 0,00 0,00 7.781,35 16.843,68 31/01/2022
832 355000 ELISANGELA DARLANTONI RIBEIRO OFICIAL DO MP ARAXÁ - COMARCA; ARAXA-PJ-05PJ 9.444,70 2.833,41 0,00 0,00 0,00 0,00 540,24 7.610,49 20.428,84 1.757,71 1.971,61 0,00 0,00 3.729,32 16.699,52 31/01/2022
833 604400 ELISANGELA DEMASI FERREIRA MOREIRA ANALISTA DO MP CABO VERDE - COMARCA; CABO VERDE-PJ-UNPJ 9.444,70 944,47 0,00 0,00 0,00 0,00 0,00 1.717,00 12.106,17 902,85 1.695,60 0,00 0,00 2.598,45 9.507,72 31/01/2022
834 323800 ELISANGELA GONCALVES DE JESUS OFICIAL DO MP BELO HORIZONTE - COMARCA; DIVISAO FROTA 10.069,62 3.020,89 0,00 0,00 0,00 0,00 527,98 7.476,82 21.095,31 1.887,70 2.159,28 0,00 0,00 4.046,98 17.048,33 31/01/2022
835 507400 ELISANGELA MIGUEL DA ROCHA SILVA ASSESSOR BELO HORIZONTE - COMARCA; EXTINTA-CGMP-DIV APOIO FISC ORIENT FUNCIONAL 0,00 0,00 5.136,32 0,00 0,00 0,00 0,00 2.486,39 7.622,71 722,98 621,62 0,00 0,00 1.344,60 6.278,11 31/01/2022
836 261400 ELISANGELA REZENDE MENDES OFICIAL DO MP POUSO ALEGRE - COMARCA; POUSO ALEGRE-PJ-05PJ 10.069,62 3.020,89 0,00 0,00 4.363,50 0,00 479,99 6.953,20 24.887,20 1.887,70 3.411,38 0,00 0,00 5.299,08 19.588,12 31/01/2022
837 534100 ELISANGELA ROSINE SILVA OFICIAL DO MP UBERABA - COMARCA; UBERABA-PJ-06PJ 5.562,64 556,26 0,00 0,00 0,00 0,00 0,00 1.717,00 7.835,90 778,43 599,27 0,00 0,00 1.377,70 6.458,20 31/01/2022
838 634300 ELIUDE GRACA DAMASIO ROSARIO FRANCELINO OFICIAL DO MP BELO HORIZONTE - COMARCA; BH-18PJ VIOLENCIA DOMESTICA-SECRETARIA 4.792,02 497,44 0,00 0,00 0,00 0,00 0,00 2.486,39 7.775,85 681,38 400,69 0,00 0,00 1.082,07 6.693,78 31/01/2022
839 461700 ELIZABETH ALEIXO DA PAZ ANALISTA DO MP JUIZ DE FORA - COMARCA; JUIZ DE FORA-PJ-18PJ 10.069,62 2.013,92 0,00 0,00 0,00 0,00 531,68 7.517,10 20.132,32 1.726,58 1.978,80 0,00 0,00 3.705,38 16.426,94 31/01/2022
840 227300 ELIZABETH COIMBRA FELIX OFICIAL DO MP BELO HORIZONTE - COMARCA; DIRETORIA DE PAGAMENTO DE PESSOAL-DPAG 14.324,23 5.729,69 0,00 0,00 6.684,64 0,00 520,56 7.395,79 34.654,91 3.001,84 5.553,96 0,00 0,00 8.555,80 26.099,11 31/01/2022
841 354800 ELIZABETH DOS REIS OFICIAL DO MP BELO HORIZONTE - COMARCA; DIVISAO DE MATERIAIS 10.069,62 3.020,89 0,00 0,00 0,00 0,00 0,00 1.717,00 14.807,51 1.887,70 2.159,28 0,00 0,00 4.046,98 10.760,53 31/01/2022
842 612000 ELIZABETH MARIA DE QUEIROZ TANIGUCHI OFICIAL DO MP BELO HORIZONTE - COMARCA; SUPERINTENDENCIA GESTÃO DE PESSOAS 5.387,19 538,72 0,00 0,00 0,00 0,00 0,00 1.717,00 7.642,91 749,48 554,16 0,00 0,00 1.303,64 6.339,27 31/01/2022
843 452800 ELIZANGELA MARIA DAVI OFICIAL DO MP ARCOS - COMARCA; ARCOS-PJ-01PJ 6.123,79 1.224,76 0,00 0,00 0,00 0,00 0,00 1.717,00 9.065,55 968,98 832,88 0,00 0,00 1.801,86 7.263,69 31/01/2022
844 496300 ELIZANGELA MARQUES PINTO COELHO OFICIAL DO MP BELO HORIZONTE - COMARCA; DIRETORIA DE PESSOAL ADMINISTRATIVO - DPAD 7.912,85 1.582,57 0,00 0,00 0,00 0,00 522,25 7.414,25 17.431,92 1.312,48 1.380,95 0,00 0,00 2.693,43 14.738,49 31/01/2022
845 422500 ELIZETE FORTES DA CUNHA ANALISTA DO MP RIBEIRÃO DAS NEVES - COMARCA; RIBEIRAO DAS NEVES-PJ-07PJ 14.324,23 2.864,85 0,00 0,00 0,00 0,00 504,21 7.217,51 24.910,80 2.543,47 3.106,05 0,00 0,00 5.649,52 19.261,28 31/01/2022
846 506100 ELLEM CRISTINA ROCHA FONSECA BOWEN ANALISTA DO MP GOVERNADOR VALADARES - COMARCA; COORD REG PJ DEF EDU DIR CRIANCA ADOL RIODOCE 10.069,62 2.013,92 0,00 0,00 0,00 0,00 0,00 1.717,00 13.800,54 1.726,58 1.978,80 0,00 0,00 3.705,38 10.095,16 31/01/2022
847 468200 ELLEN CRISTINA BERNARDES DARE ANALISTA DO MP TRÊS PONTAS - COMARCA; TRES PONTAS-PJ-02PJ 10.069,62 2.013,92 0,00 0,00 0,00 0,00 531,68 8.286,49 20.901,71 1.726,58 1.926,67 0,00 0,00 3.653,25 17.248,46 31/01/2022
848 418800 ELLEN CRISTINA DE QUEIROZ FERREIRA ANALISTA DO MP BELO HORIZONTE - COMARCA; CENTRAL DE APOIO TECNICO-SETOR CONTABIL 13.011,52 2.602,30 0,00 0,00 0,00 0,00 515,26 8.491,52 24.620,60 927,17 2.993,61 0,00 0,00 3.920,78 20.699,82 31/01/2022
849 328401 ELLEN CRISTINA FERREIRA MORAIS MONTEIRO ANALISTA DO MP CAMANDUCAIA - COMARCA; CAMANDUCAIA-PJ-UNPJ 13.011,52 2.602,30 0,00 0,00 0,00 0,00 0,00 1.717,00 17.330,82 2.291,42 2.690,02 0,00 0,00 4.981,44 12.349,38 31/01/2022
850 556100 ELLEN CRISTINE BIANCHIN DA SILVA OFICIAL DO MP SÃO GONÇALO DO SAPUCAÍ - COMARCA; SAO GONCALO DO SAPUCAI-PJ-02PJ 5.562,64 556,26 0,00 0,00 0,00 0,00 0,00 1.717,00 7.835,90 778,43 547,13 0,00 0,00 1.325,56 6.510,34 31/01/2022
851 714500 ELLEN PROENCA CARVALHO DE ARAUJO ASSESSOR PROMOTOR JUSTICA MARIANA - COMARCA; MARIANA-PJ-02PJ 0,00 0,00 7.187,72 598,98 0,00 0,00 3.833,45 2.889,45 14.509,60 828,38 2.442,81 0,00 0,00 3.271,19 11.238,41 31/01/2022
852 447100 ELLEN ROSANA DE MACEDO BORGES OFICIAL DO MP UBERLÂNDIA - COMARCA; UBERLANDIA-PJ-17PJ 8.579,10 1.715,82 0,00 0,00 0,00 0,00 528,47 7.482,16 18.305,55 1.440,40 1.565,63 0,00 0,00 3.006,03 15.299,52 31/01/2022
853 477700 ELMA JACOB OFICIAL DO MP BELO HORIZONTE - COMARCA; COORD DE GABINETE DO PGJ 7.912,85 5.539,00 0,00 0,00 0,00 1.945,51 542,56 7.635,81 23.575,73 1.945,51 2.829,90 0,00 0,00 4.775,41 18.800,32 31/01/2022
854 123300 ELMA PAULA DOS SANTOS COELHO OFICIAL DO MP BELO HORIZONTE - COMARCA; BH-19PJ SAUDE-SECRETARIA 130PJ 18.820,14 16.938,13 0,00 0,00 0,00 5.467,17 0,00 1.717,00 42.942,44 5.467,17 8.882,75 296,05 0,00 14.645,97 28.296,47 31/01/2022
855 356500 ELOISA CARDOSO SILVA FRANCA OFICIAL DO MP PEÇANHA - COMARCA; PECANHA-PJ-SECRETARIA 6.123,79 1.837,14 0,00 0,00 0,00 0,00 0,00 1.717,00 9.677,93 1.066,96 922,21 0,00 0,00 1.989,17 7.688,76 31/01/2022
856 251901 ELOISA COSTA E SILVA ANALISTA DO MP SANTOS DUMONT - COMARCA; SANTOS DUMONT-PJ-02PJ 10.069,62 3.020,89 0,00 0,00 0,00 0,00 0,00 2.486,39 15.576,90 1.887,70 2.159,28 0,00 0,00 4.046,98 11.529,92 31/01/2022
857 400400 ELOIZA MARIA FERRI PIRES DA SILVA OFICIAL DO MP BELO HORIZONTE - COMARCA; ASSESSORIA TECNICA DO PROCON-MG 8.579,10 1.715,82 0,00 0,00 3.431,64 0,00 0,00 1.717,00 15.443,56 1.440,40 2.457,20 0,00 0,00 3.897,60 11.545,96 31/01/2022
858 258000 ELSO CECIANO PALMEIRA ASSESSOR/OFICIAL BELO HORIZONTE - COMARCA; DIRET DE PESSOAL DO MINISTERIO PUBLICO - DPMP 12.601,30 8.820,91 3.024,31 0,00 0,00 0,00 537,82 7.584,16 32.568,50 3.220,77 4.967,72 0,00 0,00 8.188,49 24.380,01 31/01/2022
859 206900 ELVIRA RITA DOS SANTOS ANALISTA DO MP BELO HORIZONTE - COMARCA; CENTRAL DE APOIO TECNICO-SETOR CONTABIL 18.820,14 7.528,06 0,00 0,00 1.342,66 4.008,93 0,00 1.717,00 33.416,79 4.008,93 6.745,63 0,00 0,00 10.754,56 22.662,23 31/01/2022
860 506800 ELVIS FERREIRA DA SILVA ANALISTA DO MP BELO HORIZONTE - COMARCA; DIRETORIA DE SISTEMAS DE INFORMACAO 10.069,62 2.013,92 0,00 0,00 0,00 0,00 531,68 8.286,49 20.901,71 1.726,58 1.822,39 0,00 0,00 3.548,97 17.352,74 31/01/2022
861 602400 ELZA MARIA MOREIRA MUNIZ ANALISTA DO MP RIO PARANAÍBA - COMARCA; RIO PARANAIBA-PJ-UNPJ 9.444,70 944,47 0,00 0,00 0,00 0,00 533,31 7.534,94 18.457,42 1.455,48 1.535,27 0,00 0,00 2.990,75 15.466,67 31/01/2022
862 368401 ELZIRA SIMOES DOS SANTOS ASSESSOR BELO HORIZONTE - COMARCA; ASSESSORIA DE COMUNICACAO INTEGRADA 0,00 3.433,94 11.446,46 0,00 0,00 0,00 545,61 7.669,16 23.095,17 828,38 3.324,40 0,00 0,00 4.152,78 18.942,39 31/01/2022
863 437400 EMANOELLE DA SILVA RODRIGUES OFICIAL DO MP UNAÍ - COMARCA; UNAI-PJ-03PJ 7.912,85 1.582,57 0,00 0,00 0,00 0,00 522,25 8.953,03 18.970,70 1.312,48 1.328,81 0,00 0,00 2.641,29 16.329,41 31/01/2022
864 458900 EMANUELLE CONRAD SILVA FREDERICO NAVES ANALISTA DO MP ALFENAS - COMARCA; ALFENAS-PJ-05PJ 13.011,52 2.602,30 0,00 0,00 0,00 0,00 458,01 7.482,81 23.554,64 2.291,42 2.742,16 0,00 0,00 5.033,58 18.521,06 31/01/2022
865 284100 EMERSON MAGNO ALMEIDA PEDROSA DA FONSECA ANALISTA DO MP BELO HORIZONTE - COMARCA; CENTRAL DE APOIO TECNICO-SETOR CONTABIL 18.103,37 5.431,01 0,00 0,00 7.844,79 0,00 0,00 1.717,00 33.096,17 3.558,71 5.514,75 0,00 0,00 9.073,46 24.022,71 31/01/2022
866 179900 EMERSON MORAIS DIAS OFICIAL DO MP BELO HORIZONTE - COMARCA; SUPERINTENDÊNCIA DE ENGENHARIA E ARQUITETURA 16.750,82 6.700,33 0,00 0,00 0,00 0,00 0,00 1.717,00 25.168,15 3.545,40 4.604,72 0,00 0,00 8.150,12 17.018,03 31/01/2022
867 488700 EMERSON SIQUEIRA DE SOUSA TEIXEIRA ANALISTA DO MP ITANHOMI - COMARCA; ITANHOMI-PJ-UNPJ 10.069,62 2.013,92 0,00 0,00 0,00 0,00 531,68 7.517,10 20.132,32 1.726,58 1.822,39 0,00 0,00 3.548,97 16.583,35 31/01/2022
868 194200 EMILIA ALVES FERREIRA RAMOS OFICIAL DO MP UBERLÂNDIA - COMARCA; UBERLANDIA-PJ-SEC CIVEIS CRIMINAIS 11.085,56 4.434,22 0,00 0,00 0,00 0,00 0,00 1.717,00 17.236,78 2.276,38 2.772,58 0,00 0,00 5.048,96 12.187,82 31/01/2022
869 679500 EMILY DIAS LEMOS E SILVA ASSESSOR PROCURADOR JUSTICA BELO HORIZONTE - COMARCA; GABINETE DE PROCURADOR DE JUSTIÇA - SALA 515 0,00 0,00 7.187,72 0,00 0,00 0,00 527,10 8.236,57 15.951,39 828,38 1.104,63 0,00 0,00 1.933,01 14.018,38 31/01/2022
870 620700 EMILY FONTANA DE SIQUEIRA ANALISTA DO MP BELO HORIZONTE - COMARCA; BH-18PJ VIOLENCIA DOMESTICA-SECRETARIA 9.146,93 914,69 0,00 0,00 3.353,87 0,00 0,00 2.486,39 15.901,88 1.403,07 2.381,92 0,00 0,00 3.784,99 12.116,89 31/01/2022
871 297000 ENEIDA SOARES COSTA MELO ANALISTA DO MP PIUMHI - COMARCA; PIUMHI-PJ-01PJ 18.103,37 5.431,01 0,00 0,00 0,00 0,00 517,76 7.365,25 31.417,39 3.558,71 4.623,95 0,00 0,00 8.182,66 23.234,73 31/01/2022
872 276000 ENEZIO RODRIGUES DE SOUZA FILHO OFICIAL DO MP UBERLÂNDIA - COMARCA; UBERLANDIA-PJ-10PJ 10.069,62 3.020,89 0,00 0,00 0,00 0,00 527,98 7.476,82 21.095,31 1.887,70 2.211,41 0,00 0,00 4.099,11 16.996,20 31/01/2022
873 387700 ENI MARIA DOS REIS OFICIAL DO MP POUSO ALEGRE - COMARCA; POUSO ALEGRE-PJ-07PJ 9.146,93 1.829,39 0,00 0,00 0,00 0,00 523,20 7.424,69 18.924,21 1.549,42 1.723,04 0,00 0,00 3.272,46 15.651,75 31/01/2022
874 605100 ENIA MAIA ASSESSOR/OFICIAL BELO HORIZONTE - COMARCA; DIRETORIA DE ORCAMENTO-DIOR/SPC 0,00 1.039,75 10.397,52 -57,34 3.812,42 0,00 545,18 7.664,38 23.401,91 872,76 2.968,49 0,00 421,13 4.262,38 19.139,53 31/01/2022
875 612200 ENILDO GOMES MEIRA FILHO ANALISTA DO MP BELO HORIZONTE - COMARCA; BH-23PJ INFRACIONAL-ASS JURIDICA 9.146,93 914,69 0,00 0,00 3.353,87 0,00 2.487,56 6.511,04 22.414,09 1.742,05 2.767,05 0,00 0,00 4.509,10 17.904,99 31/01/2022
876 553700 ENIVALDO NOVATO PUBLIO ANALISTA DO MP DIVINÓPOLIS - COMARCA; DIVINOPOLIS-PJ-09PJ 9.444,70 944,47 0,00 0,00 0,00 0,00 0,00 1.717,00 12.106,17 1.455,48 1.535,27 0,00 0,00 2.990,75 9.115,42 31/01/2022
877 680600 ENZO JOSE FERES SOUZA JABER ASSESSOR PROMOTOR JUSTICA NOVO CRUZEIRO - COMARCA; NOVO CRUZEIRO-PJ-SECRETARIA 0,00 0,00 7.187,72 0,00 0,00 0,00 395,32 6.029,63 13.612,67 808,92 1.214,26 0,00 0,00 2.023,18 11.589,49 31/01/2022
878 417300 ERIC BARATTI DA SILVA ANALISTA DO MP FRUTAL - COMARCA; FRUTAL-PJ-05PJ 10.736,08 2.147,22 0,00 0,00 0,00 0,00 0,00 1.717,00 14.600,30 1.854,54 2.348,29 0,00 0,00 4.202,83 10.397,47 31/01/2022
879 637600 ERIC DA ROCHA CHEHUEN ANALISTA DO MP LIMA DUARTE - COMARCA; LIMA DUARTE-PJ-UNPJ 8.436,53 843,65 0,00 0,00 0,00 0,00 0,00 1.717,00 10.997,18 927,17 1.427,72 0,00 0,00 2.354,89 8.642,29 31/01/2022
880 398900 ERIC TEIXEIRA SILVA OFICIAL DO MP UBERLÂNDIA - COMARCA; UBERLANDIA-PJ-SEC CIVEIS CRIMINAIS 9.444,70 1.888,94 0,00 0,00 0,00 0,00 0,00 1.717,00 13.050,64 1.606,60 1.805,58 0,00 0,00 3.412,18 9.638,46 31/01/2022
881 703600 ERICA CORDEIRO SANTOS ASSESSOR PROMOTOR JUSTICA MINAS NOVAS - COMARCA; MINAS NOVAS-PJ-UNPJ 0,00 0,00 7.187,72 0,00 0,00 0,00 0,00 1.717,00 8.904,72 828,38 1.208,91 0,00 0,00 2.037,29 6.867,43 31/01/2022
882 274200 ERICA DE SOUZA ANDRADE OFICIAL DO MP CURVELO - COMARCA; CURVELO-PJ-03PJ 11.085,56 3.325,67 0,00 0,00 0,00 0,00 528,41 7.481,49 22.421,13 2.099,01 2.464,36 0,00 0,00 4.563,37 17.857,76 31/01/2022
883 225700 ERICA GOMES DO COUTO OFICIAL DO MP BELO HORIZONTE - COMARCA; BH-21PJ TUTELA FUNDACOES-SECRETARIA 14.790,66 4.437,20 0,00 0,00 6.409,29 0,00 0,00 2.486,39 28.123,54 2.869,67 5.391,70 0,00 0,00 8.261,37 19.862,17 31/01/2022
884 632600 ERICA LEONOR MARTINS OFICIAL DO MP RESENDE COSTA - COMARCA; RESENDE COSTA-PJ-UNPJ 5.387,19 538,72 0,00 0,00 0,00 0,00 0,00 1.717,00 7.642,91 749,48 554,16 0,00 0,00 1.303,64 6.339,27 31/01/2022
885 524800 ERICA MACHADO DA COSTA E SOUZA ANALISTA DO MP BELO HORIZONTE - COMARCA; ASSESS TECNICO-JUR JUNTO AS PROC. DE JUST 10.736,08 1.073,61 0,00 0,00 0,00 0,00 1.330,78 7.385,65 20.526,12 1.682,76 1.915,54 0,00 0,00 3.598,30 16.927,82 31/01/2022
886 249500 ERICA RODRIGUES ANDRADE OFICIAL DO MP SÃO FRANCISCO - COMARCA; SAO FRANCISCO-PJ-02PJ 9.444,70 2.833,41 0,00 0,00 0,00 0,00 540,24 7.610,49 20.428,84 1.757,71 1.971,61 0,00 0,00 3.729,32 16.699,52 31/01/2022
887 260800 ERICA VIANA GIARDINI DE OLIVEIRA OFICIAL DO MP BELO HORIZONTE - COMARCA; DIRETORIA GESTAO COMPRAS LICITACOES 10.069,62 3.020,89 0,00 0,00 0,00 0,00 0,00 1.717,00 14.807,51 1.887,70 2.211,41 0,00 0,00 4.099,11 10.708,40 31/01/2022
888 299800 ERICH DOUGLAS RIBEIRO GARCIA ANALISTA DO MP BELO HORIZONTE - COMARCA; CENTRAL DE APOIO TECNICO-SETOR CONTABIL 17.413,92 5.224,18 0,00 0,00 7.546,03 0,00 0,00 1.717,00 31.901,13 3.415,31 6.492,07 0,00 0,00 9.907,38 21.993,75 31/01/2022
889 365000 ERICK EDUARDO JOSE DA SILVA OFICIAL DO MP SANTOS DUMONT - COMARCA; SANTOS DUMONT-PJ-02PJ 6.123,79 1.837,14 0,00 0,00 0,00 0,00 0,00 1.717,00 9.677,93 1.066,96 1.026,48 0,00 0,00 2.093,44 7.584,49 31/01/2022
890 688900 ERICK FERDINANN SANTOS GOMES ASSESSOR PROMOTOR JUSTICA OURO PRETO - COMARCA; OURO PRETO-PJ-04PJ 0,00 0,00 7.187,72 0,00 0,00 0,00 0,00 1.717,00 8.904,72 828,38 1.208,91 0,00 0,00 2.037,29 6.867,43 31/01/2022
891 227400 ERIKA DE LAET GOULART BOECHAT OFICIAL DO MP BELO HORIZONTE - COMARCA; BH-17PJ PATRIMONIO PUBLICO-SECRETARIA 14.790,66 4.437,20 0,00 0,00 0,00 0,00 0,00 1.717,00 20.944,86 2.869,67 3.577,00 0,00 0,00 6.446,67 14.498,19 31/01/2022
892 681301 ERIKA FERNANDA ELISEU FERREIRA ASSESSOR PROCURADOR JUSTICA BELO HORIZONTE - COMARCA; GABINETE DE PROCURADOR DE JUSTIÇA - SALA 411 0,00 0,00 7.187,72 0,00 0,00 0,00 0,00 1.717,00 8.904,72 828,38 1.208,91 0,00 0,00 2.037,29 6.867,43 31/01/2022
893 285100 ERIKA FERREIRA DA SILVA OFICIAL DO MP JUIZ DE FORA - COMARCA; JUIZ DE FORA-PJ-11PJ 10.069,62 3.020,89 0,00 0,00 0,00 0,00 0,00 1.717,00 14.807,51 1.887,70 2.211,41 0,00 0,00 4.099,11 10.708,40 31/01/2022
894 420100 ERIKA JEANINE VERSIANI DE CASTRO ANALISTA DO MP BELO HORIZONTE - COMARCA; COORD ESTADUAL DE DEFESA DA EDUCACAO 14.324,23 2.864,85 0,00 0,00 0,00 0,00 504,21 7.217,51 24.910,80 2.543,47 3.158,18 0,00 0,00 5.701,65 19.209,15 31/01/2022
895 677100 ERIKA LAYS CARDOSO FERNANDES ASSESSOR PROMOTOR JUSTICA GRAO MOGOL - COMARCA; GRAO MOGOL-PJ-UNPJ 0,00 0,00 7.187,72 0,00 0,00 0,00 0,00 1.717,00 8.904,72 828,38 1.208,91 0,00 0,00 2.037,29 6.867,43 31/01/2022
896 606900 ERIKA MARIA BARBOSA ANALISTA DO MP BELO HORIZONTE - COMARCA; CAO-SAUDE 8.579,10 857,91 0,00 0,00 0,00 0,00 0,00 1.717,00 11.154,01 1.303,14 1.315,32 0,00 0,00 2.618,46 8.535,55 31/01/2022
897 491000 ERIKA ROCHA PEREIRA E SILVA COORDENADOR/ANALISTA BELO HORIZONTE - COMARCA; DIR GOVERNANCA TECNOLOGIA INFORMACAO 0,00 2.687,03 13.435,16 0,00 0,00 0,00 532,03 7.520,99 24.175,21 1.726,58 3.089,43 0,00 0,00 4.816,01 19.359,20 31/01/2022
898 283201 ERIKA STEHLING COORDENADOR/ANALISTA BELO HORIZONTE - COMARCA; CENTRAL DE APOIO TECNICO-SETOR DE ENGENHARIA 10.069,62 2.013,92 2.363,83 0,00 0,00 0,00 0,00 1.717,00 16.164,37 1.726,58 2.628,86 0,00 0,00 4.355,44 11.808,93 31/01/2022
899 254000 ERLANDIA DA SILVA MENDES OFICIAL DO MP IPATINGA - COMARCA; IPATINGA-PJ-03PJ 13.011,52 5.204,61 0,00 0,00 0,00 0,00 534,34 7.546,16 26.296,63 2.707,79 3.239,02 0,00 0,00 5.946,81 20.349,82 31/01/2022
900 208600 ERNANE JOSE DA COSTA ANALISTA DO MP BELO HORIZONTE - COMARCA; CENTRAL DE APOIO TECNICO-SETOR MEDICO 18.820,14 15.056,11 0,00 0,00 0,00 0,00 0,00 1.717,00 35.593,25 5.213,41 7.012,92 0,00 0,00 12.226,33 23.366,92 31/01/2022
901 260600 ERNANI CALDEIRA DE ANDRADE ANALISTA DO MP BELO HORIZONTE - COMARCA; CENTRAL DE APOIO TECNICO-SETOR CONTABIL 18.820,14 5.646,04 0,00 0,00 0,00 0,00 2.192,94 7.588,88 34.248,00 3.707,80 4.839,19 0,00 0,00 8.546,99 25.701,01 31/01/2022
902 348500 ERNILANDIA DE OLIVEIRA DIAS OFICIAL DO MP MONTES CLAROS - COMARCA; MONTES CLAROS-PJ-16PJ 9.146,93 2.744,08 0,00 0,00 0,00 0,00 523,20 7.424,68 19.838,89 1.695,78 1.934,33 0,00 0,00 3.630,11 16.208,78 31/01/2022
903 199300 ERTON PORTINARI DE ANDRADE OFICIAL DO MP SETE LAGOAS - COMARCA; SETE LAGOAS-PJ-05PJ 15.272,02 6.108,81 0,00 0,00 7.126,94 0,00 548,77 7.703,63 36.760,17 3.214,15 5.982,11 0,00 0,00 9.196,26 27.563,91 31/01/2022
904 618800 ESLY DE CARLA AYALLA BARBOSA MENDES OFICIAL DO MP NOVA LIMA - COMARCA; NOVA LIMA-PJ-SECRETARIA 5.387,19 538,72 0,00 0,00 0,00 0,00 0,00 1.717,00 7.642,91 749,48 554,16 0,00 0,00 1.303,64 6.339,27 31/01/2022
905 537000 ESTANISLAU CORREIA ALMEIDA JUNIOR OFICIAL DO MP UBERLÂNDIA - COMARCA; UBERLANDIA-PJ-25PJ 6.123,79 612,38 0,00 0,00 0,00 0,00 0,00 1.717,00 8.453,17 872,76 743,08 0,00 0,00 1.615,84 6.837,33 31/01/2022
906 692100 ESTEFANIA FARIA FERREIRA ASSESSOR PROCURADOR JUSTICA BELO HORIZONTE - COMARCA; GABINETE DE PROCURADOR DE JUSTIÇA - SALA 814 0,00 0,00 7.187,72 0,00 0,00 0,00 0,00 1.717,00 8.904,72 828,38 1.208,91 0,00 0,00 2.037,29 6.867,43 31/01/2022
907 326900 ESTER ALICE PIMENTA OFICIAL DO MP BELO HORIZONTE - COMARCA; COORD DE INCLUSAO E MOBILIZACAO SOCIAIS 10.069,62 3.020,89 0,00 0,00 0,00 0,00 527,98 7.476,82 21.095,31 1.887,70 2.211,41 0,00 0,00 4.099,11 16.996,20 31/01/2022
908 503700 ESTHER GONCALVES FONSECA ANALISTA DO MP BELO HORIZONTE - COMARCA; DIR CRIACAO E MIDIAS 9.752,14 1.950,43 0,00 0,00 0,00 0,00 0,00 1.717,00 13.419,57 1.665,62 1.890,80 0,00 0,00 3.556,42 9.863,15 31/01/2022
909 475600 ETIENE DE FATIMA OLIVEIRA PEREIRA ANALISTA DO MP PATROCÍNIO - COMARCA; PATROCINIO-PJ-04PJ 10.069,62 2.013,92 0,00 0,00 0,00 0,00 0,00 1.717,00 13.800,54 927,17 1.991,32 0,00 0,00 2.918,49 10.882,05 31/01/2022
910 428800 EUGENIA RODRIGUES TRAJANO BORGES ANALISTA DO MP UBERABA - COMARCA; UBERABA-PJ-10PJ 13.011,52 2.602,30 0,00 0,00 0,00 0,00 400,75 6.858,26 22.872,83 2.291,42 2.794,30 0,00 0,00 5.085,72 17.787,11 31/01/2022
911 272700 EUGENIO DE BARCELOS FILHO OFICIAL DO MP FRUTAL - COMARCA; FRUTAL-PJ-03PJ 9.146,93 2.744,08 0,00 0,00 0,00 0,00 0,00 1.717,00 13.608,01 1.695,78 1.882,19 0,00 0,00 3.577,97 10.030,04 31/01/2022
912 254100 EULALIA ALVES MIRANDA LUCAS OFICIAL DO MP ALMENARA - COMARCA; ALMENARA-PJ-02PJ 12.601,30 3.780,39 0,00 0,00 0,00 0,00 540,60 7.614,41 24.536,70 2.414,28 2.867,40 0,00 0,00 5.281,68 19.255,02 31/01/2022
913 641200 EUNICE ELVIRA DA SILVA MATOS OFICIAL DO MP BELO HORIZONTE - COMARCA; BH-14PJ DEFESA CONSUMIDOR-SECRETARIA 4.974,42 497,44 0,00 0,00 0,00 0,00 0,00 1.717,00 7.188,86 681,38 448,02 0,00 0,00 1.129,40 6.059,46 31/01/2022
914 557900 EURIPEDES JOSUE PERES OFICIAL DO MP IBIÁ - COMARCA; IBIA-PJ-UNPJ 5.562,64 556,26 0,00 0,00 0,00 0,00 538,46 7.591,14 14.248,50 778,43 599,27 0,00 0,00 1.377,70 12.870,80 31/01/2022
915 225800 EURO CESAR VIEIRA BARBOSA ANALISTA DO MP BELO HORIZONTE - COMARCA; BH-17PJ PATRIMONIO PUBLICO-SECRETARIA 18.820,14 7.528,06 0,00 0,00 0,00 0,00 0,00 1.717,00 28.065,20 4.008,93 5.169,67 0,00 0,00 9.178,60 18.886,60 31/01/2022
916 199400 EUSTAQUIO ADAILTON LIMA E SILVA OFICIAL DO MP MANGA - COMARCA; MANGA-PJ-01PJ 15.272,02 10.690,41 0,00 0,00 0,00 0,00 475,98 6.909,49 33.347,90 3.947,20 4.976,28 0,00 0,00 8.923,48 24.424,42 31/01/2022
917 548000 EVA VILMA LEAO REIS JULIO OFICIAL DO MP BELO HORIZONTE - COMARCA; BH-07PJ 01 TRIBUNAL JURI-SECRETARIA 6.123,79 1.837,14 0,00 0,00 0,00 0,00 0,00 1.717,00 9.677,93 1.066,96 1.026,48 0,00 0,00 2.093,44 7.584,49 31/01/2022
918 517000 EVALDO SENA COSTA FILHO ANALISTA DO MP CONTAGEM - COMARCA; CONTAGEM-PJ-15PJ 10.069,62 3.020,89 0,00 0,00 4.363,50 0,00 527,98 7.476,82 25.458,81 1.887,70 3.254,96 0,00 0,00 5.142,66 20.316,15 31/01/2022
919 217500 EVELANGE LEAO RABELO ASSESSOR BELO HORIZONTE - COMARCA; CAO-PESSOAS IDOSAS E PESSOAS COM DEFICIENCIA 0,00 2.054,53 5.136,32 0,00 0,00 0,00 0,00 1.717,00 8.907,85 828,38 1.209,77 0,00 0,00 2.038,15 6.869,70 31/01/2022
920 679600 EVERTON BARBOSA DA SILVA ASSESSOR PROCURADOR JUSTICA BELO HORIZONTE - COMARCA; GABINETE DE PROCURADOR DE JUSTIÇA - SALA 510 0,00 0,00 7.187,72 0,00 0,00 0,00 0,00 1.717,00 8.904,72 828,38 1.208,91 0,00 0,00 2.037,29 6.867,43 31/01/2022
921 540400 EVIE SARAMELLA DE RESENDE OFICIAL DO MP BARBACENA - COMARCA; BARBACENA-PJ-05PJ 6.123,79 612,38 0,00 0,00 0,00 0,00 543,38 7.644,83 14.924,38 872,76 743,08 0,00 0,00 1.615,84 13.308,54 31/01/2022
922 469000 EWERTON CARDOSO DE SA RODRIGUES ANALISTA DO MP CAMPO BELO - COMARCA; CAMPO BELO-PJ-02PJ 10.069,62 2.013,92 0,00 0,00 0,00 0,00 0,00 2.486,39 14.569,93 1.726,58 1.874,53 0,00 0,00 3.601,11 10.968,82 31/01/2022
923 368900 FABIANA BARBOSA SIQUEIRA OFICIAL DO MP BELO HORIZONTE - COMARCA; CAO-ORDEM ECONOMICA E TRIBUTARIA-SECRETARIA 10.736,08 2.147,22 0,00 0,00 0,00 0,00 519,63 7.385,65 20.788,58 1.854,54 2.296,15 0,00 0,00 4.150,69 16.637,89 31/01/2022
924 273800 FABIANA CARNEIRO AMORIM COORDENADOR/OFICIAL BELO HORIZONTE - COMARCA; BH-23PJ CIVEL-COORD ADM CIVEL 12.204,02 3.661,21 2.363,83 0,00 0,00 0,00 534,72 7.550,30 26.314,08 2.331,65 3.398,15 0,00 0,00 5.729,80 20.584,28 31/01/2022
925 519300 FABIANA DE OLIVEIRA LOUREIRO ANALISTA DO MP BELO HORIZONTE - COMARCA; BH-09PJ AUDITORIA MILITAR-SECRETARIA 10.069,62 2.013,92 0,00 845,84 335,65 0,00 1.006,96 1.717,00 15.988,99 1.887,69 2.211,41 0,00 0,00 4.099,10 11.889,89 31/01/2022
926 363400 FABIANA DOURADO DUPIN VIEGAS ANALISTA DO MP BELO HORIZONTE - COMARCA; GABINETE DE PROCURADOR DE JUSTIÇA - SALA 705 16.750,82 5.025,25 0,00 0,00 0,00 0,00 0,00 1.717,00 23.493,07 3.277,38 4.165,64 0,00 0,00 7.443,02 16.050,05 31/01/2022
927 410800 FABIANA DUARTE QUITITE ANALISTA DO MP BELO HORIZONTE - COMARCA; BH-15PJ M AMB PAT HIST CULT-GAB 116PJ 14.324,23 2.864,85 0,00 0,00 0,00 0,00 504,21 7.217,51 24.910,80 2.543,47 3.158,18 0,00 0,00 5.701,65 19.209,15 31/01/2022
928 419500 FABIANA EULALIA DOS SANTOS ANALISTA DO MP SÃO JOÃO DEL REI - COMARCA; SAO JOAO DEL REI-PJ-01PJ 14.324,23 2.864,85 0,00 0,00 0,00 0,00 504,21 7.217,51 24.910,80 2.543,47 3.158,18 0,00 0,00 5.701,65 19.209,15 31/01/2022
929 700300 FABIANA MARCIA DE SOUZA ASSESSOR BELO HORIZONTE - COMARCA; DIRET DE CONTROLE E DE MANUTENCAO DE IMOVEIS 0,00 0,00 3.076,28 0,00 0,00 0,00 0,00 1.717,00 4.793,28 434,57 227,80 0,00 0,00 662,37 4.130,91 31/01/2022
930 376300 FABIANA MATTOSO LEMOS ANALISTA DO MP BELO HORIZONTE - COMARCA; BH-21PJ TUTELA FUNDACOES-SECRETARIA 14.790,66 2.958,13 0,00 0,00 0,00 0,00 0,00 2.948,02 20.696,81 816,71 3.786,96 0,00 0,00 4.603,67 16.093,14 31/01/2022
931 331500 FABIANA PACHECO OFICIAL DO MP GUAXUPÉ - COMARCA; GUAXUPE-PJ-01PJ 10.069,62 3.020,89 0,00 0,00 0,00 0,00 0,00 2.486,39 15.576,90 1.887,70 2.107,14 0,00 0,00 3.994,84 11.582,06 31/01/2022
932 510700 FABIANA PEREIRA SANTOS BORGES ANALISTA DO MP BELO HORIZONTE - COMARCA; DIRETORIA DE SISTEMAS DE INFORMACAO 10.069,62 2.013,92 0,00 0,00 0,00 0,00 0,00 1.717,00 13.800,54 1.726,58 1.926,67 0,00 0,00 3.653,25 10.147,29 31/01/2022
933 181700 FABIANA SOUZA FERREIRA OFICIAL DO MP BELO HORIZONTE - COMARCA; BH-19PJ SAUDE-SECRETARIA 150PJ 6.123,79 2.449,52 0,00 0,00 0,00 0,00 0,00 1.717,00 10.290,31 1.164,94 1.063,67 0,00 0,00 2.228,61 8.061,70 31/01/2022
934 272900 FABIANA STOCKLER LEITE OFICIAL DO MP LAJINHA - COMARCA; LAJINHA-PJ-SECRETARIA 10.069,62 5.034,81 0,00 0,00 0,00 0,00 498,45 7.154,59 22.757,47 2.209,92 2.624,49 0,00 0,00 4.834,41 17.923,06 31/01/2022
935 225500 FABIANE DE FATIMA PORTELLA ANALISTA DO MP BELO HORIZONTE - COMARCA; BH-18PJ DIREITOS HUMANOS-SECRETARIA 18.820,14 5.646,04 0,00 0,00 0,00 0,00 0,00 1.717,00 26.183,18 3.707,80 4.839,19 0,00 0,00 8.546,99 17.636,19 31/01/2022
936 433800 FABIANE DINIZ MATTOS ANALISTA DO MP BELO HORIZONTE - COMARCA; BH-23PJ INFRACIONAL-ASS JURIDICA 14.324,23 2.864,85 0,00 0,00 0,00 0,00 2.651,94 3.255,78 23.096,80 2.967,78 3.770,78 0,00 0,00 6.738,56 16.358,24 31/01/2022
937 455000 FABIANO CARVALHO DA SILVA ANALISTA DO MP LAVRAS - COMARCA; LAVRAS-PJ-05PJ 10.069,62 2.013,92 0,00 0,00 0,00 0,00 0,00 1.717,00 13.800,54 1.726,58 1.978,80 0,00 0,00 3.705,38 10.095,16 31/01/2022
938 498800 FABIANO FURTADO PESSOA COELHO ANALISTA DO MP BELO HORIZONTE - COMARCA; DIRETORIA DE REDES E BANCOS DE DADOS 10.069,62 2.013,92 0,00 0,00 0,00 0,00 0,00 1.717,00 13.800,54 1.726,58 1.926,67 0,00 0,00 3.653,25 10.147,29 31/01/2022
939 663000 FABIANO MARQUES CORREA ASSESSOR BELO HORIZONTE - COMARCA; DIRETORIA DE SUPORTE E MANUTENCAO 0,00 0,00 5.136,32 0,00 0,00 0,00 0,00 1.717,00 6.853,32 722,98 673,76 0,00 0,00 1.396,74 5.456,58 31/01/2022
940 394600 FABIANO PALHARES SILVA ANALISTA DO MP BELO HORIZONTE - COMARCA; CENTRAL DE APOIO TECN-SETOR DE MEIO AMBIENTE 14.790,66 2.958,13 0,00 0,00 0,00 0,00 65,08 2.426,95 20.240,82 2.633,02 3.235,34 0,00 0,00 5.868,36 14.372,46 31/01/2022
941 676600 FABIANO RESENDE VELOSO ASSESSOR PROCURADOR JUSTICA BELO HORIZONTE - COMARCA; GABINETE DE PROCURADOR DE JUSTIÇA - SALA 1002 0,00 0,00 7.187,72 0,00 0,00 0,00 0,00 1.717,00 8.904,72 828,38 1.208,91 0,00 0,00 2.037,29 6.867,43 31/01/2022
942 444400 FABIANO SARAIVA MEDEIROS ANALISTA DO MP BETIM - COMARCA; BETIM-PJ-11PJ 13.011,52 2.602,30 0,00 0,00 0,00 0,00 0,00 1.717,00 17.330,82 2.291,42 2.690,02 0,00 0,00 4.981,44 12.349,38 31/01/2022
943 408700 FABIANO SOARES PORTILHO ANALISTA DO MP JUIZ DE FORA - COMARCA; GAECO REGIONAL DA ZONA DA MATA-JUIZ DE FORA 14.324,23 2.864,85 0,00 0,00 0,00 0,00 378,16 5.842,38 23.409,62 2.543,47 3.158,18 0,00 0,00 5.701,65 17.707,97 31/01/2022
944 442600 FABIO CARVALHO VIEIRA ANALISTA DO MP MONTES CLAROS - COMARCA; MONTES CLAROS-PJ-06PJ 10.069,62 2.013,92 0,00 0,00 0,00 0,00 531,68 7.517,10 20.132,32 1.726,58 1.978,80 0,00 0,00 3.705,38 16.426,94 31/01/2022
945 702700 FABIO JUNIOR COSTA BARREIROS ASSESSOR BELO HORIZONTE - COMARCA; DIVISAO DE MANUTENCAO PREDIAL 0,00 0,00 3.076,28 0,00 0,00 0,00 0,00 2.486,39 5.562,67 434,57 164,28 0,00 0,00 598,85 4.963,82 31/01/2022
946 240101 FABIO JUNQUEIRA DE ASSIS FONSECA OFICIAL DO MP BELO HORIZONTE - COMARCA; BH-17PJ PATRIMONIO PUBLICO-SECRETARIA 8.436,53 2.530,96 0,00 0,00 3.655,83 0,00 0,00 1.717,00 16.340,32 1.548,01 2.726,35 0,00 0,00 4.274,36 12.065,96 31/01/2022
947 271500 FABIO LUIZ VIEIRA OFICIAL DO MP SANTA VITÓRIA - COMARCA; SANTA VITORIA-PJ-UNPJ 10.069,62 3.020,89 0,00 0,00 0,00 0,00 527,98 7.512,82 21.131,31 1.887,70 2.107,14 0,00 0,00 3.994,84 17.136,47 31/01/2022
948 213100 FABIO PRATES GONCALVES ASSESSOR BELO HORIZONTE - COMARCA; DIR RELACOES INSTITUCIONAIS 0,00 4.159,01 10.397,52 0,00 0,00 0,00 0,00 1.717,00 16.273,53 828,38 3.078,92 0,00 0,00 3.907,30 12.366,23 31/01/2022
949 436700 FABIO SANTIAGO DE CARVALHO OFICIAL DO MP POÇO FUNDO - COMARCA; POCO FUNDO-PJ-UNPJ 8.858,43 1.771,69 0,00 0,00 0,00 0,00 545,68 7.669,87 18.845,67 1.494,03 1.643,06 0,00 0,00 3.137,09 15.708,58 31/01/2022
950 208400 FABIOLA DE SOUSA CARDOSO ASSESSOR/ANALISTA BELO HORIZONTE - COMARCA; CGMP-ASSESSORIA JURIDICA 18.820,14 7.528,06 2.520,26 0,00 0,00 0,00 529,25 7.490,69 36.888,40 4.008,93 5.967,01 0,00 0,00 9.975,94 26.912,46 31/01/2022
951 392200 FABIOLA LEROY COSTA ANALISTA DO MP ESMERALDAS - COMARCA; ESMERALDAS-PJ-01PJ 10.069,62 2.013,92 0,00 0,00 0,00 0,00 0,00 3.255,78 15.339,32 1.726,58 1.978,80 0,00 0,00 3.705,38 11.633,94 31/01/2022
952 409000 FABIOLA MONTEIRO DE CARVALHO CASTRO ANALISTA DO MP BOM SUCESSO - COMARCA; BOM SUCESSO-PJ-UNPJ 12.204,02 2.440,80 0,00 0,00 0,00 0,00 536,98 7.574,93 22.756,73 2.136,38 2.570,46 0,00 0,00 4.706,84 18.049,89 31/01/2022
953 525800 FABRICIA ALVES DANTAS OFICIAL DO MP MONTES CLAROS - COMARCA; MONTES CLAROS-PJ-01PJ 7.663,37 766,34 0,00 0,00 0,00 0,00 525,45 7.449,20 16.404,36 1.141,97 1.082,63 0,00 0,00 2.224,60 14.179,76 31/01/2022
954 263400 FABRICIA PINTO TEIXEIRA SANTIAGO OFICIAL DO MP BELO HORIZONTE - COMARCA; CAO-FUNDACOES-SECRETARIA 13.011,52 3.903,46 0,00 0,00 5.638,33 0,00 496,17 7.129,79 30.179,27 2.499,61 4.541,13 0,00 0,00 7.040,74 23.138,53 31/01/2022
955 420800 FABRICIO BERNARDES DE OLIVEIRA OFICIAL DO MP ITURAMA - COMARCA; ITURAMA-PJ-02PJ 8.858,43 1.771,69 0,00 0,00 0,00 0,00 545,68 7.717,87 18.893,67 1.494,03 1.590,93 0,00 0,00 3.084,96 15.808,71 31/01/2022
956 474000 FABRICIO DE FREITAS SALES ANALISTA DO MP MONTES CLAROS - COMARCA; COORD REG PATRI PUB ORD TRIB-NORTE MINAS 10.069,62 2.013,92 0,00 0,00 4.027,85 0,00 531,68 7.517,10 24.160,17 1.726,58 3.086,46 0,00 0,00 4.813,04 19.347,13 31/01/2022
957 510100 FABRICIO FURTADO ASSIS DO CARMO ANALISTA DO MP BELO HORIZONTE - COMARCA; SERVICO MEDICO-DEPTO PERIC MEDICA SAUDE OCUP 10.069,62 2.013,92 0,00 0,00 0,00 0,00 1.489,74 8.996,48 22.569,76 1.726,58 2.243,77 0,00 0,00 3.970,35 18.599,41 31/01/2022
958 519600 FABRICIO GONTIJO SALVATI ANALISTA DO MP JUIZ DE FORA - COMARCA; JUIZ DE FORA-CAO ESPECIALIZADO-SECRETARIA 10.069,62 2.013,92 0,00 845,84 0,00 0,00 1.006,96 1.717,00 15.653,34 1.887,69 2.211,41 0,00 0,00 4.099,10 11.554,24 31/01/2022
959 637400 FABRICIO HENRIQUE DA SILVA PASSOS ASSESSOR/ANALISTA BELO HORIZONTE - COMARCA; DIR CRIACAO E MIDIAS 0,00 1.039,75 10.397,52 0,00 0,00 0,00 0,00 1.717,00 13.154,27 1.403,07 1.890,04 0,00 0,00 3.293,11 9.861,16 31/01/2022
960 428200 FABRICIO ORZIL VIANA ANALISTA DO MP SANTA LUZIA - COMARCA; SANTA LUZIA-PJ-04PJ 10.069,62 2.013,92 0,00 0,00 0,00 0,00 531,68 7.517,10 20.132,32 1.726,58 1.978,80 0,00 0,00 3.705,38 16.426,94 31/01/2022
961 455600 FABRICIO PAIVA DA ROCHA ANALISTA DO MP SÃO JOÃO DEL REI - COMARCA; SAO JOAO DEL REI-PJ-06PJ 10.069,62 2.013,92 0,00 0,00 4.027,85 0,00 531,68 8.286,49 24.929,56 1.726,58 3.034,33 0,00 0,00 4.760,91 20.168,65 31/01/2022
962 511500 FABRICIO RENE CARDOSO DE PADUA ANALISTA DO MP SÃO SEBASTIÃO DO PARAÍSO - COMARCA; SAO SEBASTIAO DO PARAISO-PJ-03PJ 10.069,62 2.013,92 0,00 0,00 0,00 0,00 0,00 1.717,00 13.800,54 1.726,58 1.978,80 0,00 0,00 3.705,38 10.095,16 31/01/2022
963 496100 FABRICIO RESENDE GONCALVES OFICIAL DO MP ENTRE-RIOS DE MINAS - COMARCA; ENTRE RIOS DE MINAS-PJ-UNPJ 7.663,37 1.532,67 0,00 0,00 0,00 0,00 0,00 2.486,39 11.682,43 1.264,58 1.311,79 0,00 0,00 2.576,37 9.106,06 31/01/2022
964 650300 FABRICIO ROBERTO AZEVEDO OFICIAL DO MP NOVA SERRANA - COMARCA; NOVA SERRANA-PJ-04PJ 4.817,57 481,76 0,00 0,00 0,00 0,00 0,00 1.717,00 7.016,33 655,50 408,73 0,00 0,00 1.064,23 5.952,10 31/01/2022
965 514900 FADUA MARIA DRUMOND CHEQUER ANALISTA DO MP BETIM - COMARCA; BETIM-PJ-12PJ 10.069,62 2.013,92 0,00 845,84 0,00 0,00 1.006,96 1.717,00 15.653,34 1.887,69 2.107,14 0,00 0,00 3.994,83 11.658,51 31/01/2022
966 282500 FANNY FERREIRA MELO OFICIAL DO MP ARAXÁ - COMARCA; ARAXA-PJ-03PJ 10.069,62 3.020,89 0,00 0,00 0,00 0,00 3.503,20 1.717,00 18.310,71 1.887,70 3.174,79 0,00 0,00 5.062,49 13.248,22 31/01/2022
967 692500 FARID JUNIOR NUNES DA SILVA ASSESSOR PROCURADOR JUSTICA BELO HORIZONTE - COMARCA; GABINETE DE PROCURADOR DE JUSTIÇA - SALA 902 0,00 0,00 7.187,72 0,00 0,00 0,00 527,10 7.467,18 15.182,00 828,38 1.104,63 0,00 0,00 1.933,01 13.248,99 31/01/2022
968 540100 FATIMA CRISTINA POVOA DA COSTA COORDENADOR/OFICIAL BELO HORIZONTE - COMARCA; BH-18PJ VIOLENCIA DOMESTICA-SECRETARIA 0,00 3.545,75 11.819,15 554,43 1.695,93 1.239,98 1.061,48 7.248,36 27.165,08 1.239,98 3.974,84 0,00 0,00 5.214,82 21.950,26 31/01/2022
969 382800 FATIMA DE OLIVEIRA COELHO E SILVA ASSESSOR/OFICIAL BELO HORIZONTE - COMARCA; DIRETORIA DE ADMINISTRACAO FINANCEIRA 0,00 2.851,44 9.504,80 0,00 4.505,59 0,00 545,18 7.664,38 25.071,39 1.450,08 3.316,73 0,00 0,00 4.766,81 20.304,58 31/01/2022
970 398601 FELIPE ANTONIO HORTA DE PAULA ANALISTA DO MP BELO HORIZONTE - COMARCA; PROC. JUSTICA DIR. DIFUSOS E COLETIVOS-SEC 9.444,70 944,47 0,00 0,00 0,00 0,00 0,00 1.717,00 12.106,17 1.455,48 1.587,40 0,00 0,00 3.042,88 9.063,29 31/01/2022
971 430900 FELIPE BOY VIEIRA ANALISTA DO MP BELO HORIZONTE - COMARCA; DIRETORIA DE SEGURANCA 12.601,30 2.520,26 0,00 0,00 0,00 0,00 0,00 1.717,00 16.838,56 927,17 2.868,39 0,00 0,00 3.795,56 13.043,00 31/01/2022
972 631700 FELIPE DE MORAIS SIMOES COELHO ANALISTA DO MP BELO HORIZONTE - COMARCA; BH-18PJ VIOLENCIA DOMESTICA-SECRETARIA 8.436,53 843,65 0,00 0,00 0,00 0,00 0,00 1.717,00 10.997,18 1.278,04 1.331,23 0,00 0,00 2.609,27 8.387,91 31/01/2022
973 549100 FELIPE FERNANDES ALVIM ANALISTA DO MP LAJINHA - COMARCA; LAJINHA-PJ-UNPJ 9.444,70 944,47 0,00 0,00 0,00 0,00 533,31 8.304,33 19.226,81 1.455,48 1.587,40 0,00 0,00 3.042,88 16.183,93 31/01/2022
974 693100 FELIPE FROIS DO AMARAL ASSESSOR PROMOTOR JUSTICA RIBEIRÃO DAS NEVES - COMARCA; RIBEIRAO NEVES-SEC PJ EXECUCAO PENAL 0,00 0,00 7.187,72 0,00 0,00 0,00 0,00 1.717,00 8.904,72 828,38 1.104,63 0,00 0,00 1.933,01 6.971,71 31/01/2022
975 620100 FELIPE GOMES DE AZEVEDO ASSESSOR/OFICIAL BELO HORIZONTE - COMARCA; DIVISAO DE SERVICOS 0,00 817,05 8.170,49 0,00 0,00 0,00 0,00 1.717,00 10.704,54 749,48 1.396,11 0,00 0,00 2.145,59 8.558,95 31/01/2022
976 601600 FELIPE RODRIGUES DE SIQUEIRA ANALISTA DO MP BELO HORIZONTE - COMARCA; BH-02PJ FAMILIA-SECRETARIA 9.444,70 944,47 0,00 0,00 0,00 0,00 533,31 7.534,94 18.457,42 927,17 1.264,63 0,00 0,00 2.191,80 16.265,62 31/01/2022
977 628900 FELIX FERNANDO JUNIO VIEIRA ANALISTA DO MP CAETÉ - COMARCA; CAETE-PJ-02PJ 9.146,93 914,69 0,00 0,00 0,00 0,00 516,50 7.351,51 17.929,63 1.403,07 1.459,60 0,00 0,00 2.862,67 15.066,96 31/01/2022
978 544500 FELLIPE LEMOS MARCONDES BUENO ANALISTA DO MP SÃO SEBASTIÃO DO PARAÍSO - COMARCA; SAO SEBASTIAO DO PARAISO-PJ-04PJ 9.444,70 944,47 0,00 0,00 0,00 0,00 0,00 1.717,00 12.106,17 1.455,48 1.587,40 0,00 0,00 3.042,88 9.063,29 31/01/2022
979 688500 FELLIPE TADEU DE ANDRADE RAMOS ASSESSOR PROCURADOR JUSTICA BELO HORIZONTE - COMARCA; GABINETE DE PROCURADOR DE JUSTIÇA - SALA 907 0,00 0,00 7.187,72 0,00 2.395,91 0,00 0,00 1.717,00 11.300,63 828,38 1.867,78 0,00 0,00 2.696,16 8.604,47 31/01/2022
980 612600 FERNANDA ADRIANA DE PAULA GUIDO ANALISTA DO MP PARACATU - COMARCA; PARACATU-PJ-02PJ 9.146,93 914,69 0,00 0,00 0,00 0,00 516,50 8.120,90 18.699,02 1.403,07 1.511,74 0,00 0,00 2.914,81 15.784,21 31/01/2022
981 508400 FERNANDA AGANETTI MATTOS DE OLIVEIRA ANALISTA DO MP BELO HORIZONTE - COMARCA; JUNTA RECURSAL DO PROCON ESTADUAL 10.069,62 2.013,92 0,00 0,00 0,00 0,00 0,00 3.255,78 15.339,32 682,07 2.266,04 0,00 0,00 2.948,11 12.391,21 31/01/2022
982 453600 FERNANDA ALBERNAZ RABELO ANALISTA DO MP BELO HORIZONTE - COMARCA; GABINETE DE PROCURADOR DE JUSTIÇA - SALA 616 10.069,62 2.013,92 0,00 0,00 0,00 0,00 0,00 1.717,00 13.800,54 1.726,58 1.978,80 0,00 0,00 3.705,38 10.095,16 31/01/2022
983 255600 FERNANDA ALINA DE ALMEIDA ANDRADE OFICIAL DO MP BELO HORIZONTE - COMARCA; DIRETORIA DE INTELIGENCIA 10.069,62 3.020,89 0,00 0,00 0,00 0,00 527,98 7.476,82 21.095,31 1.887,70 2.211,41 0,00 0,00 4.099,11 16.996,20 31/01/2022
984 443200 FERNANDA ALMEIDA LOPES ANALISTA DO MP CONTAGEM - COMARCA; CONTAGEM-PJ-10PJ 13.011,52 2.602,30 0,00 0,00 5.204,61 0,00 0,00 3.255,78 24.074,21 2.291,42 4.121,29 0,00 0,00 6.412,71 17.661,50 31/01/2022
985 281100 FERNANDA ANANIAS MEIRA ANALISTA DO MP BELO HORIZONTE - COMARCA; BH-23PJ INFRACIONAL-ASS JURIDICA 17.413,92 5.224,18 0,00 0,00 0,00 0,00 3.492,72 1.717,00 27.847,82 3.974,14 5.223,73 0,00 0,00 9.197,87 18.649,95 31/01/2022
986 539000 FERNANDA BARBOSA ALVES ANALISTA DO MP UBERABA - COMARCA; UBERABA-PJ-04PJ 9.444,70 944,47 0,00 0,00 0,00 0,00 0,00 2.486,39 12.875,56 1.455,48 1.587,40 0,00 0,00 3.042,88 9.832,68 31/01/2022
987 451200 FERNANDA BLOISE PRADO OFICIAL DO MP BELO HORIZONTE - COMARCA; BH-12PJ JUIZO CRIMINAL-SECRETARIA 8.436,53 1.687,31 0,00 0,00 0,00 0,00 371,21 5.766,54 16.261,59 1.413,03 1.526,11 0,00 0,00 2.939,14 13.322,45 31/01/2022
988 427900 FERNANDA BRAGA CARNEIRO BICALHO ANALISTA DO MP PEÇANHA - COMARCA; PECANHA-PJ-SECRETARIA 10.069,62 2.013,92 0,00 0,00 4.027,85 0,00 0,00 2.486,39 18.597,78 1.726,58 3.034,33 0,00 0,00 4.760,91 13.836,87 31/01/2022
989 507100 FERNANDA CABRINI VAZ MOTA ANALISTA DO MP BELO HORIZONTE - COMARCA; DIVISAO DE MATERIAIS 10.069,62 2.013,92 0,00 0,00 4.027,85 0,00 531,68 9.055,88 25.698,95 846,93 3.225,32 0,00 0,00 4.072,25 21.626,70 31/01/2022
990 259800 FERNANDA CALZAVARA DE SOUSA COORDENADOR/OFICIAL BELO HORIZONTE - COMARCA; DIRET DE FORMACAO, APERFEIC. E POS-GRADUACAO 13.011,52 3.903,46 2.687,03 0,00 0,00 0,00 0,00 2.486,39 22.088,40 2.499,61 3.781,66 0,00 0,00 6.281,27 15.807,13 31/01/2022
991 494400 FERNANDA CAMPOS BARATA OFICIAL DO MP JUIZ DE FORA - COMARCA; JUIZ DE FORA-PJ-08PJ 6.123,79 1.224,76 0,00 0,00 0,00 0,00 0,00 1.717,00 9.065,55 968,98 885,02 0,00 0,00 1.854,00 7.211,55 31/01/2022
992 555600 FERNANDA CAROLINE RIBEIRO ANALISTA DO MP BELO HORIZONTE - COMARCA; DIRETORIA GESTAO CONTRATOS CONVENIOS 9.444,70 944,47 0,00 0,00 0,00 0,00 533,31 7.534,94 18.457,42 1.455,48 1.587,40 0,00 0,00 3.042,88 15.414,54 31/01/2022
993 692000 FERNANDA CESAR SILVA ASSESSOR PROCURADOR JUSTICA BELO HORIZONTE - COMARCA; GABINETE DE PROCURADOR DE JUSTIÇA - SALA 809 0,00 0,00 7.187,72 0,00 0,00 0,00 0,00 1.717,00 8.904,72 828,38 1.208,91 0,00 0,00 2.037,29 6.867,43 31/01/2022
994 294500 FERNANDA COSTA FLORES OFICIAL DO MP PARÁ DE MINAS - COMARCA; PARA DE MINAS-PJ-04PJ 10.069,62 3.020,89 0,00 0,00 0,00 0,00 527,98 7.476,82 21.095,31 1.887,70 2.211,41 0,00 0,00 4.099,11 16.996,20 31/01/2022
995 344500 FERNANDA CRISTINA DE SOUZA PAZ ASSESSOR BELO HORIZONTE - COMARCA; CENTRAL DE APOIO TECN-SETOR DE MEIO AMBIENTE 0,00 0,00 5.136,32 0,00 0,00 0,00 0,00 1.717,00 6.853,32 722,98 569,48 0,00 0,00 1.292,46 5.560,86 31/01/2022
996 538100 FERNANDA CRISTINA DOS SANTOS ROSA OFICIAL DO MP RIBEIRÃO DAS NEVES - COMARCA; RIBEIRAO DAS NEVES-PJ-09PJ 6.123,79 1.837,14 0,00 0,00 0,00 0,00 0,00 1.717,00 9.677,93 1.066,96 1.026,48 0,00 0,00 2.093,44 7.584,49 31/01/2022
997 337800 FERNANDA CRISTINA ROLAND CLIMACO MENDES COORDENADOR/OFICIAL BELO HORIZONTE - COMARCA; DIRETORIA DE PAGAMENTO DE PESSOAL-DPAG 12.204,02 3.661,21 2.687,03 1.780,52 0,00 0,00 15.755,90 8.740,27 44.828,95 2.331,65 2.751,98 0,00 3.052,10 8.135,73 36.693,22 31/01/2022
998 545400 FERNANDA CUNHA GUIMARAES ANALISTA DO MP BELO HORIZONTE - COMARCA; EXTINTA-COORD EST DEF DIR FAM PES DEFIC IDOSO 9.444,70 944,47 0,00 0,00 0,00 0,00 0,00 1.717,00 12.106,17 1.455,48 1.587,40 0,00 0,00 3.042,88 9.063,29 31/01/2022
999 429801 FERNANDA CUNHA PINHEIRO DA SILVA ANALISTA DO MP BELO HORIZONTE - COMARCA; ASSESSORIA DE COMUNICACAO INTEGRADA 10.069,62 2.013,92 0,00 0,00 0,00 0,00 0,00 1.717,00 13.800,54 1.726,58 1.874,53 0,00 0,00 3.601,11 10.199,43 31/01/2022
1000 408000 FERNANDA DAS NEVES RAMOS ANALISTA DO MP BELO HORIZONTE - COMARCA; FEPDC-SECRETARIA EXECUTIVA 14.324,23 2.864,85 0,00 0,00 0,00 0,00 504,21 7.986,90 25.680,19 2.543,47 3.158,18 0,00 0,00 5.701,65 19.978,54 31/01/2022
1001 496000 FERNANDA DE ALMEIDA VIANA ANALISTA DO MP BELO HORIZONTE - COMARCA; PROC JUST ATUACAO TRIBUNAIS SUPERIORES-GAB002 10.069,62 2.013,92 0,00 0,00 0,00 0,00 531,68 9.055,88 21.671,10 1.726,58 1.874,53 0,00 0,00 3.601,11 18.069,99 31/01/2022
1002 266700 FERNANDA DE CASTRO LUCAS COORDENADOR/OFICIAL BELO HORIZONTE - COMARCA; DIRET DE DESENV DE RECURSOS HUMANOS-DDRH 13.011,52 3.903,46 2.687,03 0,00 0,00 0,00 2.425,98 7.974,95 30.002,94 2.499,61 4.310,45 0,00 0,00 6.810,06 23.192,88 31/01/2022
1003 433200 FERNANDA DE FIGUEIREDO NORTE ANALISTA DO MP BELO HORIZONTE - COMARCA; ASSESS JUR DO CONS SUPERIOR DO MINISTERIO PUB 14.324,23 2.864,85 0,00 0,00 0,00 0,00 0,00 1.717,00 18.906,08 2.543,47 3.053,91 0,00 0,00 5.597,38 13.308,70 31/01/2022
1004 419200 FERNANDA DE MIRANDA MARTINS SIMOES ANALISTA DO MP UBERLÂNDIA - COMARCA; UBERLANDIA-PJ-17PJ 14.324,23 2.864,85 0,00 0,00 0,00 0,00 504,21 7.986,90 25.680,19 2.543,47 3.158,18 0,00 0,00 5.701,65 19.978,54 31/01/2022
1005 441400 FERNANDA DE MORAIS PINTO ANALISTA DO MP BELO HORIZONTE - COMARCA; PROC. JUSTICA DIR. DIFUSOS E COLETIVOS-SEC 13.011,52 2.602,30 0,00 0,00 0,00 0,00 0,00 1.717,00 17.330,82 2.291,42 2.794,30 0,00 0,00 5.085,72 12.245,10 31/01/2022
1006 432200 FERNANDA DE MOURA GUIMARAES ANALISTA DO MP BELO HORIZONTE - COMARCA; BH-26 CRIME CONT CRIAN ADOL-SECRETARIA 13.011,52 2.602,30 0,00 0,00 0,00 0,00 0,00 1.717,00 17.330,82 2.291,42 2.794,30 0,00 0,00 5.085,72 12.245,10 31/01/2022
1007 461800 FERNANDA DE OLIVEIRA SANTOS ANALISTA DO MP JUIZ DE FORA - COMARCA; JUIZ DE FORA-PJ-21PJ 11.085,56 2.217,11 0,00 0,00 0,00 0,00 536,54 8.339,56 22.178,77 1.921,64 2.260,42 0,00 0,00 4.182,06 17.996,71 31/01/2022
1008 432500 FERNANDA DE PAULA PINTO ANALISTA DO MP BELO HORIZONTE - COMARCA; PROC JUST ATUACAO TRIBUNAIS SUPERIORES-GAB003 13.011,52 2.602,30 0,00 0,00 0,00 0,00 0,00 2.486,39 18.100,21 2.291,42 2.794,30 0,00 0,00 5.085,72 13.014,49 31/01/2022
1009 431600 FERNANDA DIAS BARBOSA PEREIRA ANALISTA DO MP BELO HORIZONTE - COMARCA; BH-02PJ FAMILIA-SECRETARIA 13.011,52 2.602,30 0,00 0,00 0,00 0,00 515,26 8.107,37 24.236,45 2.291,42 2.690,02 0,00 0,00 4.981,44 19.255,01 31/01/2022
1010 162200 FERNANDA FERNANDES MONTEIRO ASSESSOR BELO HORIZONTE - COMARCA; BH-12PJ JUIZO CRIMINAL-SECRETARIA 0,00 2.054,53 5.136,32 0,00 0,00 0,00 527,33 7.469,68 15.187,86 828,38 1.157,63 0,00 0,00 1.986,01 13.201,85 31/01/2022
1011 512800 FERNANDA FERREIRA BARBOSA MOREIRA ANALISTA DO MP IPATINGA - COMARCA; IPATINGA-PJ-05PJ 10.069,62 2.013,92 0,00 0,00 0,00 0,00 0,00 2.486,39 14.569,93 744,26 2.145,89 0,00 0,00 2.890,15 11.679,78 31/01/2022
1012 329200 FERNANDA GABRIEL GUZELLA OFICIAL DO MP BELO HORIZONTE - COMARCA; DIRET DE PLANOS PROJETOS E PROGRAMAS INST 10.069,62 3.020,89 0,00 0,00 0,00 0,00 0,00 1.717,00 14.807,51 1.887,70 2.211,41 0,00 0,00 4.099,11 10.708,40 31/01/2022
1013 324200 FERNANDA GEORGIA NEVES ZAHAN OFICIAL DO MP IPANEMA - COMARCA; IPANEMA-PJ-SECRETARIA 8.436,53 5.905,57 0,00 0,00 0,00 0,00 0,00 1.717,00 16.059,10 2.087,95 2.500,53 0,00 0,00 4.588,48 11.470,62 31/01/2022
1014 548200 FERNANDA GONCALVES DE CARVALHO ZUZA OFICIAL DO MP TUPACIGUARA - COMARCA; TUPACIGUARA-PJ-01PJ 6.123,79 612,38 0,00 0,00 0,00 0,00 543,38 7.644,83 14.924,38 872,76 743,08 0,00 0,00 1.615,84 13.308,54 31/01/2022
1015 355400 FERNANDA HELENA BASQUES OFICIAL DO MP SABARÁ - COMARCA; SABARA-PJ-01PJ 10.069,62 3.020,89 0,00 0,00 0,00 0,00 0,00 1.717,00 14.807,51 1.887,70 2.211,41 0,00 0,00 4.099,11 10.708,40 31/01/2022
1016 454800 FERNANDA IATAROLA BARBOSA DIAS ANALISTA DO MP BARBACENA - COMARCA; BARBACENA-PJ-05PJ 11.085,56 2.217,11 0,00 0,00 0,00 0,00 536,54 7.570,17 21.409,38 1.921,64 2.208,29 0,00 0,00 4.129,93 17.279,45 31/01/2022
1017 515500 FERNANDA LILIANE MARUGEIRO ANALISTA DO MP LAGOA SANTA - COMARCA; LAGOA SANTA-PJ-01PJ 10.069,62 2.013,92 0,00 0,00 4.027,85 0,00 531,68 9.055,88 25.698,95 1.726,58 3.034,33 0,00 0,00 4.760,91 20.938,04 31/01/2022
1018 392900 FERNANDA MAGALHAES SILVA ANALISTA DO MP BELO HORIZONTE - COMARCA; DIR CONTEUDO JORNALISTICO 14.790,66 2.958,13 0,00 0,00 0,00 0,00 520,63 7.396,61 25.666,03 2.633,02 3.287,48 0,00 0,00 5.920,50 19.745,53 31/01/2022
1019 409200 FERNANDA MAIA SANTIAGO CARDOSO ANALISTA DO MP PIRAPORA - COMARCA; PIRAPORA-PJ-02PJ 10.069,62 2.013,92 0,00 0,00 0,00 0,00 443,06 7.319,81 19.846,41 1.726,58 1.978,80 0,00 0,00 3.705,38 16.141,03 31/01/2022
1020 714100 FERNANDA MELO FIORENZANO REIS ASSESSOR BELO HORIZONTE - COMARCA; DIR CONTEUDO JORNALISTICO 0,00 0,00 10.397,52 0,00 0,00 0,00 0,00 1.717,00 12.114,52 828,38 2.091,60 0,00 0,00 2.919,98 9.194,54 31/01/2022
1021 556500 FERNANDA OTERO COSTA ANALISTA DO MP BELO HORIZONTE - COMARCA; ASSESS TECNICO-JUR JUNTO AS PROC. DE JUST 10.069,62 1.006,96 0,00 0,00 0,00 0,00 527,98 7.476,82 19.081,38 774,26 1.881,50 0,00 0,00 2.655,76 16.425,62 31/01/2022
1022 615300 FERNANDA PATRICIA RIBEIRO MOTA OFICIAL DO MP UBERABA - COMARCA; UBERABA-PJ-05PJ 5.930,75 593,08 0,00 0,00 0,00 0,00 358,81 5.631,30 12.513,94 906,41 730,75 0,00 0,00 1.637,16 10.876,78 31/01/2022
1023 619800 FERNANDA PINTO PEREIRA ANALISTA DO MP UBERLÂNDIA - COMARCA; UBERLANDIA-PJ-20PJ 9.146,93 914,69 0,00 0,00 6.707,74 0,00 0,00 3.255,78 20.025,14 1.403,07 3.304,23 0,00 0,00 4.707,30 15.317,84 31/01/2022
1024 412900 FERNANDA PORTELA ROSA ANALISTA DO MP BELO HORIZONTE - COMARCA; BH-08PJ JUIZADO ESPECIAL-SECRETARIA 14.324,23 2.864,85 0,00 0,00 0,00 0,00 504,21 7.986,90 25.680,19 2.543,47 3.158,18 0,00 0,00 5.701,65 19.978,54 31/01/2022
1025 274301 FERNANDA QUEIROZ PARREIRA ANALISTA DO MP PATOS DE MINAS - COMARCA; GAECO REGIONAL DE PATOS DE MINAS 10.069,62 2.013,92 0,00 0,00 0,00 0,00 0,00 1.717,00 13.800,54 1.726,58 1.978,80 0,00 0,00 3.705,38 10.095,16 31/01/2022
1026 467900 FERNANDA QUEIROZ SIMOES GANNAM ANALISTA DO MP SÃO LOURENÇO - COMARCA; SAO LOURENCO-PJ-02PJ 11.085,56 2.217,11 0,00 0,00 0,00 0,00 0,00 1.717,00 15.019,67 1.921,64 2.208,29 0,00 0,00 4.129,93 10.889,74 31/01/2022
1027 681001 FERNANDA ROCHA DE MATOS TEIXEIRA ASSESSOR PROMOTOR JUSTICA BELO VALE - COMARCA; BELO VALE-PJ-UNPJ 0,00 0,00 7.187,72 0,00 0,00 0,00 0,00 2.486,39 9.674,11 828,38 1.156,77 0,00 0,00 1.985,15 7.688,96 31/01/2022
1028 255500 FERNANDA SIMOES LOPES MENDES ANALISTA DO MP BELO HORIZONTE - COMARCA; BH-17PJ PATRIMONIO PUBLICO-SECRETARIA 18.820,14 5.646,04 0,00 0,00 0,00 0,00 0,00 1.717,00 26.183,18 3.707,80 4.734,92 0,00 0,00 8.442,72 17.740,46 31/01/2022
1029 708700 FERNANDA TIAGO BOLINA ASSESSOR PROMOTOR JUSTICA IGUATAMA - COMARCA; IGUATAMA-PJ-UNPJ 0,00 0,00 7.187,72 0,00 0,00 0,00 0,00 1.717,00 8.904,72 828,38 1.208,91 0,00 0,00 2.037,29 6.867,43 31/01/2022
1030 481700 FERNANDA VIANA FROES DA SILVA OFICIAL DO MP GOVERNADOR VALADARES - COMARCA; GOVERNADOR VALADARES-PJ-09PJ 7.912,85 1.582,57 0,00 0,00 0,00 0,00 0,00 1.717,00 11.212,42 1.312,48 1.380,95 0,00 0,00 2.693,43 8.518,99 31/01/2022
1031 123900 FERNANDO ANTONIO FARIA DE ABREU ANALISTA DO MP BELO HORIZONTE - COMARCA; SUPERINTENDÊNCIA DE ENGENHARIA E ARQUITETURA 26.471,31 23.824,17 0,00 0,00 1.828,74 5.467,17 520,12 7.390,96 65.502,47 5.467,17 9.385,65 14.833,26 0,00 29.686,08 35.816,39 31/01/2022
1032 416900 FERNANDO APARECIDO DA SILVA ANALISTA DO MP BOM DESPACHO - COMARCA; BOM DESPACHO-PJ-02PJ 13.011,52 9.108,06 0,00 0,00 0,00 0,00 486,63 7.025,70 29.631,91 3.332,35 4.192,85 0,00 0,00 7.525,20 22.106,71 31/01/2022
1033 500100 FERNANDO CEZAR PINTO OFICIAL DO MP SANTA LUZIA - COMARCA; SANTA LUZIA-PJ-04PJ 7.912,85 1.582,57 0,00 0,00 0,00 0,00 522,25 7.414,25 17.431,92 1.312,48 1.328,81 0,00 0,00 2.641,29 14.790,63 31/01/2022
1034 346100 FERNANDO EUSTAQUIO CAMPOS UTSCH MOREIRA ANALISTA DO MP BELO HORIZONTE - COMARCA; DIRETORIA DE SISTEMAS DE INFORMACAO 16.750,82 5.025,25 0,00 0,00 0,00 0,00 479,07 6.943,26 29.198,40 3.277,38 4.113,50 0,00 0,00 7.390,88 21.807,52 31/01/2022
1035 103500 FERNANDO LUIZ DA SILVA JUNIOR OFICIAL DO MP BELO HORIZONTE - COMARCA; DIVISAO DE ATENDIMENTO E CONSULTA JURIDICA 18.820,14 9.410,07 0,00 0,00 9.410,07 0,00 0,00 1.717,00 39.357,28 4.310,05 8.296,45 0,00 0,00 12.606,50 26.750,78 31/01/2022
1036 287300 FERNANDO MARCIO ALVES MARTINS OFICIAL DO MP LEOPOLDINA - COMARCA; LEOPOLDINA-PJ-01PJ 8.858,43 2.657,53 0,00 0,00 0,00 0,00 548,93 7.705,30 19.770,19 1.635,77 1.743,42 0,00 0,00 3.379,19 16.391,00 31/01/2022
1037 472900 FERNANDO RODRIGUES DE FREITAS ANALISTA DO MP BELO HORIZONTE - COMARCA; BH-15PJ M AMB PAT HIST CULT-ASS TECNICA 10.069,62 2.013,92 0,00 0,00 0,00 0,00 0,00 1.717,00 13.800,54 1.726,58 1.978,80 0,00 0,00 3.705,38 10.095,16 31/01/2022
1038 421400 FERNANDO TEODORO MACIEL ANALISTA DO MP SANTA VITÓRIA - COMARCA; SANTA VITORIA-PJ-UNPJ 12.204,02 2.440,80 0,00 0,00 0,00 0,00 536,98 8.344,32 23.526,12 2.136,38 2.466,19 0,00 0,00 4.602,57 18.923,55 31/01/2022
1039 446300 FERNANDO VITOR DE OLIVEIRA ANALISTA DO MP MONTES CLAROS - COMARCA; COORD REG BACIA RIOS VERDE GRANDE E PARDO 13.011,52 2.602,30 0,00 0,00 0,00 0,00 515,26 7.337,98 23.467,06 2.291,42 2.794,30 0,00 0,00 5.085,72 18.381,34 31/01/2022
1040 639300 FILIPE ALMEIDA RODRIGUES ANALISTA DO MP IPATINGA - COMARCA; COORD REG SAUDE MACRORREGIAO SANIT VALE ACO 8.436,53 843,65 0,00 0,00 0,00 0,00 544,44 7.656,32 17.480,94 1.278,04 1.331,23 0,00 0,00 2.609,27 14.871,67 31/01/2022
1041 692600 FILIPPE WAGNER MAGALHAES ALAMY REIS ASSESSOR PROCURADOR JUSTICA BELO HORIZONTE - COMARCA; GABINETE DE PROCURADOR DE JUSTIÇA - SALA 604 0,00 0,00 7.187,72 0,00 0,00 0,00 0,00 2.486,39 9.674,11 828,38 1.208,91 0,00 0,00 2.037,29 7.636,82 31/01/2022
1042 398400 FLAVIA ALVARES GUIMARAES COORDENADOR/OFICIAL BELO HORIZONTE - COMARCA; EXTINTA-CGMP-DIV APOIO FISC ORIENT FUNCIONAL 0,00 2.363,83 11.819,15 -280,46 0,00 0,00 520,04 7.390,19 21.812,75 1.606,60 1.990,41 0,00 2.177,21 5.774,22 16.038,53 31/01/2022
1043 398200 FLAVIA ALVES DE ASSUNCAO RODRIGUES ANALISTA DO MP DIVINÓPOLIS - COMARCA; COORD REG DO MA DA BACIA DO ALTO SAO FRANC 13.011,52 2.602,30 0,00 0,00 0,00 0,00 515,26 8.107,37 24.236,45 2.291,42 2.742,16 0,00 0,00 5.033,58 19.202,87 31/01/2022
1044 318500 FLAVIA BEATRIZ NUNES CRUZ VIEIRA ANALISTA DO MP BARBACENA - COMARCA; BARBACENA-PJ-SECRETARIA 17.413,92 5.224,18 0,00 0,00 0,00 0,00 498,04 7.150,14 30.286,28 1.159,92 4.676,13 0,00 0,00 5.836,05 24.450,23 31/01/2022